[[{"header":{"parameterUnit":"m.s-1","parameterCategory":1,"la1":30.6,"la2":29.2853,"lo1":-89.7004,"lo2":-87.6739,"dy":0.0162,"dx":0.0183,"nx":112,"ny":82,"refTime":"2023-08-14T06:00:00:Z","depth":0,"parameterNumber":2,"parameterNumberName":"U-component_of_WINDS"},"data":[0.0,0.0,0.0,0.0,0.0,0.0,0.0,0.0,0.0,0.0,0.0,0.0,0.0,0.0,0.0,0.0,0.0,0.0,0.0,0.0,0.0,0.0,0.0,0.0,0.0,0.0,0.0,0.0,0.0,0.0,0.0,0.0,0.0,0.0,0.0,0.0,0.0,0.0,0.0,0.0,0.0,0.0,0.0,0.0,0.0,0.0,0.0,0.0,0.0,0.0,0.0,0.0,0.0,0.0,0.0,0.0,0.0,0.0,0.0,0.0,0.0,0.0,0.0,0.0,0.0,0.0,0.0,0.0,0.0,0.0,0.0,0.0,0.0,0.0,0.0,0.0,0.0,0.0,0.0,0.0,0.0,0.0,0.0,0.0,0.0,0.0,0.0,0.0,0.0,0.0,0.0,1.5845,1.7454,1.8331,1.8004,1.7863,1.7726,1.7568,0.0,0.0,0.0,0.0,0.0,0.0,0.0,0.0,0.0,0.0,0.0,0.0,0.0,0.0,0.0,0.0,0.0,0.0,0.0,0.0,0.0,0.0,0.0,0.0,0.0,0.0,0.0,0.0,0.0,0.0,0.0,0.0,0.0,0.0,0.0,0.0,0.0,0.0,0.0,0.0,0.0,0.0,0.0,0.0,0.0,0.0,0.0,0.0,0.0,0.0,0.0,0.0,0.0,0.0,0.0,0.0,0.0,0.0,0.0,0.0,0.0,0.0,0.0,0.0,0.0,0.0,0.0,0.0,0.0,0.0,0.0,0.0,0.0,0.0,0.0,0.0,0.0,0.0,0.0,0.0,0.0,0.0,0.0,0.0,0.0,0.0,0.0,0.0,0.0,0.0,0.0,0.0,0.0,0.0,0.0,0.0,0.0,0.0,0.0,0.0,0.0,0.0,0.0,0.0,1.6569,1.6848,1.7766,1.8369,1.8416,1.7495,1.7297,1.8295,0.0,0.0,0.0,0.0,0.0,0.0,0.0,0.0,0.0,0.0,0.0,0.0,0.0,0.0,0.0,0.0,0.0,0.0,0.0,0.0,0.0,0.0,0.0,0.0,0.0,0.0,0.0,0.0,0.0,0.0,0.0,0.0,0.0,0.0,0.0,0.0,0.0,0.0,0.0,0.0,0.0,0.0,0.0,0.0,0.0,0.0,0.0,0.0,0.0,0.0,0.0,0.0,0.0,0.0,0.0,0.0,0.0,0.0,0.0,0.0,0.0,0.0,0.0,0.0,0.0,0.0,0.0,0.0,0.0,0.0,0.0,0.0,0.0,0.0,0.0,0.0,0.0,0.0,0.0,0.0,0.0,0.0,0.0,0.0,0.0,0.0,0.0,0.0,0.0,0.0,0.0,0.0,0.0,0.0,0.0,0.0,0.0,0.0,0.0,0.0,0.0,0.0,0.0,1.7271,1.7581,1.8223,1.8643,1.8711,1.8252,1.7305,1.707,1.7969,1.6772,0.0,0.0,0.0,0.0,0.0,0.0,0.0,0.0,0.0,0.0,0.0,0.0,0.0,0.0,0.0,0.0,0.0,0.0,0.0,0.0,0.0,0.0,0.0,0.0,0.0,0.0,0.0,0.0,0.0,0.0,0.0,0.0,0.0,0.0,0.0,0.0,0.0,0.0,0.0,0.0,0.0,0.0,0.0,0.0,0.0,0.0,0.0,0.0,0.0,0.0,0.0,0.0,0.0,0.0,0.0,0.0,0.0,0.0,0.0,0.0,0.0,0.0,0.0,0.0,0.0,0.0,0.0,0.0,0.0,0.0,0.0,0.0,0.0,0.0,0.0,0.0,0.0,0.0,0.0,0.0,0.0,0.0,0.0,0.0,0.0,0.0,0.0,0.0,0.0,0.0,0.0,0.0,0.0,0.0,0.0,0.0,0.0,0.0,0.0,0.0,0.0,0.0,1.8125,1.8238,1.9184,1.9322,1.9025,1.8187,1.7061,1.6795,1.7718,1.6245,0.0,0.0,0.0,0.0,0.0,0.0,0.0,0.0,0.0,0.0,0.0,0.0,0.0,0.0,0.0,0.0,0.0,0.0,0.0,0.0,0.0,0.0,0.0,0.0,0.0,0.0,0.0,0.0,0.0,0.0,0.0,0.0,0.0,0.0,0.0,0.0,0.0,0.0,0.0,0.0,0.0,0.0,0.0,0.0,0.0,0.0,0.0,0.0,0.0,0.0,0.0,0.0,0.0,0.0,0.0,0.0,0.0,0.0,0.0,0.0,0.0,0.0,0.0,0.0,0.0,0.0,0.0,0.0,0.0,0.0,0.0,0.0,0.0,0.0,0.0,0.0,0.0,0.0,0.0,0.0,0.0,0.0,0.0,0.0,0.0,0.0,0.0,0.0,0.0,0.0,0.0,0.0,0.0,0.0,0.0,0.0,0.0,0.0,0.0,0.0,0.0,0.0,1.862,1.8367,1.9119,1.9288,1.9058,1.842,1.6603,1.6325,1.8232,1.5727,0.0,0.0,0.0,0.0,0.0,0.0,0.0,0.0,0.0,0.0,0.0,0.0,0.0,0.0,0.0,0.0,0.0,0.0,0.0,0.0,0.0,0.0,0.0,0.0,0.0,0.0,0.0,0.0,0.0,0.0,0.0,0.0,0.0,0.0,0.0,0.0,0.0,0.0,0.0,0.0,0.0,0.0,0.0,0.0,0.0,0.0,0.0,0.0,0.0,0.0,0.0,0.0,0.0,0.0,0.0,0.0,0.0,0.0,0.0,0.0,0.0,0.0,0.0,0.0,0.0,0.0,0.0,0.0,0.0,0.0,0.0,0.0,0.0,0.0,0.0,0.0,0.0,0.0,0.0,0.0,0.0,0.0,0.0,0.0,0.0,0.0,0.0,0.0,0.0,0.0,0.0,0.0,0.0,0.0,0.0,0.0,0.0,0.0,0.0,0.0,0.0,0.0,1.9813,1.931,0.0,1.9099,1.8609,1.7775,1.6695,1.6535,1.7714,0.0,0.0,0.0,0.0,0.0,0.0,0.0,0.0,0.0,0.0,0.0,0.0,0.0,0.0,0.0,0.0,0.0,0.0,0.0,0.0,0.0,0.0,0.0,0.0,0.0,0.0,0.0,0.0,0.0,0.0,0.0,0.0,0.0,0.0,0.0,0.0,0.0,0.0,0.0,0.0,0.0,0.0,0.0,0.0,0.0,0.0,0.0,0.0,0.0,0.0,0.0,0.0,0.0,0.0,0.0,0.0,0.0,0.0,0.0,0.0,0.0,0.0,0.0,0.0,0.0,0.0,0.0,0.0,0.0,0.0,0.0,0.0,0.0,0.0,0.0,0.0,0.0,0.0,0.0,0.0,0.0,0.0,0.0,0.0,0.0,0.0,0.0,0.0,0.0,0.0,0.0,0.0,0.0,0.0,0.0,0.0,0.0,0.0,0.0,0.0,0.0,0.0,2.0822,2.0145,1.953,0.0,1.8833,1.8307,1.747,1.6618,1.6578,1.7608,0.0,0.0,0.0,0.0,0.0,0.0,0.0,0.0,0.0,0.0,0.0,0.0,0.0,0.0,0.0,0.0,0.0,0.0,0.0,0.0,0.0,0.0,0.0,0.0,0.0,0.0,0.0,0.0,0.0,0.0,0.0,0.0,0.0,0.0,0.0,0.0,0.0,0.0,0.0,0.0,0.0,0.0,0.0,0.0,0.0,0.0,0.0,0.0,0.0,0.0,0.0,0.0,0.0,0.0,0.0,0.0,0.0,0.0,0.0,0.0,0.0,0.0,0.0,0.0,0.0,0.0,0.0,0.0,0.0,0.0,0.0,0.0,0.0,0.0,0.0,0.0,0.0,0.0,0.0,0.0,0.0,0.0,0.0,0.0,0.0,0.0,0.0,0.0,0.0,0.0,0.0,0.0,0.0,0.0,0.0,0.0,0.0,0.0,0.0,0.0,0.0,0.0,2.0002,1.935,1.8757,1.8434,1.8443,1.8248,1.7634,1.6386,1.6365,0.0,0.0,0.0,0.0,0.0,0.0,0.0,0.0,0.0,0.0,0.0,0.0,0.0,0.0,0.0,0.0,0.0,0.0,0.0,0.0,0.0,0.0,0.0,0.0,0.0,0.0,0.0,0.0,0.0,0.0,0.0,0.0,0.0,0.0,0.0,0.0,0.0,0.0,0.0,0.0,0.0,0.0,0.0,0.0,0.0,0.0,0.0,0.0,0.0,0.0,0.0,0.0,0.0,0.0,0.0,0.0,0.0,0.0,0.0,0.0,0.0,0.0,0.0,0.0,0.0,0.0,0.0,0.0,0.0,0.0,0.0,0.0,0.0,0.0,0.0,0.0,0.0,0.0,0.0,0.0,0.0,0.0,0.0,0.0,0.0,0.0,0.0,0.0,0.0,0.0,0.0,0.0,0.0,0.0,0.0,0.0,0.0,0.0,0.0,0.0,0.0,0.0,0.0,2.0745,1.9102,1.8067,1.8682,1.8135,1.7576,1.7197,1.6648,1.6784,1.7849,0.0,0.0,0.0,0.0,0.0,0.0,0.0,0.0,0.0,0.0,0.0,0.0,0.0,0.0,0.0,0.0,0.0,0.0,0.0,0.0,0.0,0.0,0.0,0.0,0.0,0.0,0.0,0.0,0.0,0.0,0.0,0.0,0.0,0.0,0.0,0.0,0.0,0.0,0.0,0.0,0.0,0.0,0.0,0.0,0.0,0.0,0.0,0.0,0.0,0.0,0.0,0.0,0.0,0.0,0.0,0.0,0.0,0.0,0.0,0.0,0.0,0.0,0.0,0.0,0.0,0.0,0.0,0.0,0.0,0.0,0.0,0.0,0.0,0.0,0.0,0.0,0.0,0.0,0.0,0.0,0.0,0.0,0.0,0.0,0.0,0.0,0.0,0.0,0.0,0.0,0.0,0.0,0.0,0.0,0.0,0.0,0.0,0.0,0.0,0.0,0.0,0.0,2.0887,1.9134,1.8053,1.865,1.8542,1.8153,1.7455,1.7283,1.738,1.7799,0.0,0.0,0.0,0.0,0.0,0.0,0.0,0.0,0.0,0.0,0.0,0.0,0.0,0.0,0.0,0.0,0.0,0.0,0.0,0.0,0.0,0.0,0.0,0.0,0.0,0.0,0.0,0.0,0.0,0.0,0.0,0.0,0.0,0.0,0.0,0.0,0.0,0.0,0.0,0.0,0.0,0.0,0.0,0.0,0.0,0.0,0.0,0.0,0.0,0.0,0.0,0.0,0.0,0.0,0.0,0.0,0.0,0.0,0.0,0.0,0.0,0.0,0.0,0.0,0.0,0.0,0.0,0.0,0.0,0.0,0.0,0.0,0.0,0.0,0.0,0.0,0.0,0.0,0.0,0.0,0.0,0.0,0.0,0.0,0.0,0.0,0.0,0.0,0.0,0.0,0.0,0.0,0.0,0.0,0.0,0.0,0.0,0.0,0.0,0.0,0.0,0.0,2.0664,1.9392,1.8451,1.8508,1.9352,1.9401,1.8108,1.8028,1.8003,1.7846,0.0,0.0,0.0,0.0,0.0,0.0,0.0,0.0,0.0,0.0,0.0,0.0,0.0,0.0,0.0,0.0,0.0,0.0,0.0,0.0,0.0,0.0,0.0,0.0,0.0,0.0,0.0,0.0,0.0,0.0,0.0,0.0,0.0,0.0,0.0,0.0,0.0,0.0,0.0,0.0,0.0,0.0,0.0,0.0,0.0,0.0,0.0,0.0,0.0,0.0,0.0,0.0,0.0,0.0,0.0,0.0,0.0,0.0,0.0,0.0,3.1906,0.0,0.0,0.0,0.0,0.0,0.0,0.0,0.0,0.0,0.0,0.0,0.0,0.0,0.0,0.0,0.0,0.0,0.0,0.0,0.0,0.0,0.0,0.0,0.0,0.0,0.0,0.0,0.0,0.0,0.0,0.0,0.0,0.0,0.0,0.0,0.0,0.0,0.0,0.0,0.0,0.0,2.098,1.9187,1.8173,1.9157,1.9219,1.8875,1.8082,1.7828,1.7646,1.754,0.0,0.0,0.0,0.0,0.0,0.0,0.0,0.0,0.0,0.0,0.0,0.0,0.0,0.0,0.0,0.0,0.0,0.0,0.0,0.0,0.0,0.0,0.0,0.0,0.0,0.0,0.0,0.0,0.0,0.0,0.0,0.0,0.0,0.0,0.0,0.0,0.0,0.0,0.0,0.0,0.0,0.0,0.0,0.0,0.0,0.0,0.0,0.0,0.0,0.0,0.0,0.0,0.0,0.0,0.0,0.0,0.0,0.0,0.0,0.0,0.0,3.2151,0.0,0.0,0.0,0.0,0.0,0.0,0.0,0.0,0.0,0.0,0.0,0.0,0.0,0.0,0.0,0.0,0.0,0.0,0.0,0.0,0.0,0.0,0.0,0.0,0.0,0.0,0.0,0.0,0.0,0.0,0.0,0.0,0.0,0.0,0.0,0.0,0.0,0.0,0.0,0.0,2.0895,1.9653,1.8749,1.9038,1.968,1.9621,1.839,1.8197,1.7928,1.7489,1.6802,0.0,0.0,0.0,0.0,0.0,0.0,0.0,0.0,0.0,0.0,0.0,0.0,0.0,0.0,0.0,0.0,0.0,0.0,0.0,0.0,0.0,0.0,0.0,0.0,0.0,0.0,0.0,0.0,0.0,0.0,0.0,0.0,0.0,0.0,0.0,0.0,0.0,0.0,0.0,0.0,0.0,0.0,0.0,0.0,0.0,0.0,0.0,0.0,0.0,0.0,0.0,0.0,0.0,3.7868,3.8114,3.8865,3.8047,3.7067,3.5963,3.5448,3.372,3.1382,0.0,0.0,0.0,0.0,0.0,0.0,0.0,0.0,0.0,0.0,0.0,0.0,0.0,0.0,0.0,0.0,0.0,0.0,0.0,0.0,0.0,0.0,0.0,0.0,0.0,2.1591,2.1716,0.0,0.0,0.0,0.0,0.0,0.0,0.0,0.0,0.0,0.0,0.0,0.0,2.0534,2.0082,1.9468,1.8855,2.0193,2.0495,1.8917,1.8791,1.8424,1.7552,1.6802,1.6163,0.0,0.0,0.0,0.0,0.0,0.0,0.0,0.0,0.0,0.0,0.0,0.0,0.0,0.0,0.0,0.0,0.0,0.0,0.0,0.0,0.0,0.0,0.0,0.0,0.0,0.0,0.0,0.0,0.0,0.0,0.0,0.0,3.2557,3.0922,0.0,0.0,0.0,0.0,0.0,0.0,0.0,0.0,0.0,0.0,0.0,0.0,0.0,0.0,3.7201,3.7291,3.7685,3.8456,3.8381,3.8452,3.8561,3.8435,3.7951,3.713,3.6381,0.0,3.2456,3.1925,0.0,0.0,0.0,0.0,0.0,0.0,0.0,0.0,0.0,0.0,0.0,0.0,0.0,0.0,0.0,0.0,0.0,0.0,0.0,0.0,0.0,0.0,2.0857,2.0783,2.0374,2.006,0.0,2.0937,2.1345,2.0679,2.0283,0.0,0.0,0.0,0.0,0.0,0.0,0.0,1.9854,1.9587,1.9403,1.9547,2.0092,2.0167,1.961,1.9358,1.8724,1.7581,1.6755,1.6085,1.5555,1.5435,0.0,0.0,0.0,0.0,0.0,0.0,0.0,0.0,0.0,0.0,0.0,0.0,0.0,0.0,0.0,0.0,0.0,0.0,0.0,0.0,0.0,0.0,0.0,0.0,0.0,0.0,0.0,0.0,0.0,3.3406,3.3499,3.1422,3.3629,3.4611,0.0,0.0,0.0,0.0,0.0,0.0,0.0,0.0,0.0,3.7721,3.7757,3.806,3.8617,3.91,3.9704,4.0468,4.0948,4.1434,4.1825,4.0935,4.021,3.9635,3.8199,3.6746,3.5273,3.3846,3.2488,3.1273,0.0,0.0,0.0,0.0,2.8557,2.8554,2.828,2.7918,0.0,0.0,0.0,0.0,0.0,0.0,0.0,0.0,0.0,0.0,0.0,0.0,0.0,2.0593,1.9819,1.9239,1.9417,1.9824,1.9893,0.0,1.907,1.9323,2.0203,0.0,0.0,0.0,0.0,0.0,1.9536,1.9562,1.947,1.9203,1.9854,2.0094,1.9528,1.9107,1.8568,1.7881,1.6895,1.6025,1.5305,1.5842,1.6032,0.0,0.0,0.0,0.0,0.0,0.0,0.0,0.0,0.0,0.0,0.0,0.0,0.0,0.0,0.0,0.0,0.0,0.0,0.0,0.0,0.0,0.0,0.0,0.0,0.0,0.0,0.0,0.0,3.3342,3.3963,3.1558,3.3842,3.4852,0.0,0.0,0.0,0.0,0.0,0.0,3.6353,3.727,3.8258,3.9226,3.9221,3.9658,4.0503,4.1127,4.1754,4.2404,4.3082,4.3557,4.3746,4.2552,4.1635,4.0915,3.9279,3.8283,3.7603,3.579,3.3904,3.2295,3.2293,3.1499,3.0304,2.9789,2.9669,2.9746,2.9722,2.9334,2.8963,2.9576,0.0,2.6615,2.6719,0.0,0.0,0.0,0.0,2.3713,2.2742,2.1783,2.0953,2.0526,1.9781,1.9257,1.945,1.9482,1.9248,0.0,1.8446,1.8685,1.9294,0.0,0.0,0.0,0.0,1.9139,1.9265,1.953,1.9516,1.9016,1.9582,1.9778,1.9277,1.8822,1.836,1.7935,1.7062,1.619,1.5294,1.6019,1.6009,1.5143,0.0,0.0,0.0,0.0,0.0,0.0,0.0,0.0,0.0,0.0,0.0,0.0,0.0,0.0,0.0,0.0,0.0,0.0,0.0,0.0,0.0,0.0,0.0,0.0,0.0,0.0,0.0,0.0,0.0,3.1192,3.4691,0.0,0.0,0.0,0.0,3.6185,3.7611,3.8447,3.8353,3.9775,4.0795,4.1226,4.1243,4.1812,4.3022,4.3074,4.3253,4.3539,4.3574,4.3003,4.1933,4.1866,4.1023,3.9647,3.8841,3.8506,3.8355,3.6764,3.5862,3.5406,3.5052,3.4029,3.2684,3.2408,3.1462,3.0251,2.9968,2.9881,2.9874,2.9973,2.9592,2.8735,2.6826,2.6244,0.0,0.0,2.3846,2.272,2.165,2.0908,2.0433,2.04,2.0294,2.0243,2.0343,2.0539,2.0353,0.0,1.8878,1.8813,1.8904,0.0,1.8196,1.8793,1.8602,1.85,1.886,1.9213,1.9398,1.9369,1.9236,1.9161,1.9132,1.8864,1.8328,1.7479,1.7194,1.6644,1.5721,1.5298,1.5049,1.4917,1.465,0.0,0.0,0.0,0.0,0.0,0.0,0.0,0.0,0.0,0.0,0.0,0.0,0.0,0.0,0.0,0.0,0.0,0.0,0.0,0.0,0.0,0.0,0.0,0.0,0.0,0.0,0.0,0.0,3.5129,3.7753,0.0,0.0,3.8002,3.8424,3.8424,3.942,4.0134,4.0355,4.1376,4.202,4.2102,4.2137,4.2415,4.3034,4.263,4.2895,4.3855,4.344,4.3211,4.3193,4.2239,4.1502,4.095,3.9445,3.8983,3.9124,3.8068,3.6967,3.5958,3.5136,3.4007,3.2674,3.1958,3.1591,3.147,3.0998,3.1063,3.1133,2.9535,2.8071,2.6731,2.5689,2.4826,2.4091,2.3691,2.3279,2.2869,2.2474,2.1456,2.0614,2.094,2.015,1.9409,1.9583,1.9422,1.9227,1.9492,1.9181,1.8958,1.8938,1.8465,1.8362,1.9245,1.8932,1.8809,1.9293,1.9614,1.9705,1.9505,1.9594,1.9445,1.8912,1.8486,1.8129,1.7804,1.7383,1.6864,1.6166,1.5934,1.5541,1.4893,1.4593,1.4337,0.0,0.0,0.0,0.0,0.0,0.0,0.0,0.0,0.0,0.0,0.0,0.0,0.0,0.0,0.0,0.0,0.0,0.0,0.0,0.0,0.0,0.0,0.0,0.0,0.0,0.0,3.7527,3.8284,4.0299,4.1155,3.9976,4.0186,4.0401,4.0401,4.1139,4.1855,4.2479,4.2999,4.3201,4.2997,4.2777,4.277,4.2998,4.2044,4.192,4.2708,4.2021,4.1747,4.1765,4.0802,4.0214,3.9936,3.8683,3.8262,3.8453,3.7969,3.7118,3.6231,3.5764,3.4899,3.3825,3.2912,3.2733,3.2841,3.216,3.1998,3.1612,2.9505,2.7725,2.6187,2.545,2.4354,2.3378,2.3378,2.3082,2.276,2.276,2.1707,2.068,2.0996,2.0164,1.9412,1.944,1.9246,1.9179,1.9599,1.9285,1.8964,1.9004,1.882,1.8846,1.9374,1.9102,1.8999,1.943,1.9638,1.9574,1.915,1.9294,1.9139,1.8262,1.7935,1.7674,1.7393,1.72,1.6846,1.6214,1.6182,1.5796,1.501,1.4124,1.3794,1.3993,0.0,0.0,0.0,0.0,0.0,0.0,0.0,0.0,0.0,0.0,0.0,0.0,0.0,0.0,0.0,0.0,0.0,0.0,0.0,0.0,0.0,0.0,0.0,3.4606,3.7306,3.9485,4.0342,4.2146,4.2569,4.0682,4.1475,4.2098,4.2081,4.2837,4.3666,4.4623,4.4708,4.4468,4.3939,4.331,4.2925,4.2892,4.1493,4.058,4.0156,3.9483,3.856,3.754,3.7525,3.714,3.6415,3.6399,3.6384,3.6384,3.6384,3.6384,3.6446,3.7087,3.69,3.6137,3.5473,3.4833,3.4173,3.3525,3.2482,3.1275,2.99,2.8712,2.7491,2.6167,2.4989,2.4073,2.406,2.3205,2.2276,2.2276,2.1475,2.0635,2.049,2.0437,2.0381,2.0007,2.0232,2.0306,1.9599,1.9149,1.8904,1.8959,1.9413,1.9552,1.897,1.8896,0.0,1.9253,1.9243,1.897,1.8363,1.8382,1.81,1.7255,1.7325,1.7067,1.6237,1.6622,1.6569,1.5812,1.5881,1.5677,1.5136,1.3121,1.2223,1.2577,0.0,0.0,0.0,0.0,0.0,0.0,0.0,0.0,0.0,0.0,0.0,0.0,0.0,0.0,0.0,0.0,0.0,0.0,0.0,0.0,0.0,0.0,3.7786,3.8217,3.9939,4.1781,4.3288,4.491,4.5529,4.4637,4.4845,4.4805,4.4305,4.4474,4.4468,4.4202,4.4202,4.3722,4.2816,4.2064,4.133,4.0466,3.9075,3.8592,3.895,3.8292,3.8039,3.8203,3.7725,3.7402,3.7201,3.6599,3.6384,3.6384,3.6384,3.6384,3.6384,3.6087,3.5535,3.4865,3.4237,3.3598,3.2948,3.2736,3.2109,3.1148,2.9785,2.8185,2.664,2.5884,2.4494,2.3138,2.2616,2.2262,2.1848,2.1206,2.0523,1.9924,1.9887,1.9533,1.91,1.882,1.8561,1.8544,1.9068,1.8829,1.8585,1.8644,1.8736,1.8784,1.8621,1.8611,0.0,1.9263,1.9339,1.9171,1.8792,1.8725,1.8273,1.7069,1.7008,1.6798,1.6237,1.6122,1.6034,1.58,1.5245,1.4536,1.3691,1.3423,1.3046,0.0,0.0,0.0,0.0,0.0,0.0,0.0,0.0,0.0,0.0,0.0,0.0,0.0,0.0,0.0,0.0,0.0,0.0,0.0,0.0,0.0,0.0,3.8906,4.1133,4.2615,4.2804,4.3668,4.5942,4.6718,4.7053,4.7144,4.7116,4.6681,4.5611,4.5544,4.5167,4.4238,4.3618,4.2818,4.197,4.0991,3.9991,3.9061,3.7705,3.704,3.7182,3.6491,3.6526,3.7195,3.6481,3.6345,0.0,3.5879,3.5578,3.5578,3.5578,3.5355,0.0,0.0,0.0,0.0,0.0,3.3456,3.2817,3.2106,3.1449,3.0567,2.8838,2.736,2.6175,2.5563,2.4153,2.2599,2.221,2.1729,2.1239,2.0719,2.0147,1.9702,1.9641,1.9125,1.8657,1.8362,1.8071,1.8029,1.8479,1.8384,0.0,1.8503,1.8892,1.9076,1.8881,1.8769,1.8929,1.9459,1.9277,1.9048,1.8907,1.878,1.8302,1.7219,1.7122,0.0,0.0,0.0,1.5967,1.5605,1.4868,0.0,0.0,0.0,1.2846,1.2184,0.0,0.0,0.0,1.1844,1.1872,0.0,0.0,0.0,0.0,0.0,0.0,0.0,0.0,0.0,0.0,0.0,0.0,0.0,0.0,0.0,0.0,4.244,4.4247,4.6812,4.5602,4.548,4.8139,4.7938,4.7838,4.8442,4.8444,4.7858,4.6274,4.6257,4.5645,4.422,0.0,0.0,0.0,0.0,3.8907,3.8203,3.685,3.5807,3.5124,3.4572,3.4636,3.5241,3.4675,3.4719,3.5227,3.4661,3.4346,3.4264,3.4264,3.3825,3.3213,3.4514,3.5044,3.4927,3.437,3.3725,3.301,3.1545,0.0,0.0,2.7561,2.6404,2.576,2.5142,2.3676,2.2278,2.2201,2.1376,2.0475,2.041,1.9907,1.9465,1.9456,1.8973,1.8537,1.8315,1.8269,1.8202,1.8008,1.7979,1.8134,1.8504,1.9276,1.9717,1.9286,1.8945,1.8975,1.9563,1.8944,1.8487,1.8646,0.0,0.0,1.7213,1.7201,1.6882,1.6041,1.6144,1.5881,1.5054,1.4612,1.4092,1.3627,1.2755,1.2035,1.159,1.1278,1.1128,1.1136,1.1428,1.1435,0.0,0.0,0.0,0.0,0.0,0.0,0.0,0.0,0.0,0.0,0.0,0.0,0.0,0.0,0.0,4.1725,4.4525,4.6684,4.6908,4.7574,4.8168,4.8595,4.9059,4.9184,4.8931,4.8877,4.8046,4.5994,4.6401,4.537,4.2252,4.2391,0.0,4.0638,3.9306,3.8003,3.6733,3.5309,3.427,3.363,0.0,0.0,3.4588,3.4472,3.4486,3.4588,3.4472,3.4045,3.3437,3.3437,3.3017,3.2362,3.2635,3.2777,3.2706,3.2577,3.2064,3.139,3.0486,2.9686,2.8745,2.7156,2.5772,2.4638,2.407,2.2868,0.0,2.1086,2.0546,1.9844,1.918,1.8652,1.8352,1.8307,1.82,1.8093,1.8056,1.792,1.7774,1.7784,1.7925,1.8123,1.8209,1.8202,1.8271,1.8498,1.782,1.7443,1.7924,1.7282,1.6916,1.7227,1.6945,1.6456,1.5758,1.5727,1.5421,1.4704,1.4553,1.4175,1.3578,1.3424,1.3061,1.2456,1.223,1.1988,1.1615,1.1367,1.1279,1.1279,1.1469,1.117,0.0,0.0,0.0,0.0,0.0,0.0,0.0,0.0,0.0,0.0,0.0,3.7886,0.0,0.0,4.4405,4.5699,4.7239,4.847,4.9004,4.9337,4.9491,4.9404,4.9426,4.943,4.9532,4.924,4.8285,4.6471,4.6035,4.4676,4.2157,4.1355,4.0631,3.9874,3.8384,3.704,3.5784,3.4626,3.3574,3.2648,3.2648,3.3195,3.4183,3.3774,3.3802,3.4169,3.3774,3.331,3.2577,3.1715,3.1201,3.0768,2.9834,3.0454,3.1901,3.1676,3.1222,3.0619,2.9319,2.8239,2.7335,2.5819,2.4625,2.3647,2.3383,2.2391,2.1296,2.0937,2.0267,1.9505,1.9027,1.8809,1.8701,1.8773,1.8666,1.8498,1.8639,1.827,1.7894,1.7894,1.7834,1.7839,1.8048,1.7726,1.7653,1.8171,1.7753,1.7465,1.778,1.7213,1.6991,1.7513,1.7062,1.6563,1.6066,1.5796,1.5418,1.4907,1.4994,1.4706,1.3983,1.3795,1.3336,1.2539,1.2251,1.1939,1.1674,1.1445,1.1108,1.0661,1.0724,1.0534,0.0,0.0,0.0,0.0,0.0,0.0,0.0,0.0,3.6246,3.6936,3.9137,4.1475,4.3214,4.5436,4.7664,4.9501,4.9554,4.9791,5.0827,5.0471,5.0098,5.0098,4.971,4.9613,5.0066,4.9451,4.8295,4.6641,4.5505,4.4031,4.2034,4.0426,3.9382,3.9118,3.7562,3.6143,3.4948,3.3984,3.2934,3.1856,3.1856,3.2442,3.3539,3.307,3.3165,3.3688,3.2903,3.2244,3.1636,2.9921,2.9172,2.8905,2.736,2.8366,3.0615,3.0129,2.977,2.9279,2.7519,2.6369,2.554,2.4296,2.339,2.2734,2.2734,2.1945,2.0984,2.0984,2.0162,1.9341,1.9341,1.9209,1.9248,1.9448,1.9136,1.8844,1.9023,1.8341,1.7697,1.7696,1.7413,1.7321,1.7568,1.7251,1.7169,1.7794,1.7629,1.7435,1.7565,1.6957,1.6779,1.7566,1.7032,1.6514,1.6375,1.5988,1.5619,1.538,1.5569,1.5357,1.4624,1.4222,1.3701,1.2931,1.2131,1.1703,1.1579,1.1072,1.0401,0.9761,0.957,0.9448,3.43,3.3708,3.386,3.4881,3.4471,3.5132,0.0,0.0,4.0367,4.2072,4.4673,4.6569,4.6432,4.8177,4.9767,5.001,5.0594,5.0762,5.0293,5.0147,5.0098,5.0098,5.06,5.0714,5.0163,4.9451,4.7854,4.5174,4.5413,4.3919,3.9904,4.0049,3.9713,3.8352,3.6874,3.5467,3.4169,3.2715,3.1599,3.1044,3.1044,3.1482,3.2291,3.2678,3.2935,3.2941,3.1795,3.1019,3.0423,2.8516,2.7447,2.7046,2.6719,2.6614,2.6687,2.6439,2.5982,2.5281,2.4672,2.3974,2.3383,2.3191,2.2574,2.1907,2.1907,2.1354,2.0643,2.042,1.9956,1.9553,1.9336,1.8995,1.8824,1.9231,1.8592,1.7941,1.8139,1.7208,1.635,1.6117,1.6134,1.6239,1.5964,1.6057,1.637,1.7084,1.6396,1.5783,1.5471,1.4561,1.4283,1.518,1.4713,1.4541,1.5036,1.4924,1.4811,1.4811,1.4501,1.4115,1.3784,1.3384,1.299,1.2586,1.1462,1.0903,1.091,0.9633,0.893,0.8801,0.8096,0.7842,3.553,3.5325,0.0,0.0,3.7496,3.9016,4.2421,4.3273,4.3883,4.5993,4.8139,4.9457,4.8907,5.0519,5.1701,0.0,5.0989,5.1216,5.1313,5.026,4.9321,4.8952,4.8397,4.8269,4.8706,4.7347,4.6139,4.5298,4.3982,4.2465,4.0621,3.9654,3.8585,3.7491,3.6088,3.4617,3.3261,3.1759,3.0751,3.0279,3.0279,3.0766,3.1695,3.1928,3.1883,3.1599,3.0787,2.9772,2.8598,2.7296,2.6341,2.5714,2.5073,2.4659,2.4639,2.5026,2.4869,2.4436,2.3742,2.2971,2.2285,2.2285,2.1876,2.1204,2.1023,2.0732,2.0502,2.0175,1.9896,1.9763,1.9686,1.9167,1.8743,1.8984,1.816,1.7409,1.7546,1.6702,1.5897,1.5827,1.5521,1.528,1.5219,1.5226,1.5334,1.5387,1.5294,1.5043,1.4556,1.4332,1.4332,1.4423,1.3917,1.3598,1.3742,1.3598,1.3461,1.3461,1.3438,1.3256,1.2834,1.2692,1.2423,1.2074,1.1147,1.0653,1.059,0.9416,0.8692,0.8283,0.7827,0.7504,3.601,0.0,0.0,3.9074,4.1076,4.3076,4.4743,4.6075,4.7384,4.9006,5.0302,5.1086,5.073,5.1475,0.0,5.1297,5.1021,5.107,5.1556,4.9775,4.8135,4.7289,4.5365,4.451,4.5637,4.4747,4.4048,4.4159,4.2304,4.098,4.0576,3.8833,3.7567,3.6936,3.5459,3.4086,3.2725,3.1478,3.0482,2.9792,2.9942,3.0432,3.1185,3.1228,3.0967,3.0477,2.9699,2.8574,2.7156,2.6087,2.5238,2.4553,2.3734,2.3416,2.3491,2.3927,2.3951,2.3568,2.269,2.2001,2.1578,2.1578,2.1273,2.0962,2.0636,2.0595,2.0538,2.025,1.9878,1.9574,1.9684,1.8966,1.8317,1.8524,1.7633,1.6753,1.6923,1.6177,1.5492,1.5403,1.4873,1.446,1.446,1.4288,1.4043,1.3548,1.3839,1.4087,1.3867,1.4149,1.4151,1.3589,1.336,1.312,1.2913,1.2749,1.2664,1.2664,1.2739,1.2565,1.2345,1.205,1.1842,1.1558,1.0548,1.0058,0.9919,0.8932,0.8201,0.7721,0.7581,0.7316,0.0,0.0,3.9598,4.2829,4.4913,4.6651,4.813,4.9795,5.1005,5.1145,5.1135,5.1378,5.2009,5.0503,4.9596,5.0957,5.06,5.0147,5.0163,4.8317,4.6475,4.5158,4.1856,3.9971,0.0,4.1866,4.2119,4.0693,4.0514,3.9773,3.8364,3.7429,3.6936,3.6936,3.5251,3.3891,3.2725,3.1847,3.0834,2.9804,3.0331,3.0608,3.0591,3.0784,3.0461,2.9716,2.8338,2.7327,2.6477,2.4934,2.3988,2.3503,2.3232,2.3135,2.3086,2.2732,2.232,2.184,2.0948,2.0771,2.0899,2.0899,2.1034,2.1201,2.1191,2.0898,2.0652,2.0699,1.985,1.8898,1.911,1.8156,1.7365,1.7788,1.6867,1.5958,1.6148,1.5331,1.453,1.4263,1.4059,1.3771,1.3496,1.306,1.255,1.2055,1.2062,1.2385,1.3309,1.3444,1.3059,1.2171,1.2768,1.3084,1.2952,1.2924,1.2924,1.2924,1.2565,1.2345,1.2271,1.1545,1.1111,1.1111,0.959,0.8739,0.8739,0.7601,0.7019,0.7023,0.7019,0.6877,0.0,0.0,4.2614,4.5504,4.744,4.9124,5.1255,5.2523,5.3045,5.2058,5.1118,4.9661,4.7038,4.6747,4.6892,4.6941,4.8317,4.9548,5.0034,4.9062,4.7068,4.3803,4.2357,0.0,0.0,0.0,0.0,4.0132,3.9427,3.9071,3.9421,3.7855,3.6805,3.6727,3.4846,3.3368,3.2421,3.1726,3.121,3.0859,3.0741,3.0567,3.0241,3.0214,2.9512,2.8544,2.7721,2.6624,2.528,2.3845,2.2881,2.2236,2.1507,2.1141,2.1096,2.0712,2.0383,2.0187,2.0955,2.1207,2.125,2.1177,2.1202,2.1135,2.0256,2.0,1.9815,1.8896,1.8255,1.7768,1.7802,1.6961,1.6109,1.621,1.5535,1.4734,1.4825,1.4468,1.4085,1.381,1.3391,1.3085,1.282,1.2422,1.2196,1.2186,1.1838,1.1723,1.2407,1.2159,1.1879,1.1786,1.1792,1.1884,1.1799,1.1557,1.1224,1.0983,1.0523,1.0201,0.9895,0.9674,0.9528,0.9528,0.8708,0.8298,0.8298,0.7512,0.7257,0.7484,0.7211,0.713,4.1972,4.3939,4.5922,4.9161,5.0879,5.216,5.3723,5.4244,5.3758,5.1523,4.9337,4.6828,4.3541,4.286,4.2958,4.3541,4.5176,4.6888,4.8312,4.7662,4.5945,4.2928,4.2038,0.0,0.0,0.0,0.0,3.9305,3.9088,3.9146,3.9755,3.8065,3.6961,3.6752,3.4789,3.342,3.2548,3.2,3.1459,3.0915,3.0663,3.0132,2.9319,2.9159,2.8473,2.7253,2.6806,2.5911,2.4569,2.3107,2.2233,2.1606,2.0602,2.0232,2.0116,1.9796,1.9614,1.9529,2.0242,2.0425,2.0373,2.0296,2.0297,2.0298,1.9431,1.9079,1.8896,1.819,1.74,1.6833,1.7063,1.6134,1.5153,1.5061,1.4606,1.4229,1.4129,1.4014,1.3956,1.3673,1.3361,1.2968,1.2688,1.2126,1.1756,1.1646,1.1176,1.1109,1.1944,1.1714,1.1422,1.1149,1.1007,1.08,1.0546,1.0248,1.0005,0.9761,0.9394,0.916,0.8921,0.8769,0.8659,0.8585,0.8203,0.794,0.7872,0.7439,0.7382,0.768,0.7307,0.7239,4.5115,4.7154,4.9459,5.3486,5.4859,5.5312,5.5312,5.4697,5.311,4.9483,4.5921,4.2974,0.0,0.0,3.8246,4.1035,4.1649,4.2719,4.5293,4.4535,4.335,0.0,0.0,0.0,0.0,0.0,0.0,3.8185,0.0,3.9706,3.9242,3.7978,3.7178,3.6936,3.5213,3.3909,3.3122,3.257,3.1583,3.0086,2.9986,2.9229,2.7829,2.7829,2.7189,2.6071,2.5645,2.5012,2.42,2.2823,2.1962,2.1427,2.0413,2.0051,2.0059,1.9795,1.9712,1.9604,1.88,1.8529,1.8556,1.8556,1.8608,1.8796,1.8719,1.8308,1.7902,1.8456,1.7347,1.6016,1.6677,1.5757,1.4617,1.4334,1.4332,1.4214,1.3928,1.4099,1.4089,1.3874,1.3618,1.3256,1.2986,1.1995,1.0998,1.0338,1.0043,1.046,1.1833,1.1949,1.151,1.0378,1.0248,0.9908,0.9201,0.9178,0.9169,0.9169,0.9159,0.9155,0.9155,0.8755,0.8508,0.84,0.8007,0.7687,0.7512,0.7454,0.7381,0.7392,0.7304,0.7213,4.8968,5.1036,5.284,5.4612,5.4414,5.3855,5.3855,5.2058,4.937,4.5807,4.2229,3.8991,0.0,0.0,0.0,4.0245,4.2715,0.0,4.6467,4.6689,0.0,0.0,0.0,4.2614,4.0354,3.9561,0.0,0.0,3.763,3.7826,3.8991,3.697,3.5976,3.6391,3.4889,3.3937,3.3789,3.2491,3.1388,3.0345,2.9034,2.8086,2.7369,2.6829,2.6284,2.58,2.5359,2.4533,2.3243,2.1799,2.0574,1.9422,1.8419,1.7971,1.78,1.78,1.752,1.7117,1.6857,1.7758,1.891,1.8744,1.8716,1.8651,1.7866,1.7596,1.7332,1.6762,1.617,1.5604,1.5551,1.4998,1.4359,1.4236,1.4096,1.4061,1.4139,1.4087,1.3836,1.3357,1.2443,1.1559,1.1268,1.0798,1.0244,0.9549,0.9332,0.9524,1.046,1.0557,1.0251,0.9352,0.9256,0.9147,0.9013,0.8785,0.8787,0.9052,0.8835,0.8591,0.8341,0.8176,0.8074,0.7869,0.7788,0.7605,0.7319,0.7364,0.7364,0.7563,0.7355,0.7268,5.2822,5.458,5.5878,5.6536,5.5444,5.3828,5.2669,4.9904,4.6423,4.2229,3.9039,0.0,0.0,0.0,0.0,0.0,0.0,0.0,4.4243,4.5072,4.4986,0.0,4.3733,0.0,4.1153,4.0082,3.9311,0.0,3.7826,3.7572,3.8347,3.6828,3.6133,3.6348,3.5195,3.412,3.3291,3.2289,3.0915,2.93,2.8124,2.7189,2.6552,2.6091,2.582,2.5723,0.0,2.4412,2.2887,2.1786,2.032,1.8535,1.7668,1.7087,1.6798,1.6852,1.6626,1.6238,1.6273,1.6774,1.7475,1.7397,1.7406,1.737,1.6684,1.6535,1.6401,1.5903,1.5491,1.5119,1.4938,1.457,1.4205,1.3733,1.3642,1.3556,1.3371,1.3199,1.2986,1.2404,1.1793,1.11,1.0396,0.9784,0.9076,0.8351,0.766,0.7295,0.7735,0.8528,0.8794,0.8181,0.8093,0.804,0.7938,0.7768,0.7746,0.8004,0.7585,0.7232,0.7059,0.6823,0.659,0.636,0.6783,0.6923,0.6688,0.7097,0.7091,0.683,0.6637,0.6536,5.6309,5.7638,5.8254,5.8362,5.6513,5.3994,5.1252,4.7605,4.3444,3.8852,0.0,3.4081,3.2144,0.0,3.2703,3.474,0.0,3.7258,4.0916,4.1816,4.2523,4.3707,4.2972,4.2137,4.1521,3.9961,3.9186,3.9429,3.8488,3.7795,3.7619,3.7011,3.6552,3.615,3.5367,3.4062,3.2259,3.1729,3.027,2.7914,2.7393,2.6613,2.5742,2.5742,2.5742,2.5742,0.0,0.0,2.2808,2.217,2.0553,1.8224,1.7676,1.7138,1.6647,1.6732,1.6546,1.6225,1.6283,1.5912,1.5504,1.5504,1.5686,1.5816,1.5585,1.557,1.5503,1.5475,1.5178,1.4745,1.4659,1.4314,1.3923,1.3241,1.3059,1.2966,1.2221,1.2101,1.185,1.1332,1.1185,1.0888,0.9921,0.8744,0.764,0.6752,0.5626,0.4835,0.4732,0.6319,0.72,0.677,0.6681,0.6557,0.6233,0.6241,0.6296,0.6426,0.595,0.5713,0.5726,0.527,0.49,0.4706,0.5578,0.5863,0.565,0.6449,0.643,0.5742,0.5689,0.5468,5.8532,5.9185,5.8841,5.7783,5.4608,5.1043,4.8248,4.3364,0.0,0.0,0.0,3.1668,3.0873,3.2173,0.0,3.6045,0.0,0.0,0.0,0.0,4.1349,0.0,0.0,0.0,0.0,0.0,0.0,0.0,0.0,0.0,3.772,3.6183,3.4787,3.3773,3.3598,3.2761,3.1064,3.0177,2.9132,2.7924,2.6971,2.6271,2.5742,2.5742,2.5742,2.5742,2.5742,0.0,2.2125,2.1795,2.0173,1.7949,1.7605,1.7295,1.697,1.7025,1.6749,1.6206,1.6051,1.5947,1.5817,1.5817,1.5752,1.5585,1.5744,1.5706,1.5487,1.5547,1.5264,1.4915,1.4641,1.4039,1.3488,1.326,1.2758,1.2332,1.2226,1.1467,1.0716,1.0025,0.9682,0.9112,0.7912,0.7372,0.6658,0.4924,0.4362,0.3919,0.332,0.4552,0.5262,0.4559,0.4469,0.4387,0.4405,0.4408,0.4626,0.5269,0.5165,0.5194,0.5188,0.5174,0.493,0.4736,0.4915,0.4867,0.4592,0.4698,0.4977,0.5341,0.5272,0.5001,5.9872,6.0497,6.0049,5.8699,5.4602,4.9875,4.5832,0.0,0.0,0.0,0.0,3.0709,3.0283,0.0,0.0,0.0,0.0,0.0,0.0,0.0,0.0,0.0,0.0,0.0,0.0,0.0,0.0,0.0,0.0,0.0,3.6135,3.4478,3.3162,3.2398,3.2387,3.1658,3.0321,2.944,2.8512,2.7733,2.6556,2.6055,2.6074,2.584,2.5635,2.544,2.4913,0.0,2.172,2.1204,1.977,1.7893,1.7791,1.7483,1.715,1.715,1.676,1.6308,1.611,1.5905,1.5687,1.5541,1.5594,1.5675,1.5524,1.5491,1.5423,1.5114,1.4934,1.4713,1.4067,1.3665,1.3179,1.2526,1.1819,1.1156,1.0957,1.0501,0.9951,0.9303,0.8654,0.8001,0.7347,0.6126,0.4966,0.4346,0.3387,0.2577,0.219,0.2704,0.322,0.3403,0.3403,0.3419,0.3456,0.3459,0.358,0.4025,0.3747,0.3574,0.361,0.3422,0.3123,0.2999,0.356,0.3824,0.3791,0.4526,0.4807,0.4723,0.4487,0.3805,5.9932,6.0673,6.0412,5.9135,5.4325,4.869,4.3937,3.8886,0.0,0.0,2.9867,2.9965,2.9478,0.0,0.0,0.0,0.0,0.0,0.0,0.0,0.0,0.0,0.0,0.0,0.0,0.0,0.0,0.0,0.0,0.0,3.4193,3.295,3.201,3.1327,3.1116,3.0546,2.9408,2.8706,2.8054,2.7406,2.6294,2.5896,2.6032,2.5693,2.5333,2.4824,2.408,0.0,0.0,2.0716,1.9561,1.8215,1.8109,1.7853,1.7317,1.7361,1.6988,1.6477,1.6253,1.5897,1.5549,1.5232,1.5358,1.5603,1.5181,1.5124,1.5192,1.4696,1.446,1.411,1.3521,1.3098,1.2659,1.1568,1.0664,1.0004,0.9704,0.929,0.8912,0.861,0.7821,0.705,0.6845,0.516,0.3828,0.37,0.2372,0.13,0.1288,0.1269,0.1524,0.233,0.2509,0.2617,0.266,0.2664,0.2687,0.2743,0.2375,0.21,0.2108,0.1734,0.1543,0.1536,0.2302,0.2776,0.2955,0.3903,0.4095,0.3626,0.3255,0.2373,5.79,5.869,5.8429,5.7582,5.221,4.6248,4.2939,0.0,0.0,2.9709,2.9109,2.8689,2.7792,2.7755,0.0,0.0,0.0,0.0,0.0,0.0,0.0,0.0,0.0,0.0,0.0,0.0,0.0,0.0,0.0,0.0,0.0,3.2748,3.187,3.0232,2.9611,2.8774,2.7638,2.7561,2.716,2.6332,2.6218,2.5781,2.4988,2.4951,2.4421,2.3511,2.3657,0.0,0.0,2.0535,1.9808,1.8837,1.8514,1.8273,1.787,1.7616,1.7289,1.6877,1.6162,1.5884,1.5774,1.5225,1.5139,1.5181,1.5076,1.478,1.4439,1.4545,1.3907,1.3158,1.3259,1.255,1.1568,1.0582,1.0023,0.943,0.9039,0.8069,0.7428,0.7675,0.6851,0.5952,0.5644,0.5035,0.4079,0.2114,0.1239,0.0845,0.0813,0.0808,0.0807,0.0896,0.1256,0.1526,0.1529,0.1529,0.1543,0.1575,0.151,0.1538,0.1664,0.1594,0.1596,0.1568,0.1665,0.1748,0.1717,0.1334,0.1334,0.1622,0.1651,0.1066,5.518,5.6426,5.6359,5.6057,5.0838,4.4831,4.1037,0.0,0.0,2.7652,2.7255,2.7099,2.612,2.6514,2.7012,0.0,0.0,0.0,0.0,0.0,0.0,0.0,0.0,0.0,0.0,0.0,0.0,0.0,0.0,0.0,0.0,3.0589,2.9759,2.8535,2.8252,2.7843,2.7431,2.7185,2.6892,2.6551,2.604,2.5623,2.5301,2.4325,2.3727,2.3216,2.1804,0.0,0.0,1.9683,1.9118,1.8864,1.8579,1.8288,1.7917,1.7629,1.7205,1.6786,1.608,1.5747,1.5587,1.4838,1.463,1.4775,1.4775,1.4356,1.3768,1.3788,1.3148,1.2491,1.2276,1.1568,1.0692,1.0147,0.9764,0.9323,0.9082,0.856,0.761,0.6168,0.6353,0.6263,0.4841,0.3359,0.2247,0.1712,0.1407,0.0995,0.0387,0.0567,0.0741,0.0732,0.0904,0.0987,0.0987,0.0987,0.099,0.0999,0.1218,0.134,0.1061,0.1081,0.1094,0.1099,0.1087,0.1279,0.1581,0.1383,0.0988,0.0593,0.0597,0.0395,5.05,5.2241,5.2554,5.2699,4.8191,4.2702,0.0,0.0,0.0,2.6265,2.5658,2.5463,2.4627,2.4989,2.5308,2.5101,0.0,2.4438,0.0,0.0,0.0,0.0,0.0,0.0,0.0,0.0,0.0,0.0,0.0,0.0,0.0,2.8953,2.8305,2.771,2.7347,2.7116,2.7116,2.6826,2.6727,2.6595,2.5778,2.5265,2.4822,2.3589,2.273,2.2039,0.0,0.0,0.0,1.8969,1.859,1.8628,1.8505,1.8186,1.7856,1.7578,1.7117,1.6685,1.6072,1.5577,1.5204,1.4514,1.4217,1.4098,1.4239,1.3795,1.334,1.3141,1.244,1.1711,1.1206,1.0582,0.9926,0.9592,0.9379,0.9208,0.8852,0.8117,0.6851,0.4898,0.5063,0.5361,0.4849,0.2449,0.0721,0.103,0.1133,0.0716,-0.0301,0.0098,0.0477,0.0468,0.0458,0.0451,0.0449,0.0449,0.0448,0.0448,0.0839,0.0951,0.0945,0.0682,0.0596,0.0601,0.0596,0.0798,0.1111,0.1111,0.0707,-0.0,-0.0,-0.0,4.3333,4.5363,4.6398,4.6971,4.3479,3.9181,0.0,0.0,2.804,2.6039,2.4688,2.378,2.3409,2.2805,2.2531,2.3012,2.2282,0.0,0.0,0.0,0.0,0.0,0.0,0.0,0.0,0.0,0.0,0.0,0.0,0.0,0.0,2.8388,2.8311,2.8229,2.7105,2.6591,2.6591,2.6582,2.6371,2.5958,2.5555,2.4616,2.3066,2.2698,2.1293,0.0,0.0,0.0,0.0,1.864,1.8596,1.804,1.8313,1.8128,1.7622,1.7353,1.714,1.6862,1.584,1.5261,1.4928,1.4708,1.3852,1.3044,1.3286,1.3153,1.2911,1.2488,1.1782,1.0907,1.0033,0.9599,0.9375,0.9034,0.8947,0.8709,0.8122,0.6146,0.4448,0.4048,0.2757,0.2628,0.5879,0.2829,-0.0,-0.0,-0.0,-0.0401,-0.1477,-0.0687,-0.0,-0.0,-0.0,-0.0,-0.0,-0.0,-0.0,-0.0,-0.0,0.0473,0.139,0.049,-0.0,-0.0,-0.0,-0.0,-0.0,-0.0,-0.0,-0.0,-0.0,-0.0,3.7899,3.961,4.0386,4.1024,3.8456,3.5141,3.2488,0.0,2.6054,2.3807,2.3062,2.2618,2.2092,2.1927,2.199,2.2379,2.1922,0.0,0.0,0.0,0.0,0.0,0.0,0.0,0.0,0.0,0.0,0.0,0.0,0.0,0.0,2.716,2.6717,2.7483,2.7234,2.6517,2.5348,2.5348,2.47,2.3528,2.3161,2.2584,2.1804,2.0726,0.0,0.0,0.0,0.0,0.0,1.7968,1.8027,1.794,1.7943,1.7731,1.7554,1.7177,1.6954,1.6674,1.5939,1.5104,1.4307,1.4088,1.3335,1.2481,1.2186,1.1967,1.1709,1.0915,1.0486,1.0143,0.9596,0.9261,0.9037,0.8706,0.8611,0.7916,0.602,0.6588,0.6273,0.2081,0.0307,-0.0303,0.0707,0.0102,-0.0515,-0.0515,-0.052,-0.0733,-0.1041,-0.1132,-0.1018,-0.0607,-0.0597,-0.0483,-0.0,-0.0,-0.0,-0.0,-0.0,0.0096,0.0385,0.0196,-0.0,-0.0,-0.0,-0.0,-0.0,-0.0,-0.0,-0.0,-0.0707,-0.1111,0.0,3.4046,3.4696,3.5619,3.4012,0.0,0.0,0.0,2.4956,2.3017,2.2217,2.164,2.1026,2.0962,2.0991,2.1096,2.0875,0.0,0.0,0.0,0.0,0.0,0.0,0.0,0.0,0.0,0.0,0.0,0.0,0.0,0.0,0.0,2.5101,2.5549,2.5362,2.4889,2.4103,2.3863,2.3221,2.2316,2.1852,2.1293,2.0423,1.9479,0.0,0.0,0.0,0.0,0.0,1.778,1.7653,1.7547,1.7572,1.7329,1.6928,1.6298,1.5892,1.527,1.4249,1.3381,1.2621,1.228,1.1529,1.0554,0.9786,1.0159,1.0737,0.9985,0.9621,0.9372,0.9154,0.8819,0.8484,0.8273,0.8177,0.7374,0.4414,0.4356,0.3859,0.0421,-0.0827,-0.1325,-0.1518,-0.1326,-0.1133,-0.1141,-0.1153,-0.1165,-0.1172,-0.1479,-0.1574,-0.1258,-0.1239,-0.1107,-0.068,-0.0283,-0.0,-0.0,-0.0,-0.0,-0.0,-0.0,-0.0,-0.0,-0.0,-0.0,-0.0,-0.0,-0.0202,-0.0606,-0.1313,-0.1617,0.0,0.0,0.0,0.0,0.0,0.0,0.0,0.0,0.0,2.318,2.192,2.0815,2.0287,1.9897,1.9668,1.9624,0.0,0.0,0.0,0.0,0.0,0.0,0.0,0.0,0.0,0.0,0.0,0.0,0.0,0.0,0.0,0.0,2.3543,2.2906,2.2022,2.2055,2.2788,2.2161,2.1872,2.1788,2.1317,2.0334,1.8863,1.8759,0.0,0.0,0.0,0.0,0.0,1.7706,1.7401,1.6803,1.7249,1.6904,1.6038,1.4864,1.4065,1.3211,1.1351,1.046,1.0029,0.9677,0.8786,0.7683,0.6581,0.8029,0.9926,0.9375,0.9044,0.8816,0.8488,0.8266,0.794,0.7619,0.763,0.6733,0.3361,0.0332,-0.1635,-0.0965,-0.0843,-0.1035,-0.1526,-0.1623,-0.1633,-0.1557,-0.1561,-0.1675,-0.1704,-0.171,-0.1818,-0.1711,-0.1793,-0.1776,-0.1773,-0.0804,-0.0097,-0.0096,-0.0097,-0.0098,-0.0096,-0.0099,-0.0101,-0.0099,-0.01,-0.0101,-0.0101,-0.0101,-0.0606,-0.1516,-0.1617,-0.1617,2.3186,0.0,2.4956,2.5567,2.5439,0.0,0.0,0.0,2.2355,2.1574,0.0,0.0,2.0722,1.9596,0.0,0.0,0.0,0.0,0.0,0.0,0.0,0.0,0.0,0.0,0.0,0.0,0.0,0.0,0.0,0.0,0.0,0.0,2.1414,2.1149,1.9499,1.9419,2.1154,2.0802,2.0193,1.9219,1.8704,1.8313,1.7903,1.7381,0.0,0.0,0.0,0.0,1.7104,1.7031,1.7165,1.7274,1.6756,1.5995,1.5101,1.4344,1.3141,1.185,1.1164,1.0312,0.929,0.8168,0.7246,0.6695,0.6821,0.7382,0.7829,0.7721,0.8295,0.8762,0.8304,0.8081,0.7627,0.5931,0.4702,0.3585,0.224,-0.0,-0.1748,-0.1632,-0.1501,-0.1481,-0.1687,-0.1685,-0.1686,-0.1693,-0.1695,-0.1705,-0.1735,-0.174,-0.1748,-0.1771,-0.1767,-0.1755,-0.1839,-0.1428,-0.1085,-0.0598,-0.0701,-0.0706,-0.0713,-0.0729,-0.0627,-0.0615,-0.0609,-0.0606,-0.0606,-0.0606,-0.0707,-0.101,-0.1415,-0.1617,2.1341,2.2078,2.2681,2.328,2.3337,2.318,2.2819,0.0,0.0,0.0,0.0,0.0,0.0,0.0,0.0,0.0,0.0,0.0,0.0,0.0,0.0,0.0,0.0,0.0,0.0,0.0,0.0,0.0,0.0,0.0,0.0,0.0,1.9585,1.9404,1.832,1.8314,1.9753,1.9232,1.868,1.7987,1.7692,1.7303,1.7054,1.6742,1.6584,0.0,0.0,0.0,1.571,1.5686,1.5434,1.4988,1.4724,1.4134,1.3432,1.2392,1.1261,1.0033,0.9148,0.8052,0.6961,0.5506,0.492,0.47,0.4702,0.4702,0.4814,0.5706,0.6383,0.6839,0.65,0.5824,0.4925,0.4029,0.291,0.1679,0.0448,-0.089,-0.1766,-0.1752,-0.1736,-0.1721,-0.1708,-0.1705,-0.1704,-0.1704,-0.1704,-0.1715,-0.1746,-0.175,-0.1761,-0.1792,-0.1795,-0.1789,-0.1772,-0.1698,-0.1551,-0.1242,-0.1233,-0.1234,-0.1246,-0.1258,-0.1259,-0.1143,-0.1122,-0.1212,-0.1212,-0.1212,-0.1212,-0.1212,-0.1415,-0.1617,2.051,2.1183,2.1794,2.2477,2.2528,2.2443,2.2408,0.0,0.0,0.0,0.0,0.0,0.0,0.0,0.0,0.0,0.0,0.0,0.0,0.0,0.0,0.0,0.0,0.0,0.0,0.0,0.0,0.0,0.0,0.0,0.0,0.0,0.0,1.7883,1.7835,1.8093,1.8778,1.7872,1.7487,1.76,1.7443,1.6928,1.6118,1.6302,1.6192,0.0,0.0,0.0,1.3918,1.4098,1.3405,1.2214,1.2517,1.2179,1.1338,1.0048,0.9016,0.8203,0.6446,0.5221,0.4111,0.3044,0.2807,0.2693,0.202,0.1683,0.1795,0.3141,0.3696,0.3804,0.3587,0.2352,0.1342,0.1903,0.1344,0.0224,-0.1458,-0.1795,-0.1787,-0.1761,-0.1757,-0.1748,-0.1722,-0.1718,-0.1718,-0.1718,-0.1718,-0.1727,-0.1753,-0.1757,-0.1766,-0.1792,-0.1795,-0.1795,-0.1795,-0.1771,-0.1746,-0.172,-0.1691,-0.1675,-0.1675,-0.178,-0.1778,-0.1669,-0.1639,-0.1624,-0.1624,-0.1624,-0.1622,-0.1617,-0.1622,-0.1622,2.0263,2.0635,2.1366,2.1782,2.1741,2.1572,2.1572,0.0,0.0,0.0,0.0,0.0,0.0,0.0,0.0,0.0,0.0,0.0,0.0,0.0,0.0,0.0,0.0,0.0,0.0,0.0,0.0,0.0,0.0,0.0,0.0,0.0,0.0,1.7871,1.766,1.7762,1.8343,1.7732,1.7461,1.7535,1.731,1.6462,1.5142,1.5049,1.4282,0.0,0.0,1.2975,1.2894,1.2704,1.2618,1.2579,1.2119,1.1122,0.993,0.9337,0.8078,0.6336,0.5211,0.3993,0.304,0.2921,0.2469,0.1908,0.1795,0.1121,0.0112,-0.0798,-0.0227,0.045,-0.057,-0.1019,-0.1233,-0.1121,-0.1233,-0.1458,-0.1683,-0.1795,-0.1793,-0.1789,-0.1788,-0.1787,-0.1782,-0.1781,-0.1781,-0.1781,-0.1781,-0.1782,-0.1787,-0.1788,-0.179,-0.1795,-0.1795,-0.1795,-0.1795,-0.1791,-0.1786,-0.1781,-0.1752,-0.1736,-0.1736,-0.1845,-0.1724,-0.1698,-0.167,-0.1655,-0.1655,-0.1655,-0.1642,-0.1618,-0.1643,-0.1641,2.065,2.0347,2.0225,2.0899,2.1037,2.0887,2.0493,0.0,0.0,0.0,0.0,0.0,0.0,0.0,0.0,0.0,0.0,0.0,0.0,0.0,0.0,0.0,0.0,0.0,0.0,0.0,0.0,0.0,0.0,0.0,0.0,0.0,0.0,0.0,1.7197,1.6883,1.626,1.6034,1.6589,1.769,1.6715,1.5754,1.4818,1.4018,1.3046,1.2117,0.0,1.1724,1.1091,1.0963,1.052,0.9673,0.945,0.8862,0.8024,0.7414,0.6422,0.5296,0.4148,0.3385,0.2876,0.2509,0.2147,0.1683,0.1009,-0.0113,-0.1255,-0.174,-0.1267,-0.0685,-0.1277,-0.1612,-0.1819,-0.1819,-0.1807,-0.18,-0.1816,-0.1819,-0.1819,-0.1819,-0.1833,-0.1834,-0.18,-0.1808,-0.1814,-0.1797,-0.1795,-0.1795,-0.1795,-0.1795,-0.1795,-0.1795,-0.1795,-0.1795,-0.1795,-0.181,-0.1806,-0.1773,-0.1757,-0.175,-0.175,-0.1734,-0.1726,-0.1729,-0.17,-0.1677,-0.1662,-0.1662,-0.1647,-0.1617,-0.1631,-0.163,2.0651,1.9876,1.9116,1.9597,0.0,2.0031,1.9839,0.0,0.0,0.0,0.0,0.0,0.0,0.0,0.0,0.0,0.0,0.0,0.0,0.0,0.0,0.0,0.0,0.0,0.0,0.0,0.0,0.0,0.0,0.0,0.0,0.0,0.0,0.0,1.6295,1.572,1.4321,1.4147,1.5043,1.6674,1.5525,1.4493,1.3689,1.2745,1.1849,1.1033,1.093,1.0233,0.9131,0.9232,0.8415,0.7143,0.723,0.7021,0.6407,0.5544,0.4916,0.4282,0.3268,0.2983,0.2819,0.2081,0.1601,0.1133,-0.0112,-0.1138,-0.1972,-0.1879,-0.1523,-0.1167,-0.1181,-0.1523,-0.1851,-0.1851,-0.1833,-0.1823,-0.1846,-0.1851,-0.1851,-0.1851,-0.1864,-0.1976,-0.1813,-0.1819,-0.1822,-0.1798,-0.1795,-0.1795,-0.1795,-0.1795,-0.1797,-0.1805,-0.1806,-0.1808,-0.1816,-0.1838,-0.1828,-0.1774,-0.1764,-0.1757,-0.175,-0.1734,-0.1733,-0.1749,-0.1727,-0.1704,-0.1683,-0.1675,-0.166,-0.1637,-0.163,-0.1729,1.9333,1.8982,1.837,1.7463,1.796,0.0,2.0089,2.0266,0.0,1.9792,0.0,0.0,0.0,0.0,0.0,0.0,0.0,0.0,0.0,0.0,0.0,0.0,0.0,0.0,0.0,0.0,0.0,0.0,0.0,0.0,0.0,0.0,0.0,0.0,0.0,1.4221,1.3201,1.3013,1.2924,1.3057,1.2924,1.2222,1.0753,1.0753,0.9808,0.8396,0.8405,0.8113,0.7606,0.7622,0.7261,0.6891,0.6898,0.6405,0.5421,0.5049,0.4151,0.3017,0.3136,0.2626,0.1998,0.185,0.1045,-0.0234,-0.1359,-0.1836,-0.1883,-0.1885,-0.1904,-0.1805,-0.1807,-0.1905,-0.1883,-0.1883,-0.1881,-0.188,-0.1882,-0.1883,-0.1883,-0.1883,-0.2094,-0.2188,-0.1838,-0.2043,-0.2134,-0.1795,-0.1795,-0.1795,-0.1795,-0.1795,-0.1806,-0.1834,-0.1837,-0.1849,-0.1877,-0.1881,-0.1868,-0.1836,-0.1807,-0.1779,-0.175,-0.1775,-0.1776,-0.175,-0.1748,-0.1746,-0.1744,-0.1715,-0.17,-0.1697,-0.1671,-0.2175,1.9015,1.8537,1.7985,1.7959,1.7703,0.0,0.0,1.9674,2.007,2.0003,2.0348,0.0,0.0,0.0,0.0,0.0,0.0,0.0,0.0,0.0,0.0,0.0,0.0,0.0,0.0,0.0,0.0,0.0,0.0,0.0,0.0,0.0,0.0,0.0,0.0,1.2483,1.1103,1.0914,1.0521,0.9677,1.0884,1.1094,1.0314,0.9607,0.8769,0.7925,0.7807,0.7591,0.7385,0.7143,0.6898,0.6528,0.5912,0.5419,0.4926,0.4067,0.344,0.3058,0.257,0.2182,0.1793,0.095,-0.0236,-0.1411,-0.1742,-0.1881,-0.1914,-0.1914,-0.1936,-0.196,-0.196,-0.1937,-0.1914,-0.1914,-0.1899,-0.1891,-0.191,-0.2033,-0.227,-0.227,-0.2518,-0.2628,-0.2227,-0.2225,-0.2223,-0.1854,-0.1851,-0.1851,-0.1851,-0.2543,-0.278,-0.1984,-0.1868,-0.1881,-0.1911,-0.1896,-0.1889,-0.1896,-0.1851,-0.181,-0.1779,-0.1789,-0.1789,-0.1778,-0.1778,-0.1768,-0.175,-0.1738,-0.2034,-0.2722,-0.2735,-0.3331,1.8358,1.7689,1.7076,0.0,0.0,0.0,1.853,1.9344,1.9904,2.0155,2.0315,0.0,0.0,0.0,0.0,0.0,0.0,0.0,0.0,0.0,0.0,0.0,0.0,0.0,0.0,0.0,0.0,0.0,0.0,0.0,0.0,0.0,0.0,0.0,0.0,1.0528,0.8961,0.8836,0.8477,0.763,0.8958,0.9562,0.9566,0.8482,0.8,0.775,0.7385,0.7141,0.7018,0.6898,0.6405,0.5788,0.4926,0.4435,0.4189,0.3453,0.2961,0.2839,0.2223,0.1963,0.1701,-0.0,-0.1202,-0.2031,-0.1892,-0.1914,-0.1943,-0.1934,-0.1953,-0.1977,-0.1977,-0.1961,-0.1945,-0.1945,-0.193,-0.192,-0.2061,-0.2308,-0.2428,-0.2549,-0.2928,-0.3043,-0.2622,-0.2623,-0.2623,-0.2242,-0.259,-0.2825,-0.2825,-0.3995,-0.447,-0.3551,-0.3451,-0.3476,-0.3514,-0.3482,-0.347,-0.349,-0.3403,-0.2985,-0.2374,-0.2361,-0.2577,-0.2911,-0.2911,-0.2888,-0.284,-0.284,-0.3236,-0.3896,-0.4029,-0.4523,1.7062,1.6281,0.0,0.0,0.0,0.0,1.8962,1.9371,1.9584,2.0408,0.0,0.0,0.0,0.0,0.0,0.0,0.0,0.0,0.0,0.0,0.0,0.0,0.0,0.0,0.0,0.0,0.0,0.0,0.0,0.0,0.0,0.0,0.0,0.0,0.0,0.0,0.6898,0.6898,0.69,0.69,0.69,0.7266,0.7869,0.7508,0.7385,0.7385,0.7021,0.6653,0.6403,0.6403,0.5788,0.4803,0.4189,0.3575,0.3085,0.3208,0.2716,0.1976,0.1976,0.1976,0.1478,-0.1091,-0.1952,-0.1965,-0.1905,-0.1929,-0.197,-0.194,-0.1953,-0.1977,-0.1977,-0.1977,-0.1977,-0.1977,-0.1977,-0.2099,-0.2467,-0.2467,-0.259,-0.2961,-0.3169,-0.3256,-0.3014,-0.3095,-0.318,-0.2944,-0.3999,-0.4819,-0.4819,-0.5983,-0.6837,-0.6827,-0.6812,-0.6877,-0.6877,-0.6877,-0.6831,-0.6846,-0.6617,-0.5702,-0.3673,-0.3612,-0.4137,-0.5361,-0.5361,-0.5318,-0.5126,-0.5235,-0.5233,-0.512,-0.5249,-0.5894,1.6506,0.0,0.0,0.0,0.0,0.0,0.0,1.9389,0.0,0.0,0.0,0.0,0.0,0.0,0.0,0.0,0.0,0.0,0.0,0.0,0.0,0.0,0.0,0.0,0.0,0.0,0.0,0.0,0.0,0.0,0.0,0.0,0.0,0.0,0.0,0.0,0.6677,0.675,0.6788,0.6788,0.6865,0.7023,0.7143,0.7143,0.7021,0.7021,0.665,0.6283,0.5665,0.4928,0.4435,0.4189,0.3699,0.3331,0.3086,0.2592,0.2208,0.1823,0.0972,-0.0,-0.0971,-0.1692,-0.1952,-0.1973,-0.1955,-0.1962,-0.1975,-0.1966,-0.1969,-0.1977,-0.1977,-0.1977,-0.1977,-0.1977,-0.1977,-0.2099,-0.2467,-0.2714,-0.2961,-0.3332,-0.3566,-0.3921,-0.4525,-0.475,-0.4978,-0.5579,-0.606,-0.6543,-0.7504,-0.7143,-0.7155,-0.8153,-0.7464,-0.6877,-0.6877,-0.6877,-0.6862,-0.6831,-0.6729,-0.6354,-0.5724,-0.5518,-0.5582,-0.5915,-0.5915,-0.5901,-0.5874,-0.5802,-0.6165,-0.6842,-0.6995,-0.7584,1.5443,0.0,0.0,0.0,0.0,0.0,0.0,0.0,0.0,0.0,0.0,0.0,0.0,0.0,0.0,0.0,0.0,0.0,0.0,0.0,0.0,0.0,0.0,0.0,0.0,0.0,0.0,0.0,0.0,0.0,0.0,0.0,0.0,0.0,0.0,0.0,0.623,0.6291,0.6321,0.6323,0.6144,0.6051,0.6054,0.625,0.6285,0.6283,0.5667,0.5174,0.4805,0.3944,0.3699,0.3576,0.2961,0.2592,0.2345,0.2099,0.1712,0.1087,-0.0243,-0.1213,-0.1933,-0.1945,-0.1962,-0.1977,-0.1977,-0.1977,-0.1977,-0.1977,-0.1977,-0.1977,-0.1977,-0.2109,-0.2243,-0.2243,-0.2243,-0.2371,-0.2884,-0.3513,-0.4132,-0.4482,-0.5096,-0.5702,-0.6274,-0.639,-0.6634,-0.7243,-0.7771,-0.8646,-0.9812,-0.9368,-0.9255,-0.9933,-0.9319,-0.8833,-0.8833,-0.8833,-0.8833,-0.8833,-0.8702,-0.867,-0.8502,-0.7522,-0.7184,-0.7587,-0.7584,-0.7558,-0.7506,-0.748,-0.7837,-0.8355,-0.8497,-0.8904,0.0,0.0,0.0,0.0,0.0,0.0,0.0,0.0,0.0,0.0,0.0,0.0,0.0,0.0,0.0,0.0,0.0,0.0,0.0,0.0,0.0,0.0,0.0,0.0,0.0,0.0,0.0,0.0,0.0,0.0,0.0,0.0,0.0,0.0,0.0,0.0,0.5502,0.551,0.5514,0.0,0.4938,0.4707,0.4712,0.5088,0.528,0.5165,0.431,0.3821,0.3821,0.3331,0.3086,0.2962,0.2346,0.1482,0.0617,0.0863,0.0488,-0.0483,-0.1714,-0.2195,-0.2177,-0.2086,-0.1975,-0.1977,-0.1977,-0.1977,-0.1977,-0.1977,-0.2099,-0.2224,-0.2226,-0.2623,-0.3028,-0.3037,-0.291,-0.3044,-0.3853,-0.5016,-0.6014,-0.6183,-0.7168,-0.8127,-0.8122,-0.8099,-0.8102,-0.8224,-0.9445,-1.0605,-1.1675,-1.191,-1.1947,-1.1792,-1.1776,-1.1776,-1.1776,-1.1776,-1.1776,-1.1776,-1.1618,-1.1516,-1.15,-0.9655,-0.898,-0.9861,-0.9957,-0.9874,-0.9719,-0.9843,-0.9825,-0.9678,-0.9832,-0.9896,0.0,0.0,0.0,0.0,0.0,0.0,0.0,0.0,0.0,0.0,0.0,0.0,0.0,0.0,0.0,0.0,0.0,0.0,0.0,0.0,0.0,0.0,0.0,0.0,0.0,0.0,0.0,0.0,0.0,0.0,0.0,0.0,0.0,0.0,0.0,0.5324,0.4754,0.4816,0.4617,0.0,0.4093,0.4117,0.4117,0.4145,0.4185,0.4239,0.368,0.3454,0.3331,0.2592,0.1976,0.1482,0.1853,0.037,-0.246,-0.5483,-0.5443,-0.3846,-0.3696,-0.3827,-0.3738,-0.2422,-0.1957,-0.1977,-0.1977,-0.1977,-0.1977,-0.1977,-0.296,-0.3951,-0.4121,-0.514,-0.6313,-0.6719,-0.5804,-0.5124,-0.6671,-0.7184,-0.7536,-0.7561,-0.7916,-0.8372,-0.922,-0.9438,-0.9808,-1.0793,-1.1302,-1.1598,-1.1797,-1.1809,-1.1817,-1.178,-1.1776,-1.1776,-1.1776,-1.1776,-1.1776,-1.1776,-1.174,-1.165,-1.1504,-1.0933,-1.0685,-1.0882,-1.0755,-1.0779,-1.0739,-1.0389,-1.0254,-1.0218,-1.0258,-1.0198,0.0,0.0,0.0,0.0,0.0,0.0,0.0,0.0,0.0,0.0,0.0,0.0,0.0,0.0,0.0,0.0,0.0,0.0,0.0,0.0,0.0,0.0,0.0,0.0,0.0,0.0,0.0,0.0,0.0,0.0,0.0,0.0,0.0,0.0,0.4997,0.4706,0.4033,0.4069,0.3974,0.3635,0.3437,0.3221,0.2876,0.3389,0.331,0.2981,0.2766,0.2535,0.2175,0.207,0.1824,0.1331,0.0491,-0.0983,-0.2804,-0.5818,-0.5435,-0.3489,-0.4176,-0.4306,-0.4219,-0.3886,-0.3792,-0.394,-0.4062,-0.394,-0.394,-0.4309,-0.4797,-0.5416,-0.5706,-0.6529,-0.7638,-0.8657,-0.7781,-0.6888,-0.7977,-0.877,-0.9251,-0.9252,-0.9684,-1.0222,-1.0804,-1.0837,-1.1035,-1.1651,-1.1918,-1.1967,-1.1797,-1.1849,-1.1898,-1.1898,-1.1825,-1.1809,-1.189,-1.1825,-1.1776,-1.1776,-1.1776,-1.1736,-1.1634,-1.1541,-1.1403,-1.1228,-1.1135,-1.109,-1.109,-1.0903,-1.0769,-1.0692,-1.0692,-1.059,0.0,0.0,0.0,0.0,0.0,0.0,0.0,0.0,0.0,0.0,0.0,0.0,0.0,0.0,0.0,0.0,0.0,0.0,0.0,0.0,0.0,0.0,0.0,0.0,0.0,0.0,0.0,0.0,0.0,0.0,0.0,0.0,0.4746,0.4132,0.4311,0.4016,0.3461,0.3471,0.3475,0.3251,0.2805,0.2244,0.1797,0.2422,0.2339,0.1761,0.2001,0.1532,0.0826,0.1195,0.1431,0.13,-0.097,-0.2191,-0.2894,-0.4215,-0.4101,-0.3265,-0.434,-0.4702,-0.4719,-0.563,-0.5896,-0.6016,-0.6259,-0.6261,-0.6141,-0.6754,-0.6872,-0.7001,-0.7288,-0.7937,-0.886,-1.0062,-0.9645,-0.897,-0.9215,-1.0303,-1.1055,-1.0763,-1.1622,-1.2211,-1.2056,-1.1914,-1.1809,-1.178,-1.1918,-1.1967,-1.1797,-1.1922,-1.202,-1.1987,-1.1886,-1.1866,-1.1975,-1.1857,-1.1776,-1.1776,-1.1776,-1.1776,-1.1776,-1.1776,-1.163,-1.1325,-1.1285,-1.1269,-1.1269,-1.1236,-1.1151,-1.1013,-1.098,-1.0871,0.0,0.0,0.0,0.0,0.0,0.0,0.0,0.0,0.0,0.0,0.0,0.0,0.0,0.0,0.0,0.0,0.0,0.0,0.0,0.0,0.0,0.0,0.0,0.0,0.0,0.0,0.0,0.0,0.0,0.0,0.0,0.3958,0.3747,0.363,0.3585,0.34,0.2964,0.3008,0.2693,0.2019,0.1908,0.1907,0.1795,0.0901,0.0683,0.1039,0.1757,0.1296,0.0118,-0.0827,-0.0945,-0.0589,-0.0947,-0.2981,-0.5767,-0.4626,-0.5994,-0.8069,-0.6157,-0.6301,-0.7225,-0.6259,-0.6139,-0.6381,-0.6381,-0.6628,-0.6754,-0.6877,-0.7853,-0.9007,-0.9371,-1.0608,-1.1869,-1.2295,-1.225,-1.2142,-1.2165,-1.2437,-1.2517,-1.2338,-1.2166,-1.206,-1.2032,-1.2012,-1.1947,-1.1797,-1.1918,-1.1967,-1.1797,-1.1922,-1.1971,-1.1825,-1.1922,-1.1947,-1.1821,-1.1788,-1.1776,-1.1776,-1.1776,-1.1776,-1.1776,-1.1776,-1.1752,-1.1703,-1.1545,-1.1464,-1.1459,-1.1301,-1.1208,-1.1183,-1.1037,-1.0871,0.0,0.0,0.0,0.0,0.0,0.0,0.0,0.0,0.0,0.0,0.0,0.0,0.0,0.0,0.0,0.0,0.0,0.0,0.0,0.0,0.0,0.0,0.0,0.0,0.0,0.0,0.0,0.0,0.0,0.0,0.3725,0.3581,0.3285,0.2938,0.3096,0.291,0.2266,0.1957,0.1644,0.1327,0.0995,0.0111,-0.1231,-0.2127,-0.18,-0.0681,-0.137,-0.1945,-0.252,-0.3466,-0.3691,-0.3439,-0.3969,-0.5048,-0.6439,-0.5344,-0.5909,-0.7263,-0.6914,-0.7342,-0.8097,-0.8343,-0.8584,-0.8948,-0.907,-0.907,-0.9198,-0.9566,-1.0054,-1.0472,-1.0952,-1.1717,-1.2369,-1.2625,-1.2763,-1.2836,-1.2836,-1.2836,-1.2783,-1.2601,-1.2434,-1.2264,-1.2065,-1.2028,-1.1971,-1.1801,-1.1841,-1.1861,-1.1788,-1.1841,-1.1935,-1.206,-1.1963,-1.1939,-1.2065,-1.189,-1.1776,-1.1776,-1.1776,-1.1776,-1.1776,-1.1776,-1.1776,-1.1776,-1.1695,-1.1654,-1.1654,-1.1573,-1.148,-1.1374,-1.1301,-1.1167,0.0,0.0,0.0,0.0,0.0,0.0,0.0,0.0,0.0,0.0,0.0,0.0,0.0,0.0,0.0,0.0,0.0,0.0,0.0,0.0,0.0,0.0,0.0,0.0,0.0,0.0,0.0,0.0,0.0,0.0,0.3033,0.3003,0.2821,0.2268,0.2413,0.233,0.1696,0.0963,-0.0108,-0.1639,-0.2085,-0.2877,-0.4027,-0.4702,-0.4255,-0.3137,-0.4255,-0.4814,-0.5043,-0.5552,-0.5539,-0.5493,-0.6091,-0.6467,-0.6648,-0.5726,-0.5962,-0.6836,-0.7463,-0.8161,-0.8952,-1.0058,-1.0668,-1.091,-1.1273,-1.1152,-1.1156,-1.1651,-1.1647,-1.157,-1.1917,-1.2203,-1.2361,-1.258,-1.2739,-1.2836,-1.2836,-1.2836,-1.2795,-1.2661,-1.2596,-1.2467,-1.2154,-1.206,-1.1987,-1.1861,-1.1841,-1.1841,-1.1841,-1.1882,-1.1996,-1.2215,-1.2,-1.1967,-1.228,-1.1979,-1.1817,-1.1906,-1.1829,-1.1797,-1.1841,-1.1801,-1.1772,-1.1893,-1.1893,-1.1893,-1.1776,-1.1893,-1.1819,-1.168,-1.1757,-1.1661,0.0,0.0,0.0,0.0,0.0,0.0,0.0,0.0,0.0,0.0,0.0,0.0,0.0,0.0,0.0,0.0,0.0,0.0,0.0,0.0,0.0,0.0,0.0,0.0,0.0,0.0,0.0,0.0,0.0,0.0,0.2422,0.1922,0.1722,0.1619,0.1649,0.1665,0.1561,0.0538,-0.2845,-0.8368,-0.8383,-0.7301,-0.5371,-0.6154,-0.6487,-0.6265,-0.5594,-0.5819,-0.649,-0.6495,-0.6042,-0.5361,-0.5483,-0.6214,-0.7209,-0.5838,-0.7127,-0.9245,-0.8394,-0.896,-1.0304,-1.0668,-1.1031,-1.1273,-1.1273,-1.1522,-1.1776,-1.1776,-1.1776,-1.1857,-1.2203,-1.23,-1.2393,-1.2739,-1.2832,-1.2836,-1.2836,-1.2836,-1.2836,-1.2824,-1.2682,-1.2507,-1.2324,-1.2146,-1.2028,-1.2016,-1.2016,-1.2016,-1.2016,-1.217,-1.2219,-1.206,-1.2028,-1.2097,-1.2288,-1.1979,-1.1922,-1.2259,-1.1963,-1.1849,-1.2012,-1.1861,-1.1889,-1.2118,-1.2238,-1.2001,-1.1776,-1.2001,-1.2113,-1.2217,-1.2408,-1.2443,0.0,0.0,0.0,0.0,0.0,0.0,0.0,0.0,0.0,0.0,0.0,0.0,0.0,0.0,0.0,0.0,0.0,0.0,0.0,0.0,0.0,0.0,0.0,0.0,0.0,0.0,0.0,0.0,0.0,0.0,0.1918,0.1718,0.1415,0.1111,0.1424,-0.0102,-0.3471,-0.2889,-0.3653,-0.5716,-0.6789,-0.7317,-0.7494,-0.7124,-0.7379,-0.8048,-0.8045,-0.7598,-0.6932,-0.7712,-0.7934,-0.7595,-0.7595,-0.8069,-0.867,-0.8109,-0.8853,-1.0044,-0.9683,-1.0087,-1.091,-1.1031,-1.1398,-1.1647,-1.1647,-1.1651,-1.1776,-1.1776,-1.1853,-1.1996,-1.2243,-1.2389,-1.2532,-1.2779,-1.2836,-1.2836,-1.2836,-1.2836,-1.2869,-1.2982,-1.295,-1.2848,-1.2678,-1.2592,-1.2471,-1.2243,-1.2207,-1.2207,-1.2207,-1.2268,-1.2324,-1.2369,-1.2519,-1.2649,-1.2842,-1.275,-1.2661,-1.2666,-1.2549,-1.2507,-1.2566,-1.2398,-1.2428,-1.2669,-1.2544,-1.2479,-1.2367,-1.2479,-1.2479,-1.2479,-1.2534,-1.2623,0.8275,0.0,0.0,0.0,0.0,0.0,0.0,0.0,0.0,0.0,0.0,0.0,0.0,0.0,0.0,0.0,0.0,0.0,0.0,0.0,0.0,0.0,0.0,0.0,0.0,0.0,0.0,0.0,0.0,0.0,0.1301,0.06,-0.01,-0.0806,-0.0504,-0.2319,-0.6584,-0.5583,-0.5213,-0.5482,-0.6432,-0.7514,-0.8625,-0.805,-0.8222,-0.9047,-0.9322,-0.8882,-0.7931,-0.8823,-0.9158,-0.9158,-0.9158,-0.9379,-0.9489,-0.9489,-0.9912,-1.0304,-1.0416,-1.0867,-1.1273,-1.1398,-1.1647,-1.1776,-1.1776,-1.1776,-1.1776,-1.1776,-1.1898,-1.2073,-1.2259,-1.2479,-1.2686,-1.2808,-1.2836,-1.2836,-1.2836,-1.2836,-1.2873,-1.2986,-1.3007,-1.295,-1.2775,-1.2743,-1.2666,-1.243,-1.2393,-1.2393,-1.2521,-1.2521,-1.2693,-1.2938,-1.2906,-1.3024,-1.341,-1.3322,-1.323,-1.3229,-1.3117,-1.3078,-1.3016,-1.2841,-1.2991,-1.3239,-1.3044,-1.3063,-1.3188,-1.2995,-1.2844,-1.2844,-1.296,-1.3084,0.0,0.0,0.0,0.0,0.0,0.0,0.0,0.0,0.0,0.0,0.0,0.0,0.0,0.0,0.0,0.0,0.0,0.0,0.0,0.0,0.0,0.0,0.0,0.0,0.0,0.0,0.0,0.0,0.0,0.1347,0.0785,-0.1374,-0.3065,-0.4022,-0.4126,-0.5135,-0.7169,-0.7193,-0.7564,-0.8282,-0.8327,-0.8464,-0.8696,-0.9022,-0.9219,-0.9357,-0.9518,-0.9435,-0.9482,-0.9699,-0.9809,-0.9809,-0.9812,-0.9816,-0.9816,-0.9824,-1.0025,-1.042,-1.0655,-1.0992,-1.1398,-1.1651,-1.1776,-1.1776,-1.1776,-1.1776,-1.1776,-1.1776,-1.1902,-1.2081,-1.2272,-1.258,-1.2836,-1.2836,-1.2836,-1.2836,-1.2836,-1.2836,-1.284,-1.2844,-1.2844,-1.2787,-1.2609,-1.258,-1.258,-1.2572,-1.2572,-1.2701,-1.3092,-1.3088,-1.3221,-1.3607,-1.3431,-1.3466,-1.3844,-1.366,-1.3607,-1.3853,-1.3656,-1.3531,-1.3598,-1.3545,-1.3564,-1.3815,-1.3619,-1.3642,-1.401,-1.343,-1.3204,-1.3204,-1.3569,-1.3688,0.6062,0.0,0.0,0.0,0.0,0.0,0.0,0.0,0.0,0.0,0.0,0.0,0.0,0.0,0.0,0.0,0.0,0.0,0.0,0.0,0.0,0.0,0.0,0.0,0.0,0.0,0.0,0.0,0.1529,0.0683,-0.1372,-0.4274,-0.6029,-0.6261,-0.6453,-0.6851,-0.7363,-0.7494,-0.761,-0.7811,-0.8163,-0.846,-0.8706,-0.8923,-0.9107,-0.9356,-0.9516,-0.9697,-0.985,-0.9634,-0.963,-0.9645,-0.9768,-0.9926,-1.0162,-1.0289,-1.058,-1.1009,-1.1261,-1.1454,-1.1651,-1.1776,-1.1776,-1.1776,-1.1776,-1.1776,-1.1776,-1.1776,-1.1996,-1.2304,-1.2609,-1.2763,-1.2836,-1.2836,-1.2836,-1.2836,-1.2836,-1.2836,-1.2873,-1.2999,-1.3023,-1.3007,-1.2958,-1.2946,-1.2905,-1.2779,-1.3025,-1.316,-1.3291,-1.3544,-1.367,-1.38,-1.4012,-1.415,-1.4263,-1.4433,-1.4419,-1.4268,-1.4169,-1.4132,-1.4191,-1.4006,-1.4034,-1.4416,-1.407,-1.3887,-1.401,-1.3672,-1.3569,-1.3569,-1.3688,-1.3688,0.0,0.0,0.0,0.0,0.0,0.0,0.0,0.0,0.0,0.0,0.0,0.0,0.0,0.0,0.0,0.0,0.0,0.0,0.0,0.0,0.0,0.0,0.0,0.0,0.0,0.0,0.0,0.0,0.1488,-0.019,-0.4162,-0.6171,-0.7172,-0.7369,-0.7459,-0.7553,-0.7753,-0.7746,-0.7743,-0.7743,-0.813,-0.8509,-0.8678,-0.8976,-0.9298,-0.9633,-0.9774,-1.0051,-1.0103,-0.9996,-0.9931,-1.0,-1.0104,-1.0253,-1.0496,-1.0679,-1.092,-1.1151,-1.1411,-1.1569,-1.1675,-1.1752,-1.1776,-1.1776,-1.1776,-1.1776,-1.1776,-1.1776,-1.2032,-1.2389,-1.2743,-1.2836,-1.2836,-1.2836,-1.2836,-1.2836,-1.2836,-1.2836,-1.2865,-1.2966,-1.2986,-1.2986,-1.2986,-1.2986,-1.2954,-1.2984,-1.3239,-1.3498,-1.3757,-1.4015,-1.4141,-1.4272,-1.4534,-1.467,-1.467,-1.48,-1.48,-1.467,-1.467,-1.467,-1.467,-1.4558,-1.4498,-1.4756,-1.435,-1.4052,-1.3877,-1.375,-1.3688,-1.3688,-1.3688,-1.3688,0.0,0.0,0.0,0.0,0.0,0.0,0.2707,0.2655,0.2616,0.0,0.0,0.0,0.0,0.0,0.0,0.0,0.0,0.0,0.0,0.0,0.0,0.0,0.0,0.0,0.0,0.0,0.0696,0.0609,0.0712,-0.1556,-0.6862,-0.7122,-0.725,-0.7524,-0.7637,-0.7743,-0.8038,-0.8038,-0.8041,-0.8038,-0.8333,-0.8507,-0.8751,-0.9252,-0.9622,-1.0004,-1.0064,-1.0217,-1.0404,-1.0383,-1.0489,-1.0668,-1.0684,-1.0692,-1.0716,-1.0903,-1.098,-1.1045,-1.1382,-1.1512,-1.1557,-1.1723,-1.1776,-1.1776,-1.1776,-1.1776,-1.178,-1.1801,-1.2048,-1.2381,-1.2718,-1.2824,-1.2836,-1.2836,-1.2836,-1.2836,-1.2836,-1.2836,-1.2836,-1.2836,-1.2836,-1.2836,-1.2836,-1.2836,-1.3099,-1.3367,-1.3498,-1.3757,-1.4272,-1.4403,-1.4539,-1.4931,-1.4931,-1.4931,-1.4931,-1.4931,-1.4931,-1.4931,-1.4931,-1.4931,-1.4931,-1.4931,-1.4931,-1.4931,-1.452,-1.4104,-1.3688,-1.3688,-1.3688,-1.3688,-1.3688,-1.3688,0.0,0.0,0.0,0.0,0.0,0.0,0.2717,0.2718,0.2616,0.0,0.0,0.0,0.0,0.0,0.0,0.0,0.0,0.0,0.0,0.0,0.0,0.0,0.0,0.0,0.0,0.0,-0.0261,-0.4017,-0.3474,-0.3959,-0.6386,-0.711,-0.7496,-0.7475,-0.7779,-0.7939,-0.8038,-0.8038,-0.8137,-0.8333,-0.8333,-0.8649,-0.9084,-0.9183,-0.9418,-0.9678,-0.9746,-0.9916,-1.0205,-1.0054,-1.0188,-1.0497,-1.0639,-1.0692,-1.0716,-1.0903,-1.1057,-1.1204,-1.1423,-1.1598,-1.1727,-1.1764,-1.1776,-1.1776,-1.1776,-1.1776,-1.1805,-1.1943,-1.2138,-1.2353,-1.2564,-1.2726,-1.2836,-1.2836,-1.2836,-1.2836,-1.2836,-1.2836,-1.2836,-1.2836,-1.3104,-1.3235,-1.3235,-1.349,-1.3748,-1.3748,-1.401,-1.4272,-1.4403,-1.467,-1.48,-1.4931,-1.4931,-1.4931,-1.4931,-1.4931,-1.4931,-1.4931,-1.4931,-1.4931,-1.4931,-1.4931,-1.4931,-1.4931,-1.452,-1.4104,-1.3688,-1.3688,-1.3688,-1.3688,-1.3688,-1.3688,0.0,0.0,0.0,0.2152,0.0,0.0,0.0,0.2034,0.0,0.0,0.0,0.0,0.0,0.0,0.0,0.0,0.0,0.0,0.0,0.0,0.0,0.0,0.0,0.0,0.0,0.0,-0.2851,-0.4506,-0.4954,-0.5722,-0.6858,-0.7298,-0.7504,-0.7621,-0.7861,-0.8038,-0.8038,-0.8137,-0.8233,-0.8432,-0.8634,-0.8935,-0.9236,-0.9335,-0.9577,-0.9758,-0.9758,-0.9908,-1.016,-1.016,-1.027,-1.0444,-1.053,-1.0615,-1.0716,-1.0903,-1.1025,-1.1135,-1.1407,-1.1561,-1.1654,-1.1748,-1.1776,-1.1776,-1.1776,-1.1776,-1.1813,-1.1979,-1.2162,-1.2349,-1.2519,-1.2702,-1.2836,-1.2836,-1.2836,-1.2836,-1.2836,-1.2836,-1.2836,-1.3104,-1.3363,-1.3625,-1.3371,-1.3621,-1.401,-1.4141,-1.4272,-1.4403,-1.467,-1.48,-1.4931,-1.4931,-1.4931,-1.4931,-1.4931,-1.4931,-1.4931,-1.4931,-1.4931,-1.4931,-1.4931,-1.4931,-1.4884,-1.4785,-1.4473,-1.4161,-1.3849,-1.374,-1.3688,-1.3688,-1.3688,-1.3688,0.0,0.0,0.0,0.0,0.0,0.1405,0.0,0.0,0.0,0.0,0.0,0.0,0.0,0.0,0.0,0.0,0.0,0.0,0.0,0.0,0.0,0.0,0.0,0.0,0.0,0.0,-0.5491,-0.4259,-0.5652,-0.6835,-0.7265,-0.7364,-0.7594,-0.7729,-0.7929,-0.8024,-0.7997,-0.8319,-0.8531,-0.8531,-0.9034,-0.9232,-0.9236,-0.9529,-0.9701,-0.9839,-0.9868,-0.9989,-1.0172,-1.0322,-1.0404,-1.044,-1.0473,-1.057,-1.0712,-1.0858,-1.096,-1.1057,-1.1346,-1.1492,-1.1577,-1.1727,-1.1776,-1.1776,-1.1776,-1.1776,-1.1805,-1.1943,-1.2138,-1.2341,-1.2479,-1.2674,-1.2836,-1.2836,-1.2836,-1.2836,-1.2836,-1.2968,-1.2972,-1.3367,-1.3752,-1.3879,-1.3625,-1.3884,-1.4141,-1.4403,-1.4534,-1.4539,-1.4931,-1.4931,-1.4931,-1.4931,-1.4931,-1.4931,-1.4931,-1.4931,-1.4931,-1.4931,-1.4931,-1.4931,-1.4931,-1.4931,-1.4818,-1.4577,-1.4402,-1.4189,-1.3948,-1.3773,-1.3688,-1.3688,-1.3688,-1.3688,0.0,0.0,0.0,0.0,0.1381,0.0,0.0,0.0,0.0,0.0,0.0,0.0,0.0,0.0,0.0,0.0,0.0,0.0,0.0,0.0,0.0,0.0,0.0,0.0,0.0,0.0,0.0,-0.6097,-0.6789,-0.7154,-0.6917,-0.7392,-0.7692,-0.7431,-0.8014,-0.8269,-0.8139,-0.8561,-0.8829,-0.9133,-0.9133,-0.9335,-0.9529,-0.9628,-0.964,-0.9665,-0.9819,-0.9989,-1.0164,-1.0184,-1.0286,-1.0448,-1.0603,-1.0676,-1.0692,-1.0716,-1.0923,-1.12,-1.124,-1.1468,-1.1748,-1.1768,-1.1776,-1.1776,-1.1776,-1.1776,-1.178,-1.1801,-1.2048,-1.2312,-1.2328,-1.2584,-1.2836,-1.2836,-1.2836,-1.2836,-1.3235,-1.3367,-1.3367,-1.3748,-1.4141,-1.4272,-1.4272,-1.4539,-1.48,-1.48,-1.48,-1.48,-1.4931,-1.4931,-1.4931,-1.4931,-1.4931,-1.4931,-1.4931,-1.4931,-1.4931,-1.4931,-1.4931,-1.4931,-1.4931,-1.4931,-1.4747,-1.4355,-1.4322,-1.4118,-1.3726,-1.3703,-1.3688,-1.3688,-1.3688,-1.3688,0.0,0.0,0.0,0.0,0.0,0.0,0.0981,0.0,0.0958,0.0,0.0,0.0,0.0,0.0,0.0,0.0,0.0,0.0,0.0,0.0,0.0,0.0,0.0,0.0,0.0,0.0,0.0,0.0,0.0,-0.7009,-0.6853,-0.7272,-0.7591,-0.7552,-0.8006,-0.8369,-0.8401,-0.8849,-0.9133,-0.9236,-0.9331,-0.9529,-0.9628,-0.9628,-0.9628,-0.9632,-0.9705,-0.9839,-1.001,-1.0115,-1.027,-1.0452,-1.0627,-1.0631,-1.0554,-1.0655,-1.0915,-1.1224,-1.1224,-1.1464,-1.1776,-1.1776,-1.1776,-1.1776,-1.1776,-1.1776,-1.1776,-1.1776,-1.2032,-1.2308,-1.2308,-1.2568,-1.2836,-1.2836,-1.2836,-1.2968,-1.3367,-1.3371,-1.3498,-1.4146,-1.4272,-1.4403,-1.467,-1.48,-1.4931,-1.4931,-1.4931,-1.4931,-1.4931,-1.4931,-1.4931,-1.4931,-1.4931,-1.4931,-1.4931,-1.4931,-1.4931,-1.4931,-1.4931,-1.4931,-1.4931,-1.4931,-1.4794,-1.4506,-1.4374,-1.4166,-1.3873,-1.375,-1.3688,-1.3688,-1.3688,-1.3688,0.0388,0.0,0.0,0.0,0.0,0.0,0.0,0.0,0.0,0.0,0.0,0.0,0.0,0.0,0.0,0.0,0.0,0.0,0.0,0.0,0.0,0.0,0.0,0.0,0.0,0.0,0.0,0.0,-0.6278,0.0,-0.6932,-0.7258,-0.749,-0.7667,-0.8113,-0.8475,-0.8619,-0.9123,-0.9331,-0.9331,-0.9529,-0.9628,-0.9628,-0.9628,-0.9628,-0.9632,-0.9734,-0.9847,-0.9977,-1.0209,-1.0359,-1.0452,-1.0627,-1.0586,-1.0456,-1.0627,-1.0887,-1.1159,-1.1204,-1.1464,-1.1776,-1.1776,-1.1776,-1.1776,-1.1776,-1.1776,-1.1776,-1.1776,-1.1996,-1.2243,-1.2414,-1.266,-1.2906,-1.3087,-1.3095,-1.3231,-1.3625,-1.363,-1.3888,-1.4403,-1.4534,-1.467,-1.48,-1.4931,-1.4931,-1.4931,-1.4931,-1.4931,-1.4931,-1.4931,-1.4931,-1.4931,-1.4931,-1.4912,-1.4855,-1.4903,-1.4931,-1.4931,-1.4931,-1.4931,-1.4931,-1.4879,-1.4752,-1.4548,-1.4336,-1.4128,-1.3925,-1.3764,-1.3688,-1.3688,-1.3688,-1.3688,0.0,0.0,0.0,-0.0,0.0,0.0,0.0,0.0,-0.0,0.0,0.0,0.0,0.0,0.0,0.0,0.0082,0.0,0.0,0.0,0.0,0.0,0.0,0.0,0.0,0.0,0.0,0.0,-0.6481,-0.6627,-0.6776,-0.6922,-0.725,-0.7514,-0.7514,-0.843,-0.889,-0.8718,-0.9255,-0.9628,-0.9628,-0.9628,-0.9628,-0.9628,-0.9628,-0.9628,-0.9648,-0.9994,-1.0148,-1.018,-1.053,-1.0582,-1.0452,-1.0627,-1.0586,-1.0456,-1.0627,-1.0814,-1.1001,-1.1163,-1.1464,-1.1776,-1.1776,-1.1776,-1.1776,-1.1776,-1.1776,-1.1776,-1.1776,-1.1902,-1.2077,-1.262,-1.294,-1.3264,-1.3705,-1.3875,-1.401,-1.4272,-1.4403,-1.4408,-1.48,-1.4931,-1.4931,-1.4931,-1.4931,-1.4931,-1.4931,-1.4931,-1.4931,-1.4931,-1.4931,-1.4931,-1.4931,-1.4931,-1.4851,-1.4657,-1.4822,-1.4931,-1.4931,-1.4931,-1.4931,-1.4931,-1.4747,-1.4544,-1.4326,-1.4123,-1.3915,-1.3698,-1.3693,-1.3688,-1.3688,-1.3688,-1.3688,0.0,0.0,-0.0402,-0.0098,0.0,0.0,0.0,0.0,0.0,0.0,0.0,0.0,0.0,0.0,-0.0429,-0.0426,-0.0673,0.0,0.0,0.0,0.0,0.0,0.0,0.0,0.0,0.0,0.0,-0.5544,-0.6231,-0.6764,0.0,-0.7208,-0.7519,-0.7782,-0.8336,-0.8757,-0.8999,-0.9328,-0.9506,-0.9628,-0.9628,-0.9628,-0.9628,-0.9628,-0.9628,-0.964,-0.9876,-1.005,-1.018,-1.042,-1.0554,-1.0611,-1.0668,-1.0655,-1.0611,-1.0672,-1.081,-1.1013,-1.1305,-1.1488,-1.1614,-1.1736,-1.1776,-1.1776,-1.1776,-1.1776,-1.1801,-1.191,-1.2192,-1.262,-1.2936,-1.3251,-1.3665,-1.3862,-1.3875,-1.4006,-1.4272,-1.4403,-1.4534,-1.48,-1.4931,-1.4931,-1.4931,-1.4931,-1.4931,-1.4931,-1.4931,-1.4931,-1.4931,-1.4931,-1.4931,-1.4931,-1.4813,-1.4709,-1.4638,-1.4563,-1.452,-1.452,-1.452,-1.452,-1.452,-1.4454,-1.4322,-1.4118,-1.4048,-1.3906,-1.3688,-1.3688,-1.3688,-1.3688,-1.3688,-1.3688,-0.1617,-0.1314,0.0,-0.0587,-0.0385,0.0,-0.0276,0.0,0.0,0.0,0.0,0.0,0.0,0.0,0.0,-0.0968,-0.0951,-0.1432,0.0,-0.3683,0.0,0.0,0.0,0.0,0.0,0.0,-0.5407,-0.501,-0.5952,-0.6606,0.0,0.0,-0.755,-0.7866,-0.8371,-0.8699,-0.8999,-0.9234,-0.9413,-0.9531,-0.9596,-0.9628,-0.9628,-0.9628,-0.9628,-0.964,-0.988,-1.0154,-1.0389,-1.0424,-1.059,-1.0802,-1.0692,-1.0692,-1.0692,-1.0692,-1.081,-1.1013,-1.1301,-1.1443,-1.1529,-1.1715,-1.1893,-1.1889,-1.1889,-1.201,-1.2168,-1.2352,-1.2606,-1.3009,-1.34,-1.3686,-1.4056,-1.4254,-1.4272,-1.4272,-1.4534,-1.4534,-1.467,-1.48,-1.4931,-1.4931,-1.4931,-1.4931,-1.4931,-1.4931,-1.4931,-1.4931,-1.4931,-1.4931,-1.4931,-1.4931,-1.4752,-1.46,-1.4525,-1.4326,-1.4237,-1.4307,-1.4312,-1.4312,-1.4312,-1.4241,-1.4175,-1.4118,-1.3972,-1.3863,-1.3802,-1.3726,-1.3688,-1.3688,-1.3688,-1.3688]},{"header":{"parameterUnit":"m.s-1","parameterCategory":1,"la1":30.6,"la2":29.2853,"lo1":-89.7004,"lo2":-87.6739,"dy":0.0162,"dx":0.0183,"nx":112,"ny":82,"refTime":"2023-08-14T06:00:00:Z","depth":0,"parameterNumber":3,"parameterNumberName":"V-component_of_WINDS"},"data":[0.0,0.0,0.0,0.0,0.0,0.0,0.0,0.0,0.0,0.0,0.0,0.0,0.0,0.0,0.0,0.0,0.0,0.0,0.0,0.0,0.0,0.0,0.0,0.0,0.0,0.0,0.0,0.0,0.0,0.0,0.0,0.0,0.0,0.0,0.0,0.0,0.0,0.0,0.0,0.0,0.0,0.0,0.0,0.0,0.0,0.0,0.0,0.0,0.0,0.0,0.0,0.0,0.0,0.0,0.0,0.0,0.0,0.0,0.0,0.0,0.0,0.0,0.0,0.0,0.0,0.0,0.0,0.0,0.0,0.0,0.0,0.0,0.0,0.0,0.0,0.0,0.0,0.0,0.0,0.0,0.0,0.0,0.0,0.0,0.0,0.0,0.0,0.0,0.0,0.0,0.0,-1.3295,-1.6135,-1.7625,-1.6863,-1.6585,-1.6243,-1.5749,0.0,0.0,0.0,0.0,0.0,0.0,0.0,0.0,0.0,0.0,0.0,0.0,0.0,0.0,0.0,0.0,0.0,0.0,0.0,0.0,0.0,0.0,0.0,0.0,0.0,0.0,0.0,0.0,0.0,0.0,0.0,0.0,0.0,0.0,0.0,0.0,0.0,0.0,0.0,0.0,0.0,0.0,0.0,0.0,0.0,0.0,0.0,0.0,0.0,0.0,0.0,0.0,0.0,0.0,0.0,0.0,0.0,0.0,0.0,0.0,0.0,0.0,0.0,0.0,0.0,0.0,0.0,0.0,0.0,0.0,0.0,0.0,0.0,0.0,0.0,0.0,0.0,0.0,0.0,0.0,0.0,0.0,0.0,0.0,0.0,0.0,0.0,0.0,0.0,0.0,0.0,0.0,0.0,0.0,0.0,0.0,0.0,0.0,0.0,0.0,0.0,0.0,0.0,0.0,-1.2543,-1.4972,-1.6859,-1.7894,-1.7706,-1.6748,-1.6558,-1.7437,0.0,0.0,0.0,0.0,0.0,0.0,0.0,0.0,0.0,0.0,0.0,0.0,0.0,0.0,0.0,0.0,0.0,0.0,0.0,0.0,0.0,0.0,0.0,0.0,0.0,0.0,0.0,0.0,0.0,0.0,0.0,0.0,0.0,0.0,0.0,0.0,0.0,0.0,0.0,0.0,0.0,0.0,0.0,0.0,0.0,0.0,0.0,0.0,0.0,0.0,0.0,0.0,0.0,0.0,0.0,0.0,0.0,0.0,0.0,0.0,0.0,0.0,0.0,0.0,0.0,0.0,0.0,0.0,0.0,0.0,0.0,0.0,0.0,0.0,0.0,0.0,0.0,0.0,0.0,0.0,0.0,0.0,0.0,0.0,0.0,0.0,0.0,0.0,0.0,0.0,0.0,0.0,0.0,0.0,0.0,0.0,0.0,0.0,0.0,0.0,0.0,0.0,0.0,-1.187,-1.295,-1.4955,-1.6421,-1.7221,-1.717,-1.6494,-1.6485,-1.7353,-1.5778,0.0,0.0,0.0,0.0,0.0,0.0,0.0,0.0,0.0,0.0,0.0,0.0,0.0,0.0,0.0,0.0,0.0,0.0,0.0,0.0,0.0,0.0,0.0,0.0,0.0,0.0,0.0,0.0,0.0,0.0,0.0,0.0,0.0,0.0,0.0,0.0,0.0,0.0,0.0,0.0,0.0,0.0,0.0,0.0,0.0,0.0,0.0,0.0,0.0,0.0,0.0,0.0,0.0,0.0,0.0,0.0,0.0,0.0,0.0,0.0,0.0,0.0,0.0,0.0,0.0,0.0,0.0,0.0,0.0,0.0,0.0,0.0,0.0,0.0,0.0,0.0,0.0,0.0,0.0,0.0,0.0,0.0,0.0,0.0,0.0,0.0,0.0,0.0,0.0,0.0,0.0,0.0,0.0,0.0,0.0,0.0,0.0,0.0,0.0,0.0,0.0,0.0,-1.2283,-1.3009,-1.4654,-1.5647,-1.6249,-1.6375,-1.5841,-1.5868,-1.674,-1.5483,0.0,0.0,0.0,0.0,0.0,0.0,0.0,0.0,0.0,0.0,0.0,0.0,0.0,0.0,0.0,0.0,0.0,0.0,0.0,0.0,0.0,0.0,0.0,0.0,0.0,0.0,0.0,0.0,0.0,0.0,0.0,0.0,0.0,0.0,0.0,0.0,0.0,0.0,0.0,0.0,0.0,0.0,0.0,0.0,0.0,0.0,0.0,0.0,0.0,0.0,0.0,0.0,0.0,0.0,0.0,0.0,0.0,0.0,0.0,0.0,0.0,0.0,0.0,0.0,0.0,0.0,0.0,0.0,0.0,0.0,0.0,0.0,0.0,0.0,0.0,0.0,0.0,0.0,0.0,0.0,0.0,0.0,0.0,0.0,0.0,0.0,0.0,0.0,0.0,0.0,0.0,0.0,0.0,0.0,0.0,0.0,0.0,0.0,0.0,0.0,0.0,0.0,-1.2208,-1.2861,-1.4803,-1.4935,-1.5228,-1.6083,-1.4689,-1.4443,-1.606,-1.4348,0.0,0.0,0.0,0.0,0.0,0.0,0.0,0.0,0.0,0.0,0.0,0.0,0.0,0.0,0.0,0.0,0.0,0.0,0.0,0.0,0.0,0.0,0.0,0.0,0.0,0.0,0.0,0.0,0.0,0.0,0.0,0.0,0.0,0.0,0.0,0.0,0.0,0.0,0.0,0.0,0.0,0.0,0.0,0.0,0.0,0.0,0.0,0.0,0.0,0.0,0.0,0.0,0.0,0.0,0.0,0.0,0.0,0.0,0.0,0.0,0.0,0.0,0.0,0.0,0.0,0.0,0.0,0.0,0.0,0.0,0.0,0.0,0.0,0.0,0.0,0.0,0.0,0.0,0.0,0.0,0.0,0.0,0.0,0.0,0.0,0.0,0.0,0.0,0.0,0.0,0.0,0.0,0.0,0.0,0.0,0.0,0.0,0.0,0.0,0.0,0.0,0.0,-1.1964,-1.2183,0.0,-1.3686,-1.4023,-1.433,-1.4196,-1.45,-1.5466,0.0,0.0,0.0,0.0,0.0,0.0,0.0,0.0,0.0,0.0,0.0,0.0,0.0,0.0,0.0,0.0,0.0,0.0,0.0,0.0,0.0,0.0,0.0,0.0,0.0,0.0,0.0,0.0,0.0,0.0,0.0,0.0,0.0,0.0,0.0,0.0,0.0,0.0,0.0,0.0,0.0,0.0,0.0,0.0,0.0,0.0,0.0,0.0,0.0,0.0,0.0,0.0,0.0,0.0,0.0,0.0,0.0,0.0,0.0,0.0,0.0,0.0,0.0,0.0,0.0,0.0,0.0,0.0,0.0,0.0,0.0,0.0,0.0,0.0,0.0,0.0,0.0,0.0,0.0,0.0,0.0,0.0,0.0,0.0,0.0,0.0,0.0,0.0,0.0,0.0,0.0,0.0,0.0,0.0,0.0,0.0,0.0,0.0,0.0,0.0,0.0,0.0,-1.2021,-1.1631,-1.1561,0.0,-1.2524,-1.2878,-1.3165,-1.3338,-1.3849,-1.484,0.0,0.0,0.0,0.0,0.0,0.0,0.0,0.0,0.0,0.0,0.0,0.0,0.0,0.0,0.0,0.0,0.0,0.0,0.0,0.0,0.0,0.0,0.0,0.0,0.0,0.0,0.0,0.0,0.0,0.0,0.0,0.0,0.0,0.0,0.0,0.0,0.0,0.0,0.0,0.0,0.0,0.0,0.0,0.0,0.0,0.0,0.0,0.0,0.0,0.0,0.0,0.0,0.0,0.0,0.0,0.0,0.0,0.0,0.0,0.0,0.0,0.0,0.0,0.0,0.0,0.0,0.0,0.0,0.0,0.0,0.0,0.0,0.0,0.0,0.0,0.0,0.0,0.0,0.0,0.0,0.0,0.0,0.0,0.0,0.0,0.0,0.0,0.0,0.0,0.0,0.0,0.0,0.0,0.0,0.0,0.0,0.0,0.0,0.0,0.0,0.0,0.0,-1.1606,-1.1172,-1.1104,-1.1631,-1.158,-1.185,-1.2812,-1.1905,-1.2165,0.0,0.0,0.0,0.0,0.0,0.0,0.0,0.0,0.0,0.0,0.0,0.0,0.0,0.0,0.0,0.0,0.0,0.0,0.0,0.0,0.0,0.0,0.0,0.0,0.0,0.0,0.0,0.0,0.0,0.0,0.0,0.0,0.0,0.0,0.0,0.0,0.0,0.0,0.0,0.0,0.0,0.0,0.0,0.0,0.0,0.0,0.0,0.0,0.0,0.0,0.0,0.0,0.0,0.0,0.0,0.0,0.0,0.0,0.0,0.0,0.0,0.0,0.0,0.0,0.0,0.0,0.0,0.0,0.0,0.0,0.0,0.0,0.0,0.0,0.0,0.0,0.0,0.0,0.0,0.0,0.0,0.0,0.0,0.0,0.0,0.0,0.0,0.0,0.0,0.0,0.0,0.0,0.0,0.0,0.0,0.0,0.0,0.0,0.0,0.0,0.0,0.0,0.0,-1.2037,-1.1364,-1.0963,-1.1115,-1.1113,-1.1305,-1.1875,-1.1875,-1.2647,-1.4518,0.0,0.0,0.0,0.0,0.0,0.0,0.0,0.0,0.0,0.0,0.0,0.0,0.0,0.0,0.0,0.0,0.0,0.0,0.0,0.0,0.0,0.0,0.0,0.0,0.0,0.0,0.0,0.0,0.0,0.0,0.0,0.0,0.0,0.0,0.0,0.0,0.0,0.0,0.0,0.0,0.0,0.0,0.0,0.0,0.0,0.0,0.0,0.0,0.0,0.0,0.0,0.0,0.0,0.0,0.0,0.0,0.0,0.0,0.0,0.0,0.0,0.0,0.0,0.0,0.0,0.0,0.0,0.0,0.0,0.0,0.0,0.0,0.0,0.0,0.0,0.0,0.0,0.0,0.0,0.0,0.0,0.0,0.0,0.0,0.0,0.0,0.0,0.0,0.0,0.0,0.0,0.0,0.0,0.0,0.0,0.0,0.0,0.0,0.0,0.0,0.0,0.0,-1.2488,-1.1726,-1.1172,-1.1206,-1.1196,-1.1344,-1.1774,-1.199,-1.2861,-1.4672,0.0,0.0,0.0,0.0,0.0,0.0,0.0,0.0,0.0,0.0,0.0,0.0,0.0,0.0,0.0,0.0,0.0,0.0,0.0,0.0,0.0,0.0,0.0,0.0,0.0,0.0,0.0,0.0,0.0,0.0,0.0,0.0,0.0,0.0,0.0,0.0,0.0,0.0,0.0,0.0,0.0,0.0,0.0,0.0,0.0,0.0,0.0,0.0,0.0,0.0,0.0,0.0,0.0,0.0,0.0,0.0,0.0,0.0,0.0,0.0,0.0,0.0,0.0,0.0,0.0,0.0,0.0,0.0,0.0,0.0,0.0,0.0,0.0,0.0,0.0,0.0,0.0,0.0,0.0,0.0,0.0,0.0,0.0,0.0,0.0,0.0,0.0,0.0,0.0,0.0,0.0,0.0,0.0,0.0,0.0,0.0,0.0,0.0,0.0,0.0,0.0,0.0,-1.3038,-1.2236,-1.1642,-1.1734,-1.1743,-1.1889,-1.2272,-1.2217,-1.2901,-1.4646,0.0,0.0,0.0,0.0,0.0,0.0,0.0,0.0,0.0,0.0,0.0,0.0,0.0,0.0,0.0,0.0,0.0,0.0,0.0,0.0,0.0,0.0,0.0,0.0,0.0,0.0,0.0,0.0,0.0,0.0,0.0,0.0,0.0,0.0,0.0,0.0,0.0,0.0,0.0,0.0,0.0,0.0,0.0,0.0,0.0,0.0,0.0,0.0,0.0,0.0,0.0,0.0,0.0,0.0,0.0,0.0,0.0,0.0,0.0,0.0,-1.1064,0.0,0.0,0.0,0.0,0.0,0.0,0.0,0.0,0.0,0.0,0.0,0.0,0.0,0.0,0.0,0.0,0.0,0.0,0.0,0.0,0.0,0.0,0.0,0.0,0.0,0.0,0.0,0.0,0.0,0.0,0.0,0.0,0.0,0.0,0.0,0.0,0.0,0.0,0.0,0.0,0.0,-1.3952,-1.3187,-1.249,-1.2205,-1.2541,-1.2672,-1.2311,-1.2541,-1.3418,-1.498,0.0,0.0,0.0,0.0,0.0,0.0,0.0,0.0,0.0,0.0,0.0,0.0,0.0,0.0,0.0,0.0,0.0,0.0,0.0,0.0,0.0,0.0,0.0,0.0,0.0,0.0,0.0,0.0,0.0,0.0,0.0,0.0,0.0,0.0,0.0,0.0,0.0,0.0,0.0,0.0,0.0,0.0,0.0,0.0,0.0,0.0,0.0,0.0,0.0,0.0,0.0,0.0,0.0,0.0,0.0,0.0,0.0,0.0,0.0,0.0,0.0,-1.1941,0.0,0.0,0.0,0.0,0.0,0.0,0.0,0.0,0.0,0.0,0.0,0.0,0.0,0.0,0.0,0.0,0.0,0.0,0.0,0.0,0.0,0.0,0.0,0.0,0.0,0.0,0.0,0.0,0.0,0.0,0.0,0.0,0.0,0.0,0.0,0.0,0.0,0.0,0.0,0.0,-1.4631,-1.4019,-1.3436,-1.3023,-1.34,-1.3485,-1.2997,-1.31,-1.3757,-1.507,-1.467,0.0,0.0,0.0,0.0,0.0,0.0,0.0,0.0,0.0,0.0,0.0,0.0,0.0,0.0,0.0,0.0,0.0,0.0,0.0,0.0,0.0,0.0,0.0,0.0,0.0,0.0,0.0,0.0,0.0,0.0,0.0,0.0,0.0,0.0,0.0,0.0,0.0,0.0,0.0,0.0,0.0,0.0,0.0,0.0,0.0,0.0,0.0,0.0,0.0,0.0,0.0,0.0,0.0,-1.3596,-1.4061,-1.3763,-1.413,-1.4508,-1.4896,-1.3874,-1.3198,-1.2839,0.0,0.0,0.0,0.0,0.0,0.0,0.0,0.0,0.0,0.0,0.0,0.0,0.0,0.0,0.0,0.0,0.0,0.0,0.0,0.0,0.0,0.0,0.0,0.0,0.0,-1.5904,-1.5633,0.0,0.0,0.0,0.0,0.0,0.0,0.0,0.0,0.0,0.0,0.0,0.0,-1.5264,-1.4792,-1.4275,-1.3888,-1.4271,-1.4351,-1.387,-1.3778,-1.4137,-1.5057,-1.467,-1.4682,0.0,0.0,0.0,0.0,0.0,0.0,0.0,0.0,0.0,0.0,0.0,0.0,0.0,0.0,0.0,0.0,0.0,0.0,0.0,0.0,0.0,0.0,0.0,0.0,0.0,0.0,0.0,0.0,0.0,0.0,0.0,0.0,-0.9259,-0.8794,0.0,0.0,0.0,0.0,0.0,0.0,0.0,0.0,0.0,0.0,0.0,0.0,0.0,0.0,-1.6079,-1.6215,-1.6484,-1.6721,-1.6988,-1.702,-1.6967,-1.7012,-1.6897,-1.6629,-1.6103,0.0,-1.445,-1.4297,0.0,0.0,0.0,0.0,0.0,0.0,0.0,0.0,0.0,0.0,0.0,0.0,0.0,0.0,0.0,0.0,0.0,0.0,0.0,0.0,0.0,0.0,-1.7041,-1.7132,-1.7556,-1.7826,0.0,-1.6505,-1.5579,-1.5232,-1.5564,0.0,0.0,0.0,0.0,0.0,0.0,0.0,-1.6077,-1.5441,-1.4754,-1.4332,-1.5072,-1.5266,-1.4378,-1.4587,-1.4894,-1.5082,-1.4694,-1.4739,-1.5353,-1.5638,0.0,0.0,0.0,0.0,0.0,0.0,0.0,0.0,0.0,0.0,0.0,0.0,0.0,0.0,0.0,0.0,0.0,0.0,0.0,0.0,0.0,0.0,0.0,0.0,0.0,0.0,0.0,0.0,0.0,-1.1016,-1.1046,-1.0361,-1.1089,-1.1665,0.0,0.0,0.0,0.0,0.0,0.0,0.0,0.0,0.0,-1.65,-1.6515,-1.6846,-1.7701,-1.7819,-1.8094,-1.8442,-1.8661,-1.8773,-1.8951,-1.8548,-1.8537,-1.8799,-1.8631,-1.8221,-1.7586,-1.6326,-1.5409,-1.4917,0.0,0.0,0.0,0.0,-1.6239,-1.6403,-1.6908,-1.6941,0.0,0.0,0.0,0.0,0.0,0.0,0.0,0.0,0.0,0.0,0.0,0.0,0.0,-1.8461,-1.8725,-1.8988,-1.9502,-1.9144,-1.8389,0.0,-1.7552,-1.794,-1.7485,0.0,0.0,0.0,0.0,0.0,-1.6612,-1.6126,-1.5557,-1.5139,-1.5512,-1.5489,-1.4782,-1.5198,-1.558,-1.575,-1.5618,-1.5543,-1.5574,-1.6333,-1.7043,0.0,0.0,0.0,0.0,0.0,0.0,0.0,0.0,0.0,0.0,0.0,0.0,0.0,0.0,0.0,0.0,0.0,0.0,0.0,0.0,0.0,0.0,0.0,0.0,0.0,0.0,0.0,0.0,-1.2549,-1.2783,-1.1799,-1.2991,-1.3466,0.0,0.0,0.0,0.0,0.0,0.0,-1.5431,-1.582,-1.6734,-1.8291,-1.8394,-1.8704,-1.9428,-1.9617,-2.0027,-2.0567,-2.078,-2.1009,-2.1336,-2.0754,-2.0759,-2.1185,-2.1105,-2.0894,-2.063,-1.893,-1.7649,-1.6722,-1.8085,-1.7821,-1.6798,-1.781,-1.8271,-1.8407,-1.8482,-1.833,-1.8186,-1.8751,0.0,-1.8378,-1.8192,0.0,0.0,0.0,0.0,-1.9809,-1.9595,-1.9357,-1.9284,-1.9822,-2.013,-2.0471,-2.1225,-2.1828,-2.1566,0.0,-1.9438,-1.9776,-1.9127,0.0,0.0,0.0,0.0,-1.7157,-1.7044,-1.668,-1.6303,-1.5957,-1.607,-1.6016,-1.561,-1.6005,-1.6387,-1.6507,-1.6549,-1.6403,-1.6047,-1.7028,-1.7702,-1.7888,0.0,0.0,0.0,0.0,0.0,0.0,0.0,0.0,0.0,0.0,0.0,0.0,0.0,0.0,0.0,0.0,0.0,0.0,0.0,0.0,0.0,0.0,0.0,0.0,0.0,0.0,0.0,0.0,0.0,-1.2682,-1.4994,0.0,0.0,0.0,0.0,-1.6111,-1.6844,-1.7319,-1.7479,-1.8127,-1.9132,-2.0442,-2.0451,-2.119,-2.2635,-2.2662,-2.3241,-2.4383,-2.4402,-2.4578,-2.4824,-2.4784,-2.4406,-2.3587,-2.3223,-2.3022,-2.2932,-2.209,-2.1124,-2.0236,-2.0958,-2.065,-1.9931,-2.0448,-2.0044,-1.9365,-1.9835,-1.9966,-2.0151,-2.1379,-2.2198,-2.245,-2.0959,-2.1252,0.0,0.0,-2.214,-2.2133,-2.2127,-2.165,-2.1159,-2.1217,-2.2147,-2.2981,-2.2892,-2.4477,-2.4911,0.0,-2.0874,-2.0986,-2.0903,0.0,-1.9857,-1.9376,-1.8521,-1.7787,-1.7434,-1.7073,-1.6863,-1.6837,-1.7018,-1.7102,-1.7076,-1.7286,-1.7317,-1.7101,-1.7194,-1.716,-1.6933,-1.7368,-1.8095,-1.9179,-1.953,0.0,0.0,0.0,0.0,0.0,0.0,0.0,0.0,0.0,0.0,0.0,0.0,0.0,0.0,0.0,0.0,0.0,0.0,0.0,0.0,0.0,0.0,0.0,0.0,0.0,0.0,0.0,0.0,-1.5457,-1.7006,0.0,0.0,-1.7119,-1.7511,-1.7511,-1.7965,-1.8608,-1.9465,-1.9957,-2.095,-2.2741,-2.276,-2.339,-2.4721,-2.4365,-2.4766,-2.5833,-2.5461,-2.558,-2.5953,-2.538,-2.4937,-2.4605,-2.4409,-2.4006,-2.3624,-2.4252,-2.3325,-2.1499,-2.2709,-2.2509,-2.1832,-2.2901,-2.2742,-2.2036,-2.2728,-2.2672,-2.2309,-2.3075,-2.3243,-2.3134,-2.2929,-2.3151,-2.3469,-2.3485,-2.3483,-2.3476,-2.3477,-2.2908,-2.2595,-2.3772,-2.4014,-2.4292,-2.5521,-2.6009,-2.5984,-2.4948,-2.3899,-2.2896,-2.2174,-2.1524,-2.1123,-2.1095,-2.0481,-1.982,-1.9377,-1.9024,-1.8618,-1.8031,-1.7876,-1.7663,-1.7406,-1.7774,-1.7972,-1.7882,-1.8238,-1.8243,-1.7797,-1.8574,-1.9106,-1.9321,-2.0178,-2.0861,0.0,0.0,0.0,0.0,0.0,0.0,0.0,0.0,0.0,0.0,0.0,0.0,0.0,0.0,0.0,0.0,0.0,0.0,0.0,0.0,0.0,0.0,0.0,0.0,0.0,0.0,-1.7499,-1.7954,-1.9222,-1.974,-1.8854,-1.9276,-1.9596,-1.9596,-1.9954,-2.0754,-2.2113,-2.2384,-2.3213,-2.4824,-2.4697,-2.4943,-2.5708,-2.5513,-2.5941,-2.6817,-2.677,-2.6981,-2.7382,-2.6751,-2.6365,-2.6183,-2.6092,-2.5808,-2.5452,-2.634,-2.575,-2.4208,-2.4926,-2.4664,-2.4016,-2.5254,-2.523,-2.4636,-2.5013,-2.4776,-2.4477,-2.4757,-2.4637,-2.4526,-2.4901,-2.5001,-2.4961,-2.4961,-2.497,-2.4947,-2.4947,-2.4214,-2.3895,-2.547,-2.5463,-2.5528,-2.7254,-2.7486,-2.739,-2.7476,-2.6062,-2.4493,-2.3364,-2.3035,-2.2761,-2.2287,-2.1877,-2.1474,-2.1111,-2.0514,-2.0005,-1.9573,-1.9043,-1.8644,-1.8583,-1.8899,-1.9037,-1.8898,-1.9441,-1.9465,-1.8901,-1.9894,-2.04,-2.0285,-2.0841,-2.1757,-2.3059,0.0,0.0,0.0,0.0,0.0,0.0,0.0,0.0,0.0,0.0,0.0,0.0,0.0,0.0,0.0,0.0,0.0,0.0,0.0,0.0,0.0,0.0,0.0,-1.7348,-1.8499,-1.9687,-2.0114,-2.1823,-2.2278,-2.0394,-2.159,-2.2502,-2.2493,-2.2777,-2.3709,-2.5246,-2.5294,-2.5674,-2.6532,-2.6023,-2.5792,-2.5772,-2.618,-2.6732,-2.7469,-2.8293,-2.8925,-2.9198,-2.9186,-2.8886,-2.845,-2.8438,-2.8426,-2.8426,-2.8426,-2.8426,-2.8347,-2.7568,-2.6933,-2.6618,-2.7466,-2.746,-2.694,-2.6311,-2.6304,-2.6476,-2.657,-2.6658,-2.678,-2.6861,-2.6797,-2.6736,-2.6721,-2.6695,-2.6666,-2.6666,-2.5706,-2.5033,-2.6226,-2.6514,-2.6803,-2.8049,-2.8894,-2.9271,-2.8785,-2.7221,-2.5664,-2.4596,-2.496,-2.4802,-2.3115,-2.2821,0.0,-2.2443,-2.1465,-2.0976,-2.1406,-2.0506,-2.0103,-2.0655,-2.0647,-2.043,-2.0051,-2.0618,-2.0737,-2.0239,-2.117,-2.1877,-2.2231,-2.1623,-2.2165,-2.3905,0.0,0.0,0.0,0.0,0.0,0.0,0.0,0.0,0.0,0.0,0.0,0.0,0.0,0.0,0.0,0.0,0.0,0.0,0.0,0.0,0.0,0.0,-2.0945,-2.0107,-2.0902,-2.2099,-2.3749,-2.4894,-2.5628,-2.5771,-2.6153,-2.6261,-2.5838,-2.5936,-2.6063,-2.6167,-2.6167,-2.6401,-2.6755,-2.7317,-2.7616,-2.7811,-2.8259,-2.8687,-2.9218,-2.9118,-2.932,-2.9714,-2.9342,-2.909,-2.8934,-2.8595,-2.8426,-2.8426,-2.8426,-2.8426,-2.8426,-2.8834,-2.8648,-2.8233,-2.9112,-2.9078,-2.8515,-2.7347,-2.7424,-2.8046,-2.8141,-2.7941,-2.7708,-2.8124,-2.793,-2.7575,-2.7929,-2.7987,-2.809,-2.8528,-2.7989,-2.7676,-2.8801,-2.8688,-2.8721,-2.9972,-2.9995,-2.9822,-2.993,-2.9132,-2.8078,-2.7001,-2.7008,-2.6951,-2.647,-2.5733,0.0,-2.4656,-2.367,-2.2847,-2.2297,-2.2021,-2.1585,-2.0985,-2.0909,-2.0652,-2.0051,-2.0268,-2.0338,-2.0224,-2.0887,-2.1858,-2.3126,-2.3485,-2.4408,0.0,0.0,0.0,0.0,0.0,0.0,0.0,0.0,0.0,0.0,0.0,0.0,0.0,0.0,0.0,0.0,0.0,0.0,0.0,0.0,0.0,0.0,-2.2689,-2.3988,-2.4233,-2.4217,-2.4832,-2.6792,-2.7245,-2.7716,-2.8327,-2.845,-2.8188,-2.7541,-2.7501,-2.7408,-2.7242,-2.7388,-2.7806,-2.8309,-2.897,-2.9323,-2.9168,-2.9591,-2.9861,-2.9841,-2.9948,-3.0244,-3.0661,-3.0206,-3.0094,0.0,-2.9708,-2.9459,-2.9459,-2.9459,-2.9666,0.0,0.0,0.0,0.0,0.0,-3.0124,-2.9549,-2.8908,-2.8818,-2.9134,-2.9603,-2.934,-2.8943,-2.9537,-2.917,-2.8667,-2.8945,-2.8967,-2.8966,-2.9316,-2.8906,-2.8667,-2.9815,-2.9592,-2.9428,-3.0711,-3.0679,-3.0454,-3.0754,-3.0446,0.0,-2.9755,-2.9091,-2.8549,-2.8257,-2.7696,-2.716,-2.6783,-2.5581,-2.4601,-2.4092,-2.3295,-2.2601,-2.2238,-2.2214,0.0,0.0,0.0,-2.2077,-2.2287,-2.2785,0.0,0.0,0.0,-2.5764,-2.6278,0.0,0.0,0.0,-2.8072,-2.8484,0.0,0.0,0.0,0.0,0.0,0.0,0.0,0.0,0.0,0.0,0.0,0.0,0.0,0.0,0.0,0.0,-2.55,-2.7115,-2.8686,-2.8082,-2.787,-2.9211,-2.909,-2.9029,-2.954,-2.9686,-2.9184,-2.8218,-2.8208,-2.8384,-2.8443,0.0,0.0,0.0,0.0,-3.081,-3.0252,-3.0648,-3.0582,-2.9999,-3.0722,-3.1323,-3.1731,-3.1222,-3.1261,-3.1718,-3.1209,-3.1061,-3.1123,-3.1123,-3.1542,-3.2074,-3.067,-3.0063,-3.0228,-3.0947,-3.0903,-3.0381,-3.0596,0.0,0.0,-3.0744,-3.0643,-3.0294,-3.091,-3.0577,-2.997,-3.0003,-2.9831,-2.9653,-2.9697,-2.9237,-2.8994,-2.9959,-2.9782,-2.9665,-3.0784,-3.1015,-3.1055,-3.119,-3.1297,-3.1568,-3.2212,-3.0999,-2.9789,-2.9277,-2.9034,-2.8804,-2.8597,-2.7054,-2.6038,-2.6141,0.0,0.0,-2.402,-2.4004,-2.3777,-2.3339,-2.4048,-2.4689,-2.5179,-2.5438,-2.5819,-2.6177,-2.6591,-2.6561,-2.6032,-2.706,-2.7544,-2.7562,-2.8286,-2.8662,0.0,0.0,0.0,0.0,0.0,0.0,0.0,0.0,0.0,0.0,0.0,0.0,0.0,0.0,0.0,-2.6326,-2.8366,-3.0028,-3.0901,-3.1488,-3.158,-3.081,-3.0954,-3.1485,-3.2233,-3.2351,-3.1801,-3.0443,-3.0712,-3.0603,-2.986,-3.0237,0.0,-3.1323,-3.1688,-3.1888,-3.1932,-3.2354,-3.2238,-3.1636,0.0,0.0,-3.1143,-3.1039,-3.1052,-3.1143,-3.1039,-3.1334,-3.1869,-3.1869,-3.2304,-3.2932,-3.2635,-3.2492,-3.2563,-3.272,-3.2486,-3.1943,-3.1569,-3.1146,-3.0825,-3.1102,-3.1125,-3.1114,-3.1653,-3.1621,0.0,-3.1857,-3.1487,-3.1149,-3.1608,-3.1197,-3.0694,-3.0925,-3.0897,-3.087,-3.1117,-3.1196,-3.1257,-3.1274,-3.1844,-3.2361,-3.2514,-3.1687,-3.1173,-3.1719,-3.0101,-2.903,-2.9538,-2.7524,-2.6299,-2.6911,-2.6094,-2.534,-2.4975,-2.4926,-2.4679,-2.4113,-2.434,-2.4675,-2.5008,-2.5114,-2.5634,-2.6711,-2.6837,-2.7245,-2.8041,-2.8311,-2.8451,-2.8451,-2.8565,-2.8725,0.0,0.0,0.0,0.0,0.0,0.0,0.0,0.0,0.0,0.0,0.0,-2.2764,0.0,0.0,-2.8153,-2.9394,-3.0824,-3.2081,-3.2899,-3.3278,-3.3225,-3.2545,-3.2405,-3.2717,-3.341,-3.3213,-3.2569,-3.1345,-3.1639,-3.1574,-3.0629,-3.1447,-3.2031,-3.2289,-3.3367,-3.3645,-3.3078,-3.3731,-3.3574,-3.2648,-3.2648,-3.2763,-3.301,-3.2758,-3.2785,-3.2996,-3.2758,-3.2591,-3.272,-3.3421,-3.3901,-3.4321,-3.5085,-3.4574,-3.3325,-3.2945,-3.2758,-3.2549,-3.1997,-3.1918,-3.2005,-3.217,-3.2384,-3.2697,-3.2934,-3.2886,-3.2793,-3.3024,-3.2752,-3.2462,-3.279,-3.2577,-3.2391,-3.2846,-3.2659,-3.253,-3.2944,-3.2457,-3.1952,-3.1952,-3.2008,-3.2183,-3.2559,-3.1978,-3.1684,-3.2446,-3.1538,-3.0713,-3.0487,-2.9076,-2.8139,-2.8301,-2.7707,-2.7028,-2.6347,-2.6419,-2.6438,-2.6214,-2.6636,-2.7085,-2.7444,-2.7517,-2.7959,-2.8837,-2.8515,-2.8647,-2.9261,-2.8869,-2.8749,-2.8897,-2.8874,-2.8943,0.0,0.0,0.0,0.0,0.0,0.0,0.0,0.0,-2.0299,-2.1648,-2.3866,-2.5916,-2.7003,-2.9225,-3.1102,-3.2146,-3.2955,-3.3584,-3.4283,-3.4043,-3.3792,-3.3792,-3.353,-3.3464,-3.377,-3.3355,-3.2729,-3.1757,-3.216,-3.2137,-3.1389,-3.2445,-3.3192,-3.3262,-3.4722,-3.5056,-3.4044,-3.4734,-3.4553,-3.3422,-3.3422,-3.3889,-3.4731,-3.4395,-3.4494,-3.4885,-3.4825,-3.4426,-3.3925,-3.5344,-3.5864,-3.5854,-3.7144,-3.6307,-3.4301,-3.3609,-3.3354,-3.324,-3.2796,-3.2856,-3.3135,-3.3287,-3.3716,-3.4185,-3.4185,-3.4118,-3.4076,-3.4076,-3.3889,-3.3668,-3.3668,-3.3609,-3.3677,-3.4551,-3.4345,-3.4172,-3.4854,-3.4134,-3.3283,-3.3106,-3.2748,-3.2576,-3.3041,-3.2789,-3.2634,-3.2943,-3.281,-3.2448,-3.1688,-3.0908,-3.027,-2.982,-2.9205,-2.8602,-2.7938,-2.8116,-2.8323,-2.8475,-2.9127,-2.9658,-2.9983,-3.0154,-3.0416,-3.0836,-3.0214,-2.9901,-2.997,-2.9223,-2.8971,-2.9172,-2.9235,-2.9295,-1.4914,-1.5096,-1.561,-1.7013,-1.7658,-1.8877,0.0,0.0,-2.4737,-2.6545,-2.846,-3.0098,-3.0878,-3.2343,-3.341,-3.3574,-3.3965,-3.424,-3.3923,-3.3825,-3.3792,-3.3792,-3.413,-3.4207,-3.3835,-3.3355,-3.2889,-3.2222,-3.2693,-3.2945,-3.2748,-3.3308,-3.3768,-3.423,-3.4687,-3.4854,-3.4771,-3.5082,-3.494,-3.4177,-3.4177,-3.3908,-3.3438,-3.3987,-3.4255,-3.4411,-3.6256,-3.6641,-3.6096,-3.767,-3.7951,-3.7397,-3.7632,-3.7658,-3.7414,-3.6558,-3.5925,-3.5443,-3.4749,-3.4238,-3.3864,-3.3901,-3.4268,-3.4721,-3.4721,-3.5018,-3.5397,-3.5548,-3.5094,-3.4559,-3.4703,-3.4267,-3.396,-3.4694,-3.5152,-3.5401,-3.5409,-3.5676,-3.567,-3.496,-3.5403,-3.5634,-3.503,-3.5438,-3.551,-3.4454,-3.3247,-3.2721,-3.3559,-3.2513,-3.1524,-3.1124,-3.0504,-2.998,-2.9669,-2.9769,-2.9869,-2.9869,-3.0064,-3.0269,-3.0421,-3.0599,-3.079,-3.0957,-3.0453,-3.016,-3.0178,-2.9646,-2.9437,-2.9476,-2.9697,-2.9786,-1.7329,-1.7613,0.0,0.0,-2.0784,-2.2186,-2.5113,-2.6648,-2.7956,-2.9442,-3.1411,-3.289,-3.2833,-3.4076,-3.4873,0.0,-3.4392,-3.4545,-3.4611,-3.3901,-3.3581,-3.4117,-3.3888,-3.3798,-3.4263,-3.4085,-3.3985,-3.4134,-3.4055,-3.393,-3.3934,-3.4018,-3.4438,-3.5114,-3.5309,-3.5535,-3.5668,-3.5897,-3.5688,-3.4986,-3.4986,-3.5236,-3.5667,-3.593,-3.6516,-3.7327,-3.7849,-3.7935,-3.7779,-3.8802,-3.8868,-3.8302,-3.8794,-3.9082,-3.8863,-3.6928,-3.6184,-3.5889,-3.4707,-3.4379,-3.448,-3.448,-3.5179,-3.5996,-3.5513,-3.591,-3.6423,-3.6024,-3.571,-3.5471,-3.5514,-3.5486,-3.5624,-3.6468,-3.6624,-3.6706,-3.7203,-3.6861,-3.6343,-3.5969,-3.591,-3.578,-3.5424,-3.5654,-3.5906,-3.6032,-3.4965,-3.3987,-3.3476,-3.3764,-3.3764,-3.3172,-3.2007,-3.1273,-3.1231,-3.1273,-3.1332,-3.1332,-3.1851,-3.2202,-3.2373,-3.2429,-3.2575,-3.2727,-3.2145,-3.1839,-3.1881,-3.08,-3.0565,-3.1184,-3.0818,-3.0959,-1.9349,0.0,0.0,-2.2673,-2.4317,-2.5883,-2.7688,-2.9495,-3.1066,-3.1977,-3.3452,-3.4458,-3.4218,-3.472,0.0,-3.46,-3.4414,-3.4447,-3.4775,-3.3573,-3.2928,-3.3731,-3.296,-3.2936,-3.4234,-3.4181,-3.4414,-3.4969,-3.4564,-3.4387,-3.4502,-3.466,-3.5032,-3.5669,-3.6241,-3.6393,-3.6186,-3.6532,-3.6327,-3.5504,-3.5684,-3.6267,-3.7165,-3.7714,-3.8757,-4.008,-3.9591,-3.9329,-3.9328,-3.9789,-3.9616,-3.9102,-3.9696,-3.9952,-3.9681,-3.7557,-3.6705,-3.6465,-3.4939,-3.487,-3.5385,-3.5385,-3.6295,-3.724,-3.6661,-3.6774,-3.7052,-3.672,-3.6612,-3.662,-3.6827,-3.7224,-3.7765,-3.8619,-3.8691,-3.8761,-3.9389,-3.8815,-3.8104,-3.7887,-3.7279,-3.6708,-3.6476,-3.6272,-3.6346,-3.6971,-3.6529,-3.5763,-3.4758,-3.5465,-3.5696,-3.472,-3.3488,-3.2679,-3.2573,-3.2574,-3.2566,-3.2566,-3.3186,-3.3607,-3.3688,-3.3795,-3.391,-3.4049,-3.3455,-3.3156,-3.3219,-3.1938,-3.1711,-3.2473,-3.1884,-3.2007,0.0,0.0,-2.3093,-2.5989,-2.8338,-3.0007,-3.0958,-3.2803,-3.4403,-3.4336,-3.4491,-3.4655,-3.5081,-3.4065,-3.3453,-3.4371,-3.413,-3.3825,-3.3835,-3.259,-3.1792,-3.2211,-3.1398,-3.1511,0.0,-3.3302,-3.3204,-3.3694,-3.3695,-3.3969,-3.4392,-3.5209,-3.5669,-3.5669,-3.7309,-3.7475,-3.6186,-3.6961,-3.6746,-3.5519,-3.6148,-3.6477,-3.6618,-3.8528,-4.024,-4.166,-4.162,-4.1287,-4.077,-4.0888,-4.0522,-3.9901,-4.0037,-4.007,-3.9986,-3.9175,-3.8466,-3.7638,-3.6101,-3.6158,-3.6939,-3.6939,-3.7558,-3.8247,-3.823,-3.7701,-3.7257,-3.8122,-3.8131,-3.8111,-3.8965,-3.9611,-4.0177,-4.0909,-4.1487,-4.1845,-4.1794,-4.2121,-4.2197,-4.1422,-4.0542,-3.9711,-3.8918,-3.82,-3.7507,-3.6827,-3.74,-3.8116,-3.8652,-3.7963,-3.6877,-3.5346,-3.4844,-3.4308,-3.3522,-3.3449,-3.3449,-3.3449,-3.3607,-3.3688,-3.3715,-3.4012,-3.4197,-3.4197,-3.3721,-3.3488,-3.3488,-3.2923,-3.2672,-3.2691,-3.2672,-3.2703,0.0,0.0,-2.4977,-2.8572,-3.0369,-3.1902,-3.3925,-3.5261,-3.578,-3.5113,-3.448,-3.3497,-3.1728,-3.1531,-3.1629,-3.1662,-3.259,-3.342,-3.3748,-3.3093,-3.2652,-3.2709,-3.2355,0.0,0.0,0.0,0.0,-3.5195,-3.4577,-3.4567,-3.5495,-3.5611,-3.6168,-3.7049,-3.7368,-3.7551,-3.7627,-3.7476,-3.7195,-3.6776,-3.7962,-3.8601,-3.8882,-4.0278,-4.1565,-4.2518,-4.2081,-4.1791,-4.166,-4.151,-4.1067,-4.0531,-4.0879,-4.1047,-4.0961,-4.0214,-3.979,-3.9407,-3.7803,-3.7483,-3.775,-3.7814,-3.8448,-3.9129,-3.8911,-3.9042,-3.9312,-3.9394,-3.9372,-3.9444,-3.975,-4.0201,-4.0634,-4.0888,-4.1275,-4.1609,-4.1576,-4.1723,-4.1792,-4.1575,-4.0911,-4.0271,-4.0049,-3.9397,-3.8976,-3.9245,-3.8126,-3.7753,-3.9053,-3.7984,-3.711,-3.7098,-3.6563,-3.604,-3.5781,-3.5305,-3.5064,-3.5099,-3.4689,-3.4439,-3.4508,-3.4591,-3.4651,-3.4651,-3.4605,-3.4565,-3.4565,-3.3884,-3.414,-3.5209,-3.4668,-3.5044,-2.3505,-2.5496,-2.7593,-3.1773,-3.3358,-3.4361,-3.6067,-3.6588,-3.626,-3.4753,-3.3278,-3.1586,-2.9368,-2.891,-2.8975,-2.9368,-3.0472,-3.1775,-3.336,-3.3064,-3.2924,-3.369,-3.3588,0.0,0.0,0.0,0.0,-3.5391,-3.5195,-3.5247,-3.5796,-3.6439,-3.7285,-3.8225,-3.8638,-3.8957,-3.9309,-3.8647,-3.8333,-3.8348,-3.9247,-4.0169,-4.1103,-4.1837,-4.2613,-4.3403,-4.2692,-4.2282,-4.2129,-4.1902,-4.1378,-4.0849,-4.1321,-4.1481,-4.1473,-4.1041,-4.0891,-4.0715,-3.9093,-3.8822,-3.9136,-3.9197,-3.9834,-4.049,-4.0285,-4.0453,-4.0754,-4.1096,-4.0991,-4.089,-4.1449,-4.1757,-4.1915,-4.1948,-4.2419,-4.2835,-4.2848,-4.3132,-4.3274,-4.3036,-4.2377,-4.1763,-4.1502,-4.0611,-4.0008,-4.0284,-3.8976,-3.8426,-3.9687,-3.892,-3.8253,-3.8252,-3.7764,-3.7357,-3.7084,-3.6641,-3.6384,-3.643,-3.6001,-3.5739,-3.578,-3.5837,-3.5723,-3.542,-3.553,-3.545,-3.5145,-3.4999,-3.549,-3.6525,-3.6323,-3.6814,-2.5007,-2.7776,-3.0756,-3.5402,-3.7003,-3.7309,-3.7309,-3.6894,-3.5823,-3.3377,-3.0974,-2.8986,0.0,0.0,-2.5797,-2.7809,-2.8225,-2.9498,-3.3058,-3.2804,-3.3114,0.0,0.0,0.0,0.0,0.0,0.0,-3.4533,0.0,-3.5909,-3.5489,-3.7648,-3.9007,-3.9264,-4.0867,-4.1503,-4.1085,-4.0401,-4.0063,-4.0107,-4.0156,-4.1167,-4.3059,-4.3059,-4.3512,-4.4259,-4.3536,-4.2888,-4.2342,-4.2036,-4.1522,-4.0943,-4.1393,-4.1569,-4.1587,-4.1735,-4.1796,-4.1566,-4.0088,-4.0192,-4.0953,-4.0953,-4.1551,-4.2216,-4.2292,-4.1855,-4.1669,-4.3216,-4.2936,-4.2554,-4.4017,-4.4189,-4.4003,-4.4116,-4.4774,-4.5426,-4.5555,-4.6115,-4.6445,-4.5735,-4.4894,-4.4044,-4.3147,-4.183,-4.0688,-3.9974,-3.9908,-4.0083,-4.0596,-4.0664,-4.014,-3.8731,-3.8584,-3.831,-3.7601,-3.7507,-3.7469,-3.7469,-3.7431,-3.7412,-3.7412,-3.7547,-3.7224,-3.6387,-3.6495,-3.6165,-3.5343,-3.6233,-3.6687,-3.6744,-3.7578,-3.7993,-2.5763,-2.9022,-3.2381,-3.496,-3.6016,-3.6326,-3.6326,-3.5113,-3.33,-3.0898,-2.8484,-2.6299,0.0,0.0,0.0,-2.8839,-3.0892,0.0,-3.6141,-3.6807,0.0,0.0,0.0,-3.7371,-3.714,-3.7871,0.0,0.0,-3.6497,-3.6688,-3.7983,-3.9472,-4.0485,-4.0952,-4.1579,-4.1908,-4.1726,-4.1586,-4.1277,-4.1009,-4.1853,-4.2635,-4.3376,-4.3781,-4.4179,-4.4463,-4.3703,-4.3141,-4.2808,-4.2554,-4.2184,-4.1888,-4.236,-4.2595,-4.2709,-4.2709,-4.2824,-4.2903,-4.2523,-4.2091,-4.1736,-4.1854,-4.2037,-4.2387,-4.34,-4.3552,-4.3721,-4.5132,-4.5348,-4.5318,-4.5811,-4.5482,-4.5196,-4.5848,-4.5749,-4.5637,-4.6246,-4.6078,-4.5971,-4.658,-4.5639,-4.4298,-4.2799,-4.1751,-4.1086,-4.0952,-4.0421,-4.0055,-4.0083,-4.0098,-3.9996,-3.9715,-3.9697,-3.9622,-3.9432,-3.8823,-3.8442,-3.8441,-3.789,-3.7585,-3.7622,-3.7658,-3.758,-3.7424,-3.7441,-3.7379,-3.7217,-3.7447,-3.7885,-3.8463,-3.8741,-3.9215,-2.7497,-3.041,-3.3244,-3.55,-3.5834,-3.5628,-3.5359,-3.3661,-3.1313,-2.8484,-2.6332,0.0,0.0,0.0,0.0,0.0,0.0,0.0,-3.6634,-3.7653,-3.8421,0.0,-4.0073,0.0,-3.9568,-4.0433,-4.0886,0.0,-3.917,-3.8737,-3.9536,-4.0902,-4.175,-4.2184,-4.2695,-4.3087,-4.319,-4.2849,-4.2746,-4.2832,-4.3101,-4.3512,-4.3972,-4.4293,-4.4497,-4.4553,0.0,-4.3591,-4.3044,-4.3458,-4.3085,-4.2374,-4.3186,-4.3377,-4.3196,-4.3615,-4.3597,-4.3431,-4.3814,-4.3415,-4.2716,-4.279,-4.3081,-4.3538,-4.4327,-4.4821,-4.5369,-4.6517,-4.6635,-4.6531,-4.702,-4.6563,-4.6103,-4.6735,-4.6802,-4.6888,-4.7408,-4.7193,-4.6826,-4.6701,-4.6013,-4.4938,-4.3301,-4.2381,-4.1799,-4.1512,-4.0831,-4.0342,-4.026,-4.0119,-4.0082,-4.0211,-4.0229,-4.0419,-4.0837,-4.0432,-4.0317,-4.0705,-3.995,-3.95,-3.9531,-3.9196,-3.8859,-3.8521,-3.8469,-3.8285,-3.793,-3.8293,-3.8731,-3.9234,-3.9663,-4.0135,-2.9469,-3.1458,-3.3633,-3.6115,-3.583,-3.473,-3.4246,-3.211,-2.9441,-2.633,0.0,-2.3205,-2.2092,0.0,-2.4755,-2.6657,0.0,-3.1681,-3.6519,-3.7652,-3.8965,-4.1476,-4.2598,-4.2879,-4.2252,-4.2666,-4.3141,-4.379,-4.2745,-4.1792,-4.1054,-4.2203,-4.2986,-4.3274,-4.4066,-4.4592,-4.4811,-4.4278,-4.425,-4.4671,-4.4052,-4.4073,-4.4587,-4.4587,-4.4587,-4.4587,0.0,0.0,-4.335,-4.4467,-4.4076,-4.2933,-4.4025,-4.407,-4.3652,-4.4455,-4.4254,-4.3686,-4.4435,-4.432,-4.3781,-4.3781,-4.4297,-4.4976,-4.5263,-4.5867,-4.6672,-4.7627,-4.7415,-4.7122,-4.7946,-4.7561,-4.7005,-4.7343,-4.79,-4.8391,-4.8564,-4.8534,-4.7972,-4.6309,-4.6144,-4.5794,-4.4293,-4.3465,-4.278,-4.2039,-4.1338,-4.0848,-4.0742,-4.0467,-4.0319,-4.0453,-4.0468,-4.0824,-4.1705,-4.1763,-4.213,-4.2999,-4.2338,-4.1976,-4.2073,-4.1424,-4.0643,-3.9761,-3.9688,-3.9232,-3.8375,-3.9061,-3.948,-3.9605,-4.0481,-4.0846,-2.9502,-3.1469,-3.363,-3.4548,-3.3793,-3.2675,-3.2238,-2.9525,0.0,0.0,0.0,-2.2903,-2.3159,-2.4354,0.0,-3.0514,0.0,0.0,0.0,0.0,-4.2446,0.0,0.0,0.0,0.0,0.0,0.0,0.0,0.0,0.0,-4.4557,-4.4285,-4.4526,-4.5227,-4.5405,-4.5508,-4.5624,-4.6028,-4.5728,-4.4688,-4.511,-4.5048,-4.4587,-4.4587,-4.4587,-4.4587,-4.4587,0.0,-4.462,-4.4935,-4.5044,-4.4989,-4.5271,-4.5349,-4.5388,-4.5535,-4.5096,-4.4525,-4.4706,-4.4722,-4.4665,-4.4665,-4.4791,-4.5263,-4.6715,-4.7284,-4.7664,-4.8568,-4.8781,-4.8786,-4.9033,-4.8558,-4.8227,-4.906,-4.889,-4.8556,-4.8583,-4.8226,-4.7357,-4.569,-4.6044,-4.6339,-4.5449,-4.4649,-4.3892,-4.3216,-4.2393,-4.1652,-4.1038,-4.0742,-4.0657,-4.0801,-4.0811,-4.0878,-4.1053,-4.1073,-4.1402,-4.2152,-4.2067,-4.2299,-4.3028,-4.2912,-4.2449,-4.1567,-4.1526,-4.1119,-4.0306,-4.0451,-4.0535,-4.0568,-4.1443,-4.1477,-3.1001,-3.1997,-3.3114,-3.372,-3.2485,-3.0864,-2.9906,0.0,0.0,0.0,0.0,-2.3246,-2.3767,0.0,0.0,0.0,0.0,0.0,0.0,0.0,0.0,0.0,0.0,0.0,0.0,0.0,0.0,0.0,0.0,0.0,-4.6669,-4.6382,-4.6278,-4.6269,-4.6253,-4.6496,-4.6914,-4.6434,-4.63,-4.6384,-4.5537,-4.5128,-4.5162,-4.4756,-4.4626,-4.4737,-4.4944,0.0,-4.5794,-4.6529,-4.6859,-4.6919,-4.6958,-4.676,-4.6488,-4.6488,-4.6049,-4.5423,-4.5493,-4.5545,-4.5558,-4.5134,-4.5611,-4.6511,-4.7426,-4.8032,-4.8546,-4.9052,-4.923,-4.9276,-4.9464,-4.9273,-4.9183,-4.9776,-4.9708,-4.93,-4.8424,-4.8365,-4.7843,-4.5723,-4.6129,-4.6564,-4.5742,-4.5015,-4.445,-4.4122,-4.3031,-4.2128,-4.1779,-4.1259,-4.0909,-4.0953,-4.0953,-4.1147,-4.1595,-4.1634,-4.1976,-4.278,-4.2825,-4.3016,-4.3444,-4.3479,-4.3305,-4.2883,-4.2841,-4.2641,-4.2272,-4.218,-4.2188,-4.2276,-4.2694,-4.2427,-3.288,-3.3114,-3.3143,-3.3627,-3.1841,-2.9546,-2.8126,-2.6105,0.0,0.0,-2.3125,-2.3729,-2.43,0.0,0.0,0.0,0.0,0.0,0.0,0.0,0.0,0.0,0.0,0.0,0.0,0.0,0.0,0.0,0.0,0.0,-4.8158,-4.8167,-4.7907,-4.7329,-4.7235,-4.7489,-4.8225,-4.7074,-4.6921,-4.7708,-4.6004,-4.5309,-4.5546,-4.4953,-4.4776,-4.5015,-4.5528,0.0,0.0,-4.8218,-4.872,-4.8718,-4.8757,-4.8394,-4.7903,-4.77,-4.7316,-4.6855,-4.6541,-4.6498,-4.6471,-4.5857,-4.6576,-4.7667,-4.7783,-4.8334,-4.8926,-4.922,-4.9209,-4.9208,-4.9596,-4.975,-4.9843,-5.0108,-5.0168,-4.9726,-4.8233,-4.8354,-4.8087,-4.5898,-4.6119,-4.648,-4.58,-4.5293,-4.4876,-4.4534,-4.3451,-4.2539,-4.2168,-4.1523,-4.1085,-4.1028,-4.1017,-4.1304,-4.1986,-4.2045,-4.2415,-4.3292,-4.3509,-4.3719,-4.3895,-4.4126,-4.4172,-4.3977,-4.3924,-4.3818,-4.363,-4.3517,-4.3519,-4.3639,-4.3805,-4.347,-3.4276,-3.4744,-3.4762,-3.4428,-3.1838,-2.9039,-2.7619,0.0,0.0,-2.3107,-2.3362,-2.3967,-2.4914,-2.6109,0.0,0.0,0.0,0.0,0.0,0.0,0.0,0.0,0.0,0.0,0.0,0.0,0.0,0.0,0.0,0.0,0.0,-4.9011,-4.9075,-4.9094,-4.8559,-4.8606,-4.935,-4.9214,-4.8498,-4.7261,-4.7056,-4.6271,-4.508,-4.5012,-4.5213,-4.5649,-4.643,0.0,0.0,-4.9271,-4.9967,-5.0383,-5.0523,-5.0548,-5.0464,-4.9746,-4.9509,-4.9363,-4.7955,-4.7472,-4.7488,-4.7564,-4.7653,-4.7783,-4.7816,-4.797,-4.8359,-4.9102,-4.8901,-4.8683,-4.9485,-4.9871,-5.0108,-5.0325,-4.9822,-4.9083,-4.8183,-4.7582,-4.6896,-4.5866,-4.5838,-4.5984,-4.5963,-4.5975,-4.5481,-4.4012,-4.3674,-4.3019,-4.1418,-4.1144,-4.1105,-4.1084,-4.1094,-4.1124,-4.1202,-4.1202,-4.1573,-4.2451,-4.3255,-4.4055,-4.4832,-4.5636,-4.5695,-4.4894,-4.4871,-4.4477,-4.3697,-4.3671,-4.3671,-4.372,-4.4501,-4.4401,-3.3155,-3.3737,-3.3697,-3.3516,-3.146,-2.8974,-2.742,0.0,0.0,-2.3409,-2.3692,-2.44,-2.5445,-2.663,-2.7729,0.0,0.0,0.0,0.0,0.0,0.0,0.0,0.0,0.0,0.0,0.0,0.0,0.0,0.0,0.0,0.0,-5.1162,-5.027,-4.9424,-4.9182,-4.9212,-4.9488,-4.9044,-4.8514,-4.7899,-4.6977,-4.6225,-4.5644,-4.5508,-4.5823,-4.6564,-4.7027,0.0,0.0,-5.0289,-5.1133,-5.2183,-5.1746,-5.1643,-5.1669,-5.0839,-5.0324,-4.9806,-4.8765,-4.8463,-4.833,-4.742,-4.7852,-4.8707,-4.8707,-4.8465,-4.8412,-4.93,-4.907,-4.8737,-4.9698,-5.0108,-5.0302,-5.0435,-5.0232,-4.9699,-4.8413,-4.7933,-4.7381,-4.6073,-4.593,-4.6021,-4.6055,-4.6578,-4.6782,-4.614,-4.6053,-4.5614,-4.4393,-4.3317,-4.2454,-4.1947,-4.1416,-4.1101,-4.1101,-4.1101,-4.1258,-4.1609,-4.2932,-4.3866,-4.4206,-4.5046,-4.5592,-4.5787,-4.528,-4.5099,-4.5265,-4.5252,-4.5263,-4.5269,-4.5621,-4.5311,-3.2327,-3.3121,-3.332,-3.309,-3.1295,-2.9075,0.0,0.0,0.0,-2.3545,-2.3718,-2.4269,-2.5171,-2.6449,-2.7619,-2.8123,0.0,-3.0449,0.0,0.0,0.0,0.0,0.0,0.0,0.0,0.0,0.0,0.0,0.0,0.0,0.0,-5.2775,-5.1593,-5.0249,-4.9847,-4.9683,-4.9683,-4.9152,-4.8716,-4.8477,-4.7232,-4.6533,-4.6439,-4.6048,-4.6347,-4.7262,0.0,0.0,0.0,-5.1417,-5.2136,-5.2972,-5.2622,-5.2444,-5.2227,-5.1414,-5.1157,-5.0971,-4.9466,-4.903,-4.8963,-4.7847,-4.7997,-4.8765,-4.9252,-4.8912,-4.8512,-4.9476,-4.9435,-4.9252,-5.003,-5.0325,-5.0478,-5.0523,-5.0603,-5.0297,-4.8952,-4.8505,-4.799,-4.6599,-4.6227,-4.6154,-4.6133,-4.6733,-4.7221,-4.7215,-4.7213,-4.6908,-4.6034,-4.4844,-4.3747,-4.2888,-4.2009,-4.1384,-4.115,-4.113,-4.1111,-4.1091,-4.2746,-4.3583,-4.3329,-4.4643,-4.5543,-4.5914,-4.5562,-4.5696,-4.6295,-4.6295,-4.6303,-4.6308,-4.6308,-4.5976,-3.2359,-3.372,-3.4489,-3.3504,-3.1734,-2.9659,0.0,0.0,-2.3737,-2.3446,-2.3326,-2.3368,-2.3821,-2.5328,-2.6732,-2.7425,-2.9038,0.0,0.0,0.0,0.0,0.0,0.0,0.0,0.0,0.0,0.0,0.0,0.0,0.0,0.0,-5.3391,-5.2967,-5.1991,-5.071,-5.0011,-5.0011,-4.9993,-4.9597,-4.8821,-4.8062,-4.754,-4.7292,-4.6537,-4.6724,0.0,0.0,0.0,0.0,-5.2637,-5.288,-5.2391,-5.3185,-5.3022,-5.2286,-5.149,-5.2364,-5.3479,-5.0238,-4.915,-4.9211,-4.9257,-4.8307,-4.7438,-4.9154,-4.9089,-4.8607,-4.9625,-5.0038,-5.0236,-5.0438,-5.0562,-5.0584,-5.0586,-5.0741,-5.0683,-4.987,-4.9168,-4.8409,-4.7464,-4.6755,-4.6273,-4.621,-4.6261,-4.6308,-4.6308,-4.6308,-4.5994,-4.5132,-4.4995,-4.4648,-4.3789,-4.291,-4.2051,-4.1269,-4.1191,-4.1172,-4.1094,-4.2734,-4.3318,-4.2458,-4.4919,-4.5898,-4.5039,-4.5859,-4.6289,-4.6308,-4.6308,-4.6308,-4.6308,-4.6308,-4.6308,-2.9213,-3.0257,-3.0849,-3.0913,-2.9642,-2.7952,-2.6544,0.0,-2.4296,-2.3396,-2.3778,-2.4468,-2.497,-2.66,-2.84,-2.9969,-3.1454,0.0,0.0,0.0,0.0,0.0,0.0,0.0,0.0,0.0,0.0,0.0,0.0,0.0,0.0,-5.3304,-5.2718,-5.1417,-5.0952,-5.0668,-5.0564,-5.0564,-5.0363,-4.9886,-4.9109,-4.8431,-4.7844,-4.7384,0.0,0.0,0.0,0.0,0.0,-5.1817,-5.2354,-5.323,-5.2858,-5.2991,-5.3235,-5.2475,-5.2568,-5.2883,-5.1332,-5.0586,-5.031,-5.0372,-4.9768,-4.9143,-4.98,-4.9371,-4.877,-4.9234,-4.9866,-5.0416,-5.0542,-5.0585,-5.0606,-5.0664,-5.0779,-5.0694,-4.9931,-4.9209,-4.8463,-4.7669,-4.6854,-4.6288,-4.6264,-4.6777,-4.7185,-4.7185,-4.7692,-4.7983,-4.7703,-4.7154,-4.6668,-4.6383,-4.5582,-4.4236,-4.2187,-4.1523,-4.1426,-4.1953,-4.3066,-4.3847,-4.4158,-4.496,-4.5566,-4.5879,-4.5566,-4.5703,-4.6308,-4.6308,-4.6308,-4.6308,-4.6303,-4.6295,0.0,-2.7693,-2.8348,-2.9102,-2.8288,0.0,0.0,0.0,-2.5066,-2.4255,-2.4675,-2.5337,-2.5849,-2.7318,-2.9025,-3.0695,-3.2298,0.0,0.0,0.0,0.0,0.0,0.0,0.0,0.0,0.0,0.0,0.0,0.0,0.0,0.0,0.0,-5.383,-5.2383,-5.1713,-5.1314,-5.1105,-5.1174,-5.0954,-5.0419,-4.9663,-4.8969,-4.8407,-4.791,0.0,0.0,0.0,0.0,0.0,-5.2005,-5.2379,-5.2826,-5.29,-5.2939,-5.2884,-5.2489,-5.2389,-5.239,-5.1381,-5.0826,-5.0618,-5.0662,-5.0437,-5.0191,-5.0347,-4.9934,-4.9453,-4.963,-5.008,-5.0565,-5.0624,-5.0664,-5.0701,-5.0795,-5.091,-5.0855,-5.0452,-4.979,-4.9028,-4.824,-4.7395,-4.67,-4.6362,-4.6758,-4.7213,-4.7545,-4.8052,-4.8521,-4.8814,-4.8415,-4.808,-4.805,-4.7308,-4.6139,-4.4506,-4.33,-4.2715,-4.2871,-4.3711,-4.4297,-4.4492,-4.5137,-4.5586,-4.5801,-4.5605,-4.5762,-4.6308,-4.6308,-4.6308,-4.6305,-4.629,-4.63,0.0,0.0,0.0,0.0,0.0,0.0,0.0,0.0,0.0,-2.5857,-2.5893,-2.6168,-2.6678,-2.7767,-2.9022,-3.0363,0.0,0.0,0.0,0.0,0.0,0.0,0.0,0.0,0.0,0.0,0.0,0.0,0.0,0.0,0.0,0.0,-5.5803,-5.4291,-5.284,-5.1958,-5.179,-5.1892,-5.1527,-5.0713,-4.9916,-4.9396,-4.914,-4.8239,0.0,0.0,0.0,0.0,0.0,-5.2917,-5.2771,-5.1714,-5.3088,-5.2809,-5.1649,-5.1837,-5.2039,-5.202,-5.0678,-5.0291,-5.0418,-5.0368,-5.0471,-5.0651,-5.0845,-5.0696,-5.0478,-5.0584,-5.0644,-5.0645,-5.072,-5.0757,-5.0849,-5.0977,-5.1054,-5.1141,-5.1277,-5.0721,-4.9954,-4.9131,-4.8274,-4.743,-4.6616,-4.6475,-4.6749,-4.7553,-4.7689,-4.7978,-4.8798,-4.8954,-4.899,-4.8993,-4.8326,-4.7858,-4.778,-4.6067,-4.4687,-4.3926,-4.4648,-4.4765,-4.4004,-4.5586,-4.6074,-4.5195,-4.5918,-4.6308,-4.6308,-4.6308,-4.6305,-4.6303,-4.63,-4.63,-2.5193,0.0,-2.4956,-2.6708,-2.6343,0.0,0.0,0.0,-2.6523,-2.6056,0.0,0.0,-2.9457,-3.0031,0.0,0.0,0.0,0.0,0.0,0.0,0.0,0.0,0.0,0.0,0.0,0.0,0.0,0.0,0.0,0.0,0.0,0.0,-5.5065,-5.4036,-5.3573,-5.3353,-5.3362,-5.2808,-5.2605,-5.2803,-5.1389,-5.0659,-5.0556,-4.9084,0.0,0.0,0.0,0.0,-5.2252,-5.2029,-5.2438,-5.3162,-5.2344,-5.2316,-5.2663,-5.2165,-5.2219,-5.2367,-5.1419,-5.1258,-5.1374,-5.0852,-5.0755,-5.085,-5.0952,-5.0913,-5.0866,-5.0902,-5.093,-5.0991,-5.0988,-5.1024,-5.1035,-5.1063,-5.1171,-5.1261,-5.1299,-5.0683,-5.0067,-4.9856,-4.9118,-4.8473,-4.831,-4.8252,-4.8271,-4.8486,-4.8525,-4.8837,-4.9677,-4.9813,-5.0067,-5.0711,-5.0614,-5.0243,-4.9575,-4.6736,-4.5202,-4.566,-4.5873,-4.6205,-4.6655,-4.7729,-4.7886,-4.7008,-4.6539,-4.6305,-4.6305,-4.6305,-4.6303,-4.6297,-4.6306,-4.63,-2.6121,-2.5398,-2.4861,-2.6083,-2.6032,-2.5857,-2.6718,0.0,0.0,0.0,0.0,0.0,0.0,0.0,0.0,0.0,0.0,0.0,0.0,0.0,0.0,0.0,0.0,0.0,0.0,0.0,0.0,0.0,0.0,0.0,0.0,0.0,-5.5306,-5.4417,-5.4359,-5.434,-5.4271,-5.3566,-5.312,-5.2987,-5.2118,-5.1342,-5.0602,-4.9676,-4.9565,0.0,0.0,0.0,-5.1791,-5.2532,-5.2953,-5.3142,-5.3094,-5.3213,-5.3375,-5.3145,-5.2977,-5.2845,-5.2549,-5.2314,-5.1997,-5.1307,-5.1092,-5.1152,-5.1171,-5.1171,-5.1161,-5.1069,-5.1067,-5.1087,-5.1092,-5.1114,-5.115,-5.1189,-5.1245,-5.1301,-5.1346,-5.1008,-5.0575,-5.0184,-4.9716,-4.9286,-4.8915,-4.8818,-4.8798,-4.8798,-4.8798,-4.9111,-4.9989,-5.0106,-5.0438,-5.1316,-5.1394,-5.1219,-5.075,-4.8623,-4.7377,-4.7445,-4.7093,-4.7113,-4.7581,-4.805,-4.8089,-4.7603,-4.6744,-4.6293,-4.6293,-4.6293,-4.6293,-4.6293,-4.6306,-4.63,-2.7342,-2.675,-2.5974,-2.6317,-2.6377,-2.6628,-2.7795,0.0,0.0,0.0,0.0,0.0,0.0,0.0,0.0,0.0,0.0,0.0,0.0,0.0,0.0,0.0,0.0,0.0,0.0,0.0,0.0,0.0,0.0,0.0,0.0,0.0,0.0,-5.5039,-5.489,-5.4867,-5.4925,-5.4199,-5.3422,-5.2602,-5.2511,-5.1714,-5.0354,-5.0172,-5.0207,0.0,0.0,0.0,-5.1492,-5.3546,-5.3764,-5.2905,-5.4218,-5.4375,-5.3918,-5.4213,-5.388,-5.3298,-5.346,-5.3005,-5.2241,-5.1609,-5.1408,-5.1394,-5.1406,-5.1398,-5.1394,-5.1349,-5.1253,-5.1187,-5.13,-5.1294,-5.1232,-5.1293,-5.133,-5.1328,-5.1385,-5.1394,-5.118,-5.0438,-5.0301,-5.0067,-4.9325,-4.9208,-4.9208,-4.9208,-4.9208,-4.9462,-5.0204,-5.0301,-5.0575,-5.1316,-5.1394,-5.1394,-5.1394,-5.0711,-4.9989,-4.9247,-4.8427,-4.7978,-4.7978,-4.7975,-4.7916,-4.7783,-4.6944,-4.6495,-4.6495,-4.6495,-4.6436,-4.63,-4.6436,-4.6436,-2.7259,-2.776,-2.8482,-2.8387,-2.7702,-2.7363,-2.8498,0.0,0.0,0.0,0.0,0.0,0.0,0.0,0.0,0.0,0.0,0.0,0.0,0.0,0.0,0.0,0.0,0.0,0.0,0.0,0.0,0.0,0.0,0.0,0.0,0.0,0.0,-5.5001,-5.4351,-5.4667,-5.6039,-5.4574,-5.3738,-5.357,-5.2883,-5.2212,-5.1532,-5.0806,-5.1068,0.0,0.0,-5.3025,-5.423,-5.3954,-5.4115,-5.4485,-5.4108,-5.4063,-5.4235,-5.434,-5.4048,-5.3532,-5.2908,-5.2191,-5.1551,-5.144,-5.1405,-5.141,-5.1394,-5.1394,-5.1543,-5.2259,-5.1913,-5.1521,-5.2262,-5.1904,-5.1372,-5.1374,-5.1372,-5.1385,-5.1398,-5.1394,-5.1355,-5.1238,-5.1199,-5.116,-5.1023,-5.1004,-5.1004,-5.1004,-5.1004,-5.1043,-5.118,-5.1199,-5.1258,-5.1394,-5.1394,-5.1394,-5.1394,-5.1277,-5.1141,-5.1004,-5.0184,-4.9716,-4.9716,-4.9712,-4.9364,-4.8623,-4.7822,-4.7393,-4.7393,-4.7393,-4.7022,-4.6319,-4.7061,-4.7002,-2.8162,-2.8526,-2.9018,-2.9164,-2.8823,-2.8618,-2.9403,0.0,0.0,0.0,0.0,0.0,0.0,0.0,0.0,0.0,0.0,0.0,0.0,0.0,0.0,0.0,0.0,0.0,0.0,0.0,0.0,0.0,0.0,0.0,0.0,0.0,0.0,0.0,-5.4131,-5.4373,-5.5336,-5.4568,-5.4259,-5.4444,-5.3832,-5.3184,-5.254,-5.2315,-5.2324,-5.2486,0.0,-5.3436,-5.391,-5.4494,-5.476,-5.4857,-5.4995,-5.5172,-5.5339,-5.5385,-5.5292,-5.4999,-5.4216,-5.3428,-5.2675,-5.2244,-5.1772,-5.1398,-5.1396,-5.1738,-5.227,-5.3155,-5.2778,-5.23,-5.3188,-5.2768,-5.2097,-5.2097,-5.1746,-5.1531,-5.1999,-5.2097,-5.2097,-5.2097,-5.2487,-5.2507,-5.155,-5.1785,-5.1941,-5.1472,-5.1394,-5.1394,-5.1394,-5.1394,-5.1394,-5.1394,-5.1394,-5.1394,-5.1394,-5.1824,-5.1707,-5.077,-5.0321,-5.0106,-5.0106,-4.9657,-4.9423,-4.9501,-4.8681,-4.8037,-4.7608,-4.7608,-4.7159,-4.63,-4.671,-4.6671,-2.922,-2.9329,-2.9295,-2.9329,0.0,-2.9978,-3.0549,0.0,0.0,0.0,0.0,0.0,0.0,0.0,0.0,0.0,0.0,0.0,0.0,0.0,0.0,0.0,0.0,0.0,0.0,0.0,0.0,0.0,0.0,0.0,0.0,0.0,0.0,0.0,-5.4144,-5.4375,-5.4881,-5.4704,-5.4708,-5.4968,-5.4593,-5.4088,-5.341,-5.3603,-5.3448,-5.3044,-5.3723,-5.39,-5.3841,-5.517,-5.5479,-5.5184,-5.5862,-5.6164,-5.6238,-5.629,-5.6191,-5.5969,-5.5411,-5.4645,-5.3793,-5.2967,-5.2397,-5.1921,-5.1523,-5.2155,-5.3147,-5.3815,-5.367,-5.3464,-5.4128,-5.367,-5.2995,-5.2995,-5.2487,-5.2195,-5.2858,-5.2995,-5.2995,-5.2995,-5.3385,-5.3264,-5.1921,-5.2097,-5.2175,-5.1492,-5.1394,-5.1394,-5.1394,-5.1394,-5.1472,-5.1687,-5.1707,-5.1785,-5.1999,-5.2624,-5.2351,-5.0809,-5.0516,-5.0321,-5.0106,-4.9657,-4.9638,-5.0087,-4.9442,-4.8798,-4.8193,-4.7978,-4.7549,-4.6885,-4.669,-4.6589,-3.0201,-3.0377,-3.0272,-2.9063,-2.9744,0.0,-3.215,-3.3234,0.0,-3.5522,0.0,0.0,0.0,0.0,0.0,0.0,0.0,0.0,0.0,0.0,0.0,0.0,0.0,0.0,0.0,0.0,0.0,0.0,0.0,0.0,0.0,0.0,0.0,0.0,0.0,-5.4988,-5.6064,-5.5266,-5.4886,-5.4914,-5.4886,-5.4566,-5.4058,-5.4058,-5.4237,-5.4553,-5.4611,-5.5109,-5.5891,-5.6007,-5.6094,-5.6121,-5.618,-5.6218,-5.6302,-5.6297,-5.5861,-5.5269,-5.5223,-5.4663,-5.385,-5.2975,-5.3193,-5.3515,-5.1896,-5.2565,-5.3912,-5.3971,-5.4537,-5.5127,-5.5185,-5.4556,-5.3912,-5.3912,-5.3854,-5.3834,-5.3893,-5.3912,-5.3912,-5.3912,-5.3299,-5.2747,-5.2624,-5.1991,-5.146,-5.1414,-5.1394,-5.1394,-5.1394,-5.1394,-5.1707,-5.2526,-5.2605,-5.2936,-5.3737,-5.3873,-5.3502,-5.2565,-5.1746,-5.0945,-5.0126,-5.0828,-5.0867,-5.0106,-5.0048,-4.9989,-4.993,-4.9111,-4.8681,-4.8603,-4.7842,-4.745,-3.1183,-3.1628,-3.1788,-3.1106,-3.2102,0.0,0.0,-3.5677,-3.7352,-3.8425,-3.972,0.0,0.0,0.0,0.0,0.0,0.0,0.0,0.0,0.0,0.0,0.0,0.0,0.0,0.0,0.0,0.0,0.0,0.0,0.0,0.0,0.0,0.0,0.0,0.0,-5.5168,-5.582,-5.5499,-5.5416,-5.559,-5.5346,-5.5145,-5.4978,-5.5186,-5.5364,-5.5511,-5.5548,-5.5775,-5.6098,-5.6149,-5.618,-5.6204,-5.6253,-5.6283,-5.6308,-5.6396,-5.6242,-5.601,-5.6054,-5.5523,-5.4756,-5.4425,-5.4179,-5.3888,-5.3214,-5.3854,-5.481,-5.481,-5.5435,-5.6118,-5.6118,-5.5454,-5.481,-5.481,-5.4381,-5.4147,-5.4693,-5.4786,-5.4738,-5.4738,-5.4923,-5.4722,-5.3684,-5.3645,-5.3587,-5.3093,-5.3014,-5.3014,-5.3014,-5.2947,-5.3052,-5.3459,-5.3502,-5.3854,-5.4732,-5.4303,-5.4088,-5.4303,-5.2995,-5.1824,-5.0945,-5.1219,-5.1238,-5.0906,-5.0906,-5.0633,-5.0106,-4.9774,-4.904,-4.793,-4.8164,-4.7637,-3.1958,-3.2244,-3.2286,0.0,0.0,0.0,-3.6963,-3.8587,-4.0141,-4.1323,-4.2353,0.0,0.0,0.0,0.0,0.0,0.0,0.0,0.0,0.0,0.0,0.0,0.0,0.0,0.0,0.0,0.0,0.0,0.0,0.0,0.0,0.0,0.0,0.0,0.0,-5.5455,-5.5789,-5.5789,-5.5884,-5.6065,-5.5769,-5.5649,-5.5668,-5.5923,-5.6033,-5.6029,-5.6098,-5.613,-5.6145,-5.618,-5.6218,-5.6246,-5.6308,-5.6349,-5.6368,-5.6457,-5.6504,-5.653,-5.6577,-5.6216,-5.5677,-5.539,-5.5084,-5.4728,-5.4166,-5.481,-5.565,-5.5376,-5.5923,-5.6606,-5.6606,-5.6157,-5.5708,-5.5708,-5.5259,-5.4986,-5.5548,-5.5636,-5.5611,-5.5606,-5.5861,-5.5737,-5.4585,-5.4605,-5.4605,-5.4055,-5.3922,-5.391,-5.391,-5.3758,-5.3799,-5.418,-5.448,-5.487,-5.5475,-5.4968,-5.4773,-5.5085,-5.372,-5.2571,-5.1781,-5.1489,-5.1322,-5.1265,-5.1265,-5.0855,-5.0017,-5.0017,-4.9367,-4.8163,-4.8485,-4.8069,-3.2602,-3.2126,0.0,0.0,0.0,0.0,-4.1132,-4.2019,-4.248,-4.4015,0.0,0.0,0.0,0.0,0.0,0.0,0.0,0.0,0.0,0.0,0.0,0.0,0.0,0.0,0.0,0.0,0.0,0.0,0.0,0.0,0.0,0.0,0.0,0.0,0.0,0.0,-5.618,-5.618,-5.6199,-5.6199,-5.6199,-5.6133,-5.5993,-5.6082,-5.6098,-5.6098,-5.6164,-5.6209,-5.6199,-5.6199,-5.6246,-5.6319,-5.6368,-5.643,-5.6498,-5.6491,-5.6536,-5.6586,-5.6586,-5.6586,-5.6445,-5.5575,-5.5884,-5.6274,-5.4556,-5.524,-5.6411,-5.5552,-5.5923,-5.6606,-5.6606,-5.6606,-5.6606,-5.6606,-5.6606,-5.6582,-5.6509,-5.6509,-5.6503,-5.6504,-5.5808,-5.5216,-5.5211,-5.4502,-5.393,-5.3923,-5.3816,-5.373,-5.373,-5.3553,-5.3746,-5.4614,-5.5482,-5.6005,-5.6005,-5.6005,-5.5637,-5.4769,-5.3892,-5.3132,-5.2528,-5.1651,-5.1141,-5.1008,-5.1008,-5.06,-4.9815,-4.9804,-4.9784,-4.9757,-4.8918,-4.8884,-3.3106,0.0,0.0,0.0,0.0,0.0,0.0,-4.3041,0.0,0.0,0.0,0.0,0.0,0.0,0.0,0.0,0.0,0.0,0.0,0.0,0.0,0.0,0.0,0.0,0.0,0.0,0.0,0.0,0.0,0.0,0.0,0.0,0.0,0.0,0.0,0.0,-5.4377,-5.4978,-5.5288,-5.5288,-5.5908,-5.6184,-5.6149,-5.6149,-5.6164,-5.6164,-5.619,-5.6232,-5.6258,-5.6328,-5.6349,-5.6368,-5.6441,-5.6484,-5.6517,-5.6542,-5.6187,-5.5693,-5.5695,-5.5683,-5.5636,-5.5384,-5.5884,-5.6508,-5.5981,-5.6196,-5.6547,-5.6294,-5.6391,-5.6606,-5.6606,-5.6606,-5.6606,-5.6606,-5.6606,-5.6582,-5.6509,-5.6497,-5.6504,-5.6503,-5.6293,-5.6074,-5.593,-5.5696,-5.55,-5.5403,-5.5333,-5.5278,-5.5136,-5.5184,-5.5281,-5.5379,-5.5752,-5.6005,-5.6005,-5.6005,-5.5889,-5.5637,-5.4803,-5.3688,-5.2265,-5.1423,-5.0965,-5.0927,-5.0927,-5.0811,-5.0578,-4.9957,-4.9323,-4.8682,-4.8995,-4.8571,-3.2558,0.0,0.0,0.0,0.0,0.0,0.0,0.0,0.0,0.0,0.0,0.0,0.0,0.0,0.0,0.0,0.0,0.0,0.0,0.0,0.0,0.0,0.0,0.0,0.0,0.0,0.0,0.0,0.0,0.0,0.0,0.0,0.0,0.0,0.0,0.0,-5.3643,-5.4167,-5.4419,-5.4439,-5.499,-5.5255,-5.5275,-5.5941,-5.6251,-5.6232,-5.6278,-5.6306,-5.6338,-5.6405,-5.6441,-5.6449,-5.6504,-5.6542,-5.6533,-5.6582,-5.6048,-5.5341,-5.5702,-5.5592,-5.5357,-5.5708,-5.6177,-5.6606,-5.6606,-5.6606,-5.6606,-5.6606,-5.6606,-5.6606,-5.6606,-5.6836,-5.7085,-5.7085,-5.7085,-5.7158,-5.7427,-5.7432,-5.7292,-5.6953,-5.6823,-5.6628,-5.6154,-5.6082,-5.6054,-5.5959,-5.6184,-5.6174,-5.5645,-5.5979,-5.6057,-5.5624,-5.569,-5.577,-5.577,-5.577,-5.577,-5.577,-5.494,-5.3976,-5.2935,-5.1879,-5.1119,-5.0764,-5.0745,-5.0571,-5.0223,-5.0049,-4.9481,-4.8623,-4.9451,-4.924,0.0,0.0,0.0,0.0,0.0,0.0,0.0,0.0,0.0,0.0,0.0,0.0,0.0,0.0,0.0,0.0,0.0,0.0,0.0,0.0,0.0,0.0,0.0,0.0,0.0,0.0,0.0,0.0,0.0,0.0,0.0,0.0,0.0,0.0,0.0,0.0,-5.3468,-5.3545,-5.3584,0.0,-5.3738,-5.3798,-5.3857,-5.5372,-5.6119,-5.6208,-5.6339,-5.6414,-5.6414,-5.6484,-5.6517,-5.6524,-5.6572,-5.6582,-5.6579,-5.6497,-5.5955,-5.5388,-5.6107,-5.5875,-5.5406,-5.6211,-5.6547,-5.6606,-5.6606,-5.6606,-5.6606,-5.6606,-5.6582,-5.6597,-5.6655,-5.7205,-5.7772,-5.7948,-5.7935,-5.8084,-5.878,-5.881,-5.8441,-5.7618,-5.7347,-5.6923,-5.6016,-5.5861,-5.588,-5.5863,-5.6442,-5.6533,-5.5524,-5.6033,-5.6205,-5.5479,-5.5403,-5.5403,-5.5403,-5.5403,-5.5403,-5.5403,-5.4658,-5.418,-5.4104,-5.2737,-5.1587,-5.073,-5.0632,-5.021,-4.9424,-5.0057,-4.9961,-4.9214,-4.9999,-5.0325,0.0,0.0,0.0,0.0,0.0,0.0,0.0,0.0,0.0,0.0,0.0,0.0,0.0,0.0,0.0,0.0,0.0,0.0,0.0,0.0,0.0,0.0,0.0,0.0,0.0,0.0,0.0,0.0,0.0,0.0,0.0,0.0,0.0,0.0,0.0,-5.1738,-5.1735,-5.2416,-5.2767,0.0,-5.3496,-5.3807,-5.3807,-5.4177,-5.4703,-5.5404,-5.6149,-5.6476,-5.6484,-5.6542,-5.6586,-5.6582,-5.6591,-5.6542,-5.6352,-5.5668,-5.526,-5.5002,-5.4562,-5.473,-5.5186,-5.5474,-5.604,-5.6606,-5.6606,-5.6606,-5.6606,-5.6606,-5.6485,-5.6503,-5.7137,-5.7309,-5.7643,-5.8974,-5.8933,-5.8565,-5.8547,-5.8506,-5.8225,-5.7434,-5.7228,-5.6867,-5.5845,-5.5651,-5.5626,-5.5523,-5.6179,-5.6378,-5.5498,-5.5556,-5.5594,-5.5422,-5.5403,-5.5403,-5.5403,-5.5403,-5.5403,-5.5403,-5.5231,-5.4811,-5.4123,-5.3145,-5.2518,-5.2318,-5.1706,-5.1262,-5.1071,-4.9947,-4.9296,-4.9124,-4.9315,-4.9029,0.0,0.0,0.0,0.0,0.0,0.0,0.0,0.0,0.0,0.0,0.0,0.0,0.0,0.0,0.0,0.0,0.0,0.0,0.0,0.0,0.0,0.0,0.0,0.0,0.0,0.0,0.0,0.0,0.0,0.0,0.0,0.0,0.0,0.0,-5.0731,-5.121,-5.1248,-5.1695,-5.1938,-5.1982,-5.2446,-5.2655,-5.2675,-5.3486,-5.4117,-5.4606,-5.5087,-5.5293,-5.5348,-5.5782,-5.5732,-5.5433,-5.6267,-5.63,-5.5828,-5.5359,-5.5182,-5.5065,-5.4586,-5.4713,-5.5151,-5.5567,-5.5985,-5.6347,-5.6318,-5.6347,-5.6347,-5.632,-5.6241,-5.6244,-5.6666,-5.7305,-5.8015,-5.88,-5.9099,-5.9308,-5.9585,-5.9573,-5.9243,-5.8412,-5.7867,-5.7239,-5.6237,-5.5753,-5.5476,-5.5409,-5.6071,-5.6301,-5.5498,-5.5747,-5.5976,-5.5976,-5.5632,-5.5556,-5.5938,-5.5632,-5.5403,-5.5403,-5.5403,-5.5212,-5.4734,-5.4295,-5.3645,-5.2824,-5.2384,-5.2174,-5.2174,-5.1295,-5.0665,-5.0302,-5.0302,-4.9824,0.0,0.0,0.0,0.0,0.0,0.0,0.0,0.0,0.0,0.0,0.0,0.0,0.0,0.0,0.0,0.0,0.0,0.0,0.0,0.0,0.0,0.0,0.0,0.0,0.0,0.0,0.0,0.0,0.0,0.0,0.0,0.0,-5.0441,-4.9731,-5.0539,-5.1033,-5.1094,-5.125,-5.1308,-5.1323,-5.1369,-5.1396,-5.1453,-5.2835,-5.3582,-5.378,-5.3928,-5.4002,-5.4056,-5.4772,-5.4649,-5.4144,-5.5597,-5.5777,-5.5217,-5.5093,-5.518,-5.5372,-5.5142,-5.5132,-5.5326,-5.5909,-5.6097,-5.6065,-5.6019,-5.6038,-5.6071,-5.602,-5.5966,-5.6009,-5.6308,-5.7383,-5.8414,-5.8556,-5.922,-6.0017,-6.075,-6.0754,-6.0383,-5.9523,-5.8426,-5.7447,-5.6721,-5.6052,-5.5556,-5.5422,-5.6071,-5.6301,-5.5498,-5.6091,-5.6549,-5.6396,-5.5919,-5.5823,-5.6339,-5.5785,-5.5403,-5.5403,-5.5403,-5.5403,-5.5403,-5.5403,-5.4715,-5.3282,-5.3091,-5.3015,-5.3015,-5.2862,-5.2461,-5.1811,-5.1658,-5.1142,0.0,0.0,0.0,0.0,0.0,0.0,0.0,0.0,0.0,0.0,0.0,0.0,0.0,0.0,0.0,0.0,0.0,0.0,0.0,0.0,0.0,0.0,0.0,0.0,0.0,0.0,0.0,0.0,0.0,0.0,0.0,-4.8922,-4.8978,-4.885,-4.9715,-5.0197,-5.0264,-5.1005,-5.1394,-5.1386,-5.141,-5.139,-5.1414,-5.1633,-5.2144,-5.2919,-5.3663,-5.4008,-5.4004,-5.4134,-5.4113,-5.402,-5.4269,-5.4606,-5.4873,-5.4237,-5.4731,-5.5648,-5.5106,-5.5306,-5.5823,-5.6019,-5.6051,-5.6005,-5.6005,-5.5996,-5.602,-5.6005,-5.5877,-5.6078,-5.7543,-5.7943,-5.8336,-5.9764,-6.0212,-6.0353,-6.0468,-6.0453,-6.0177,-5.9316,-5.7856,-5.674,-5.6606,-5.6511,-5.6205,-5.5498,-5.6071,-5.6301,-5.5498,-5.6091,-5.632,-5.5632,-5.6091,-5.6205,-5.5613,-5.546,-5.5403,-5.5403,-5.5403,-5.5403,-5.5403,-5.5403,-5.5288,-5.5059,-5.4314,-5.3932,-5.3913,-5.3168,-5.2728,-5.2614,-5.1926,-5.1142,0.0,0.0,0.0,0.0,0.0,0.0,0.0,0.0,0.0,0.0,0.0,0.0,0.0,0.0,0.0,0.0,0.0,0.0,0.0,0.0,0.0,0.0,0.0,0.0,0.0,0.0,0.0,0.0,0.0,0.0,-4.7334,-4.8187,-4.8502,-4.8035,-4.8867,-4.9348,-4.9421,-4.9805,-5.0227,-5.0666,-5.0674,-5.0898,-5.1294,-5.1284,-5.1531,-5.1988,-5.2306,-5.2425,-5.2459,-5.2875,-5.2781,-5.2465,-5.3407,-5.365,-5.3402,-5.3071,-5.3955,-5.5168,-5.4347,-5.4843,-5.5842,-5.5825,-5.5769,-5.5712,-5.5692,-5.5692,-5.5711,-5.5668,-5.5602,-5.5823,-5.7004,-5.759,-5.8192,-5.9396,-6.0045,-6.0389,-6.0389,-6.0389,-6.0141,-5.9281,-5.8498,-5.7695,-5.6759,-5.6587,-5.632,-5.5517,-5.5708,-5.5804,-5.546,-5.5708,-5.6148,-5.674,-5.6282,-5.6167,-5.6759,-5.5938,-5.5403,-5.5403,-5.5403,-5.5403,-5.5403,-5.5403,-5.5403,-5.5403,-5.5021,-5.483,-5.483,-5.4448,-5.4008,-5.3511,-5.3168,-5.2537,0.0,0.0,0.0,0.0,0.0,0.0,0.0,0.0,0.0,0.0,0.0,0.0,0.0,0.0,0.0,0.0,0.0,0.0,0.0,0.0,0.0,0.0,0.0,0.0,0.0,0.0,0.0,0.0,0.0,0.0,-4.6268,-4.7405,-4.7827,-4.7211,-4.8045,-4.8518,-4.8564,-4.9014,-4.9511,-5.0071,-5.0269,-5.066,-5.117,-5.1171,-5.121,-5.1291,-5.121,-5.1161,-5.1197,-5.1734,-5.1618,-5.119,-5.244,-5.2671,-5.2255,-5.2285,-5.3359,-5.4691,-5.3959,-5.4608,-5.5731,-5.5621,-5.5527,-5.548,-5.5408,-5.5432,-5.5451,-5.5409,-5.539,-5.5626,-5.6671,-5.7409,-5.8154,-5.9185,-5.9931,-6.0389,-6.0389,-6.0389,-6.0198,-5.9568,-5.9262,-5.8651,-5.7179,-5.674,-5.6396,-5.5804,-5.5708,-5.5708,-5.5708,-5.5899,-5.6434,-5.7466,-5.6454,-5.6301,-5.7772,-5.6358,-5.5594,-5.6014,-5.5651,-5.5498,-5.5708,-5.5517,-5.5384,-5.5358,-5.5358,-5.5358,-5.5403,-5.5358,-5.5014,-5.4365,-5.4148,-5.3709,0.0,0.0,0.0,0.0,0.0,0.0,0.0,0.0,0.0,0.0,0.0,0.0,0.0,0.0,0.0,0.0,0.0,0.0,0.0,0.0,0.0,0.0,0.0,0.0,0.0,0.0,0.0,0.0,0.0,0.0,-4.6206,-4.6347,-4.6413,-4.6358,-4.7217,-4.7666,-4.767,-4.9313,-5.0095,-5.0008,-5.0777,-5.1141,-5.1105,-5.1037,-5.0995,-5.1023,-5.1081,-5.1076,-5.1015,-5.1053,-5.105,-5.1008,-5.1093,-5.1541,-5.2121,-5.2253,-5.3236,-5.4514,-5.4533,-5.5017,-5.5596,-5.5527,-5.5456,-5.5408,-5.5408,-5.5396,-5.5403,-5.5403,-5.5403,-5.5785,-5.7409,-5.7867,-5.8307,-5.9931,-6.037,-6.0389,-6.0389,-6.0389,-6.0389,-6.0332,-5.9663,-5.8842,-5.7982,-5.7141,-5.6587,-5.653,-5.653,-5.653,-5.653,-5.7256,-5.7485,-5.674,-5.6587,-5.6912,-5.781,-5.6358,-5.6091,-5.7676,-5.6282,-5.5747,-5.6511,-5.5804,-5.5339,-5.5229,-5.5203,-5.5275,-5.5403,-5.5275,-5.521,-5.5107,-5.4284,-5.3895,0.0,0.0,0.0,0.0,0.0,0.0,0.0,0.0,0.0,0.0,0.0,0.0,0.0,0.0,0.0,0.0,0.0,0.0,0.0,0.0,0.0,0.0,0.0,0.0,0.0,0.0,0.0,0.0,0.0,0.0,-4.6249,-4.6296,-4.6306,-4.6295,-4.6599,-4.6738,-4.6707,-4.7236,-4.7751,-4.8296,-4.9083,-4.9699,-5.0146,-5.0693,-5.0893,-5.0812,-5.0793,-5.0841,-5.0937,-5.0844,-5.081,-5.0822,-5.0822,-5.0947,-5.1125,-5.1198,-5.2204,-5.3539,-5.3546,-5.4425,-5.548,-5.5456,-5.5402,-5.539,-5.539,-5.5409,-5.5403,-5.5403,-5.5766,-5.6434,-5.76,-5.8288,-5.8956,-6.0122,-6.0389,-6.0389,-6.0389,-6.0389,-6.0542,-6.1077,-6.0924,-6.0446,-5.9644,-5.9243,-5.867,-5.76,-5.7428,-5.7428,-5.7428,-5.7714,-5.7982,-5.8192,-5.766,-5.7652,-5.853,-5.751,-5.7109,-5.7728,-5.7194,-5.7003,-5.727,-5.6507,-5.6061,-5.5987,-5.5434,-5.5149,-5.5214,-5.5149,-5.5149,-5.5149,-5.4836,-5.4675,-3.9354,0.0,0.0,0.0,0.0,0.0,0.0,0.0,0.0,0.0,0.0,0.0,0.0,0.0,0.0,0.0,0.0,0.0,0.0,0.0,0.0,0.0,0.0,0.0,0.0,0.0,0.0,0.0,0.0,0.0,-4.586,-4.5836,-4.5937,-4.6184,-4.6208,-4.6172,-4.6114,-4.6305,-4.6663,-4.7202,-4.8048,-4.882,-4.9548,-5.0119,-5.0487,-5.0663,-5.0296,-5.0375,-5.0791,-5.0683,-5.0643,-5.0643,-5.0643,-5.0603,-5.0582,-5.0582,-5.1595,-5.3012,-5.297,-5.4015,-5.5408,-5.5402,-5.539,-5.5403,-5.5403,-5.5403,-5.5403,-5.5403,-5.5976,-5.6797,-5.7676,-5.8708,-5.9682,-6.0255,-6.0389,-6.0389,-6.0389,-6.0389,-6.0561,-6.1096,-6.1191,-6.0924,-6.0102,-5.995,-5.9587,-5.8479,-5.8307,-5.8307,-5.8279,-5.8279,-5.8462,-5.8968,-5.8215,-5.8149,-5.9263,-5.8282,-5.7882,-5.8463,-5.7968,-5.7797,-5.8111,-5.7329,-5.6835,-5.6778,-5.5941,-5.5475,-5.5465,-5.519,-5.5085,-5.5085,-5.5038,-5.5028,0.0,0.0,0.0,0.0,0.0,0.0,0.0,0.0,0.0,0.0,0.0,0.0,0.0,0.0,0.0,0.0,0.0,0.0,0.0,0.0,0.0,0.0,0.0,0.0,0.0,0.0,0.0,0.0,0.0,-4.41,-4.4954,-4.4959,-4.5248,-4.5977,-4.6007,-4.5964,-4.5908,-4.6735,-4.7092,-4.6971,-4.7835,-4.8624,-4.9317,-4.9278,-4.9739,-5.0488,-4.9543,-4.9698,-5.0544,-5.0483,-5.0462,-5.0462,-5.0481,-5.05,-5.05,-5.0538,-5.1574,-5.2989,-5.2962,-5.403,-5.5402,-5.5409,-5.5403,-5.5403,-5.5403,-5.5403,-5.5403,-5.5403,-5.5995,-5.6836,-5.7734,-5.9185,-6.0389,-6.0389,-6.0389,-6.0389,-6.0389,-6.0389,-6.0408,-6.0427,-6.0427,-6.016,-5.9319,-5.9185,-5.9185,-5.9147,-5.9147,-5.912,-5.9054,-5.9035,-5.9026,-5.8938,-5.8177,-5.8329,-5.9965,-5.8585,-5.8356,-6.0004,-5.8566,-5.8033,-5.89,-5.809,-5.7604,-5.7544,-5.6728,-5.628,-5.619,-5.5407,-5.5,-5.5,-5.4931,-5.4901,-4.0565,0.0,0.0,0.0,0.0,0.0,0.0,0.0,0.0,0.0,0.0,0.0,0.0,0.0,0.0,0.0,0.0,0.0,0.0,0.0,0.0,0.0,0.0,0.0,0.0,0.0,0.0,0.0,-4.3782,-4.4721,-4.492,-4.5424,-4.5796,-4.6002,-4.5916,-4.5838,-4.5838,-4.6015,-4.6095,-4.6061,-4.6892,-4.7375,-4.7549,-4.8145,-4.8548,-4.8699,-4.839,-4.8752,-4.9518,-4.9561,-4.9541,-4.9618,-5.0251,-5.0478,-5.0511,-5.1143,-5.2001,-5.293,-5.3555,-5.4473,-5.5409,-5.5403,-5.5403,-5.5403,-5.5403,-5.5403,-5.5403,-5.5403,-5.6434,-5.7886,-5.9319,-6.0045,-6.0389,-6.0389,-6.0389,-6.0389,-6.0389,-6.0389,-6.0561,-6.1153,-6.1268,-6.1191,-6.0962,-6.0905,-6.0714,-6.0122,-5.9989,-5.9979,-5.9951,-5.9854,-5.9805,-5.9775,-5.9505,-5.9513,-5.9988,-5.9545,-5.9488,-6.0007,-5.9589,-5.9437,-5.9684,-5.8905,-5.8456,-5.8363,-5.696,-5.622,-5.619,-5.5348,-5.4931,-5.4931,-5.4901,-5.4901,0.0,0.0,0.0,0.0,0.0,0.0,0.0,0.0,0.0,0.0,0.0,0.0,0.0,0.0,0.0,0.0,0.0,0.0,0.0,0.0,0.0,0.0,0.0,0.0,0.0,0.0,0.0,0.0,-4.2611,-4.3632,-4.4238,-4.5344,-4.5928,-4.5877,-4.5803,-4.5748,-4.5714,-4.5676,-4.5657,-4.5657,-4.6105,-4.6474,-4.682,-4.728,-4.7835,-4.8426,-4.8039,-4.8321,-4.9108,-4.913,-4.9362,-4.9707,-5.0224,-5.0393,-5.0463,-5.1342,-5.1931,-5.2461,-5.3683,-5.4428,-5.4925,-5.5288,-5.5403,-5.5403,-5.5403,-5.5403,-5.5403,-5.5403,-5.6606,-5.8288,-5.995,-6.0389,-6.0389,-6.0389,-6.0389,-6.0389,-6.0389,-6.0389,-6.0523,-6.1,-6.1096,-6.1096,-6.1096,-6.1096,-6.0943,-6.0437,-6.0342,-6.0264,-6.0186,-6.0106,-6.0057,-6.0026,-5.9963,-5.995,-5.995,-5.9918,-5.9918,-5.995,-5.995,-5.995,-5.995,-5.9495,-5.9248,-5.9184,-5.7554,-5.636,-5.5659,-5.5148,-5.4901,-5.4901,-5.4901,-5.4901,0.0,0.0,0.0,0.0,0.0,0.0,-3.8714,-3.7974,-3.7409,0.0,0.0,0.0,0.0,0.0,0.0,0.0,0.0,0.0,0.0,0.0,0.0,0.0,0.0,0.0,0.0,0.0,-3.9896,-3.9898,-4.0794,-4.1944,-4.3327,-4.4967,-4.5777,-4.5574,-4.5635,-4.5657,-4.5586,-4.5586,-4.5605,-4.5586,-4.5513,-4.5898,-4.6647,-4.6511,-4.7293,-4.863,-4.7859,-4.8067,-4.8945,-4.885,-4.9347,-5.0187,-5.0264,-5.0302,-5.0417,-5.1295,-5.1658,-5.1964,-5.355,-5.4161,-5.4371,-5.5154,-5.5403,-5.5403,-5.5403,-5.5403,-5.5422,-5.5517,-5.6683,-5.8249,-5.9835,-6.0332,-6.0389,-6.0389,-6.0389,-6.0389,-6.0389,-6.0389,-6.0389,-6.0389,-6.0389,-6.0389,-6.0389,-6.0389,-6.0332,-6.0294,-6.0264,-6.0186,-6.0026,-5.9994,-5.9982,-5.9885,-5.9885,-5.9885,-5.9885,-5.9885,-5.9885,-5.9885,-5.9885,-5.9885,-5.9885,-5.9885,-5.9885,-5.9885,-5.8237,-5.6569,-5.4901,-5.4901,-5.4901,-5.4901,-5.4901,-5.4901,0.0,0.0,0.0,0.0,0.0,0.0,-3.885,-3.887,-3.8622,0.0,0.0,0.0,0.0,0.0,0.0,0.0,0.0,0.0,0.0,0.0,0.0,0.0,0.0,0.0,0.0,0.0,-3.9901,-3.9896,-4.1809,-4.308,-4.338,-4.489,-4.5401,-4.4672,-4.5274,-4.5603,-4.5586,-4.5586,-4.5568,-4.5513,-4.5513,-4.5553,-4.5668,-4.5648,-4.5779,-4.6025,-4.5851,-4.6653,-4.8009,-4.7302,-4.7933,-4.9385,-5.0054,-5.0302,-5.0417,-5.1295,-5.2021,-5.2709,-5.3741,-5.4562,-5.5174,-5.5345,-5.5403,-5.5403,-5.5403,-5.5403,-5.5536,-5.6186,-5.7103,-5.8116,-5.9109,-5.9873,-6.0389,-6.0389,-6.0389,-6.0389,-6.0389,-6.0389,-6.0389,-6.0389,-6.0352,-6.0323,-6.0323,-6.0226,-6.0148,-6.0148,-6.0087,-6.0026,-5.9994,-5.995,-5.9918,-5.9885,-5.9885,-5.9885,-5.9885,-5.9885,-5.9885,-5.9885,-5.9885,-5.9885,-5.9885,-5.9885,-5.9885,-5.9885,-5.8237,-5.6569,-5.4901,-5.4901,-5.4901,-5.4901,-5.4901,-5.4901,0.0,0.0,0.0,-4.1057,0.0,0.0,0.0,-3.8814,0.0,0.0,0.0,0.0,0.0,0.0,0.0,0.0,0.0,0.0,0.0,0.0,0.0,0.0,0.0,0.0,0.0,0.0,-3.9526,-4.0335,-4.1856,-4.2744,-4.2695,-4.4206,-4.4845,-4.435,-4.5161,-4.5586,-4.5586,-4.5568,-4.5531,-4.5495,-4.5477,-4.5438,-4.5398,-4.5378,-4.5547,-4.5908,-4.5908,-4.6615,-4.7799,-4.7799,-4.8315,-4.9137,-4.9538,-4.9939,-5.0417,-5.1295,-5.1868,-5.2384,-5.3664,-5.439,-5.483,-5.5269,-5.5403,-5.5403,-5.5403,-5.5403,-5.5575,-5.6358,-5.7218,-5.8096,-5.8899,-5.9759,-6.0389,-6.0389,-6.0389,-6.0389,-6.0389,-6.0389,-6.0389,-6.0352,-6.0275,-6.0216,-6.0313,-6.0197,-6.0087,-6.0057,-6.0026,-5.9994,-5.995,-5.9918,-5.9885,-5.9885,-5.9885,-5.9885,-5.9885,-5.9885,-5.9885,-5.9885,-5.9885,-5.9885,-5.9885,-5.9885,-5.9696,-5.9298,-5.8047,-5.6796,-5.5546,-5.511,-5.4901,-5.4901,-5.4901,-5.4901,0.0,0.0,0.0,0.0,0.0,-4.0229,0.0,0.0,0.0,0.0,0.0,0.0,0.0,0.0,0.0,0.0,0.0,0.0,0.0,0.0,0.0,0.0,0.0,0.0,0.0,0.0,-3.9069,-4.0519,-4.1531,-4.1967,-4.1736,-4.3423,-4.4196,-4.3835,-4.497,-4.5509,-4.5355,-4.5436,-4.5476,-4.5476,-4.5419,-4.5379,-4.5398,-4.5317,-4.564,-4.629,-4.6424,-4.6997,-4.7857,-4.8563,-4.8945,-4.9117,-4.927,-4.9729,-5.0397,-5.1085,-5.1563,-5.2021,-5.3378,-5.4065,-5.4467,-5.5174,-5.5403,-5.5403,-5.5403,-5.5403,-5.5536,-5.6186,-5.7103,-5.8058,-5.8708,-5.9625,-6.0389,-6.0389,-6.0389,-6.0389,-6.0389,-6.0361,-6.038,-6.0294,-6.0167,-6.0118,-6.0216,-6.0137,-6.0057,-5.9994,-5.9963,-5.9982,-5.9885,-5.9885,-5.9885,-5.9885,-5.9885,-5.9885,-5.9885,-5.9885,-5.9885,-5.9885,-5.9885,-5.9885,-5.9885,-5.9885,-5.943,-5.8464,-5.7763,-5.691,-5.5943,-5.5242,-5.4901,-5.4901,-5.4901,-5.4901,0.0,0.0,0.0,0.0,-4.2184,0.0,0.0,0.0,0.0,0.0,0.0,0.0,0.0,0.0,0.0,0.0,0.0,0.0,0.0,0.0,0.0,0.0,0.0,0.0,0.0,0.0,0.0,-3.9612,-4.1123,-4.1636,-4.0785,-4.3022,-4.3624,-4.2143,-4.432,-4.5167,-4.4456,-4.5093,-4.5419,-4.5399,-4.5399,-4.5378,-4.5317,-4.5297,-4.5354,-4.5468,-4.6194,-4.6997,-4.7818,-4.7914,-4.8391,-4.9156,-4.9882,-5.0225,-5.0302,-5.0417,-5.1391,-5.269,-5.2881,-5.3951,-5.5269,-5.5365,-5.5403,-5.5403,-5.5403,-5.5403,-5.5422,-5.5517,-5.6683,-5.7925,-5.8001,-5.9205,-6.0389,-6.0389,-6.0389,-6.0389,-6.0323,-6.0294,-6.0294,-6.0148,-6.0057,-6.0026,-6.0026,-5.9982,-5.9918,-5.9918,-5.9918,-5.9918,-5.9885,-5.9885,-5.9885,-5.9885,-5.9885,-5.9885,-5.9885,-5.9885,-5.9885,-5.9885,-5.9885,-5.9885,-5.9885,-5.9885,-5.9146,-5.7573,-5.7441,-5.6626,-5.5053,-5.4958,-5.4901,-5.4901,-5.4901,-5.4901,0.0,0.0,0.0,0.0,0.0,0.0,-4.0867,0.0,-3.993,0.0,0.0,0.0,0.0,0.0,0.0,0.0,0.0,0.0,0.0,0.0,0.0,0.0,0.0,0.0,0.0,0.0,0.0,0.0,0.0,-4.0789,-3.9884,-4.1774,-4.2511,-4.1764,-4.3726,-4.4612,-4.4249,-4.4998,-4.5399,-4.5398,-4.5359,-4.5317,-4.5297,-4.5297,-4.5297,-4.5316,-4.566,-4.629,-4.7092,-4.7589,-4.8315,-4.9175,-4.9996,-5.0015,-4.9652,-5.013,-5.1353,-5.2805,-5.2805,-5.3932,-5.5403,-5.5403,-5.5403,-5.5403,-5.5403,-5.5403,-5.5403,-5.5403,-5.6606,-5.7905,-5.7905,-5.9128,-6.0389,-6.0389,-6.0389,-6.0361,-6.0294,-6.0313,-6.0264,-6.0076,-6.0026,-5.9994,-5.995,-5.9918,-5.9885,-5.9885,-5.9885,-5.9885,-5.9885,-5.9885,-5.9885,-5.9885,-5.9885,-5.9885,-5.9885,-5.9885,-5.9885,-5.9885,-5.9885,-5.9885,-5.9885,-5.9885,-5.9336,-5.818,-5.7649,-5.6815,-5.564,-5.5148,-5.4901,-5.4901,-5.4901,-5.4901,-4.4412,0.0,0.0,0.0,0.0,0.0,0.0,0.0,0.0,0.0,0.0,0.0,0.0,0.0,0.0,0.0,0.0,0.0,0.0,0.0,0.0,0.0,0.0,0.0,0.0,0.0,0.0,0.0,-3.9089,0.0,-3.9315,-4.0646,-4.1418,-4.1366,-4.3249,-4.4115,-4.3828,-4.4843,-4.5359,-4.5359,-4.5317,-4.5297,-4.5297,-4.5297,-4.5297,-4.5316,-4.5793,-4.6328,-4.694,-4.8028,-4.8735,-4.9175,-4.9996,-4.9805,-4.9194,-4.9996,-5.1219,-5.2499,-5.2709,-5.3932,-5.5403,-5.5403,-5.5403,-5.5403,-5.5403,-5.5403,-5.5403,-5.5403,-5.6434,-5.76,-5.7783,-5.8929,-6.0074,-6.0275,-6.0313,-6.0304,-6.0216,-6.0235,-6.0156,-5.9994,-5.9963,-5.995,-5.9918,-5.9885,-5.9885,-5.9885,-5.9885,-5.9885,-5.9885,-5.9885,-5.9885,-5.9885,-5.9885,-5.9809,-5.9582,-5.9772,-5.9885,-5.9885,-5.9885,-5.9885,-5.9885,-5.9677,-5.9165,-5.835,-5.7497,-5.6664,-5.5849,-5.5204,-5.4901,-5.4901,-5.4901,-5.4901,0.0,0.0,0.0,-4.4082,0.0,0.0,0.0,0.0,-4.2109,0.0,0.0,0.0,0.0,0.0,0.0,-3.7441,0.0,0.0,0.0,0.0,0.0,0.0,0.0,0.0,0.0,0.0,0.0,-3.6757,-3.7584,-3.843,-3.9258,-4.0092,-4.054,-4.054,-4.287,-4.3695,-4.2852,-4.4497,-4.5297,-4.5297,-4.5297,-4.5297,-4.5297,-4.5297,-4.5297,-4.5392,-4.7016,-4.7742,-4.7895,-4.9538,-4.9786,-4.9175,-4.9996,-4.9805,-4.9194,-4.9996,-5.0875,-5.1754,-5.2518,-5.3932,-5.5403,-5.5403,-5.5403,-5.5403,-5.5403,-5.5403,-5.5403,-5.5403,-5.5995,-5.6816,-5.7518,-5.8368,-5.9216,-5.9957,-6.0099,-6.0087,-6.0026,-5.9994,-6.0013,-5.9918,-5.9885,-5.9885,-5.9885,-5.9885,-5.9885,-5.9885,-5.9885,-5.9885,-5.9885,-5.9885,-5.9885,-5.9885,-5.9885,-5.9563,-5.8786,-5.9449,-5.9885,-5.9885,-5.9885,-5.9885,-5.9885,-5.9146,-5.8331,-5.746,-5.6645,-5.5811,-5.4939,-5.492,-5.4901,-5.4901,-5.4901,-5.4901,0.0,0.0,-4.6014,-4.4844,0.0,0.0,0.0,0.0,0.0,0.0,0.0,0.0,0.0,0.0,-3.9353,-3.908,-3.8549,0.0,0.0,0.0,0.0,0.0,0.0,0.0,0.0,0.0,0.0,-3.6021,-3.7236,-3.7877,0.0,-3.8888,-3.9605,-3.9574,-4.1435,-4.2566,-4.2794,-4.3883,-4.4723,-4.5297,-4.5297,-4.5297,-4.5297,-4.5297,-4.5297,-4.5354,-4.6462,-4.7283,-4.7895,-4.9022,-4.9652,-4.992,-5.0187,-5.013,-4.992,-5.0206,-5.0856,-5.1811,-5.3187,-5.4046,-5.4639,-5.5212,-5.5403,-5.5403,-5.5403,-5.5403,-5.5517,-5.6033,-5.6752,-5.7518,-5.8349,-5.9159,-5.9786,-6.0042,-6.0099,-6.0068,-6.0026,-5.9994,-5.9963,-5.9918,-5.9885,-5.9885,-5.9885,-5.9885,-5.9885,-5.9885,-5.9885,-5.9885,-5.9885,-5.9885,-5.9885,-5.9885,-5.9412,-5.8995,-5.871,-5.8407,-5.8237,-5.8237,-5.8237,-5.8237,-5.8237,-5.7971,-5.7441,-5.6626,-5.6341,-5.5773,-5.4901,-5.4901,-5.4901,-5.4901,-5.4901,-5.4901,-4.63,-4.6309,0.0,-4.484,-4.4119,0.0,-4.2206,0.0,0.0,0.0,0.0,0.0,0.0,0.0,0.0,-4.032,-3.9617,-3.8606,0.0,-3.6573,0.0,0.0,0.0,0.0,0.0,0.0,-3.618,-3.5646,-3.655,-3.6993,0.0,0.0,-3.8843,-3.9099,-4.0691,-4.182,-4.2335,-4.3443,-4.4284,-4.4838,-4.5144,-4.5297,-4.5297,-4.5297,-4.5297,-4.5354,-4.6481,-4.7261,-4.785,-4.9041,-4.9824,-5.0278,-5.0302,-5.0302,-5.0302,-5.0302,-5.0856,-5.1811,-5.3168,-5.3836,-5.4237,-5.5116,-5.5358,-5.5339,-5.5339,-5.5313,-5.5458,-5.6297,-5.6861,-5.7492,-5.8625,-5.928,-5.9695,-5.995,-6.0026,-6.0026,-5.9963,-5.9963,-5.995,-5.9918,-5.9885,-5.9885,-5.9885,-5.9885,-5.9885,-5.9885,-5.9885,-5.9885,-5.9885,-5.9885,-5.9885,-5.9885,-5.9165,-5.8559,-5.8256,-5.746,-5.7099,-5.7384,-5.7403,-5.7403,-5.7403,-5.7118,-5.6853,-5.6626,-5.6038,-5.5602,-5.5356,-5.5053,-5.4901,-5.4901,-5.4901,-5.4901]}]]